[[{"header":{"parameterUnit":"m.s-1","parameterCategory":1,"la1":30.6,"la2":28.766,"lo1":-90.7593,"lo2":-88.6598,"dy":0.0162,"dx":0.0183,"nx":116,"ny":114,"refTime":"2023-10-16T18:00:00:Z","depth":0,"parameterNumber":2,"parameterNumberName":"U-component_of_WINDS"},"data":[0.0,0.0,0.0,0.0,0.0,0.0,0.0,0.0,0.0,0.0,0.0,0.0,0.0,0.0,0.0,0.0,0.0,0.0,0.0,0.0,0.0,0.0,0.0,0.0,0.0,0.0,0.0,0.0,0.0,0.0,0.0,0.0,0.0,0.0,0.0,0.0,0.0,0.0,0.0,0.0,0.0,0.0,0.0,0.0,0.0,0.0,0.0,0.0,0.0,0.0,0.0,0.0,0.0,0.0,0.0,0.0,0.0,0.0,0.0,0.0,0.0,0.0,0.0,0.0,0.0,0.0,0.0,0.0,0.0,0.0,0.0,0.0,0.0,0.0,0.0,0.0,0.0,0.0,0.0,0.0,0.0,0.0,0.0,0.0,0.0,0.0,0.0,0.0,0.0,0.0,0.0,0.0,0.0,0.0,0.0,0.0,0.0,0.0,0.0,0.0,0.0,0.0,0.0,0.0,0.0,0.0,0.0,0.0,0.0,0.0,0.0,0.0,0.0,0.0,0.0,0.0,0.0,0.0,0.0,0.0,0.0,0.0,0.0,0.0,0.0,0.0,0.0,0.0,0.0,0.0,0.0,0.0,0.0,0.0,0.0,0.0,0.0,0.0,0.0,0.0,0.0,0.0,0.0,0.0,0.0,0.0,0.0,0.0,0.0,0.0,0.0,0.0,0.0,0.0,0.0,0.0,0.0,0.0,0.0,0.0,0.0,0.0,0.0,0.0,0.0,0.0,0.0,0.0,0.0,0.0,0.0,0.0,0.0,0.0,0.0,0.0,0.0,0.0,0.0,0.0,0.0,0.0,0.0,0.0,0.0,0.0,0.0,0.0,0.0,0.0,0.0,0.0,0.0,0.0,0.0,0.0,0.0,0.0,0.0,0.0,0.0,0.0,0.0,0.0,0.0,0.0,0.0,0.0,0.0,0.0,0.0,0.0,0.0,0.0,0.0,0.0,0.0,0.0,0.0,0.0,0.0,0.0,0.0,0.0,0.0,0.0,0.0,0.0,0.0,0.0,0.0,0.0,0.0,0.0,0.0,0.0,0.0,0.0,0.0,0.0,0.0,0.0,0.0,0.0,0.0,0.0,0.0,0.0,0.0,0.0,0.0,0.0,0.0,0.0,0.0,0.0,0.0,0.0,0.0,0.0,0.0,0.0,0.0,0.0,0.0,0.0,0.0,0.0,0.0,0.0,0.0,0.0,0.0,0.0,0.0,0.0,0.0,0.0,0.0,0.0,0.0,0.0,0.0,0.0,0.0,0.0,0.0,0.0,0.0,0.0,0.0,0.0,0.0,0.0,0.0,0.0,0.0,0.0,0.0,0.0,0.0,0.0,0.0,0.0,0.0,0.0,0.0,0.0,0.0,0.0,0.0,0.0,0.0,0.0,0.0,0.0,0.0,0.0,0.0,0.0,0.0,0.0,0.0,0.0,0.0,0.0,0.0,0.0,0.0,0.0,0.0,0.0,0.0,0.0,0.0,0.0,0.0,0.0,0.0,0.0,0.0,0.0,0.0,0.0,0.0,0.0,0.0,0.0,0.0,0.0,0.0,0.0,0.0,0.0,0.0,0.0,0.0,0.0,0.0,0.0,0.0,0.0,0.0,0.0,0.0,0.0,0.0,0.0,0.0,0.0,0.0,0.0,0.0,0.0,0.0,0.0,0.0,0.0,0.0,0.0,0.0,0.0,0.0,0.0,0.0,0.0,0.0,0.0,0.0,0.0,0.0,0.0,0.0,0.0,0.0,0.0,0.0,0.0,0.0,0.0,0.0,0.0,0.0,0.0,0.0,0.0,0.0,0.0,0.0,0.0,0.0,0.0,0.0,0.0,0.0,0.0,0.0,0.0,0.0,0.0,0.0,0.0,0.0,0.0,0.0,0.0,0.0,0.0,0.0,0.0,0.0,0.0,0.0,0.0,0.0,0.0,0.0,0.0,0.0,0.0,0.0,0.0,0.0,0.0,0.0,0.0,0.0,0.0,0.0,0.0,0.0,0.0,0.0,0.0,0.0,0.0,0.0,0.0,0.0,0.0,0.0,0.0,0.0,0.0,0.0,0.0,0.0,0.0,0.0,0.0,0.0,0.0,0.0,0.0,0.0,0.0,0.0,0.0,0.0,0.0,0.0,0.0,0.0,0.0,0.0,0.0,0.0,0.0,0.0,0.0,0.0,0.0,0.0,0.0,0.0,0.0,0.0,0.0,0.0,0.0,0.0,0.0,0.0,0.0,0.0,0.0,0.0,0.0,0.0,0.0,0.0,0.0,0.0,0.0,0.0,0.0,0.0,0.0,0.0,0.0,0.0,0.0,0.0,0.0,0.0,0.0,0.0,0.0,0.0,0.0,0.0,0.0,0.0,0.0,0.0,0.0,0.0,0.0,0.0,0.0,0.0,0.0,0.0,0.0,0.0,0.0,0.0,0.0,0.0,0.0,0.0,0.0,0.0,0.0,0.0,0.0,0.0,0.0,0.0,0.0,0.0,0.0,0.0,0.0,0.0,0.0,0.0,0.0,0.0,0.0,0.0,0.0,0.0,0.0,0.0,0.0,0.0,0.0,0.0,0.0,0.0,0.0,0.0,0.0,0.0,0.0,0.0,0.0,0.0,0.0,0.0,0.0,0.0,0.0,0.0,0.0,0.0,0.0,0.0,0.0,0.0,0.0,0.0,0.0,0.0,0.0,0.0,0.0,0.0,0.0,0.0,0.0,0.0,0.0,0.0,0.0,0.0,0.0,0.0,0.0,0.0,0.0,0.0,0.0,0.0,0.0,0.0,0.0,0.0,0.0,0.0,0.0,0.0,0.0,0.0,0.0,0.0,0.0,0.0,0.0,0.0,0.0,0.0,0.0,0.0,0.0,0.0,0.0,0.0,0.0,0.0,0.0,0.0,0.0,0.0,0.0,0.0,0.0,0.0,0.0,0.0,0.0,0.0,0.0,0.0,0.0,0.0,0.0,0.0,0.0,0.0,0.0,0.0,0.0,0.0,0.0,0.0,0.0,0.0,0.0,0.0,0.0,0.0,0.0,0.0,0.0,0.0,0.0,0.0,0.0,0.0,0.0,0.0,0.0,0.0,0.0,0.0,0.0,0.0,0.0,0.0,0.0,0.0,0.0,0.0,0.0,0.0,0.0,0.0,0.0,0.0,0.0,0.0,0.0,0.0,0.0,0.0,0.0,0.0,0.0,0.0,0.0,0.0,0.0,0.0,0.0,0.0,0.0,0.0,0.0,0.0,0.0,0.0,0.0,0.0,0.0,0.0,0.0,0.0,0.0,0.0,0.0,0.0,0.0,0.0,0.0,0.0,0.0,0.0,0.0,0.0,0.0,0.0,0.0,0.0,0.0,0.0,0.0,0.0,0.0,0.0,0.0,0.0,0.0,0.0,0.0,0.0,0.0,0.0,0.0,0.0,0.0,0.0,0.0,0.0,0.0,0.0,0.0,0.0,0.0,0.0,0.0,0.0,0.0,0.0,0.0,0.0,0.0,0.0,0.0,0.0,0.0,0.0,0.0,0.0,0.0,0.0,0.0,0.0,0.0,0.0,0.0,0.0,0.0,0.0,0.0,0.0,0.0,0.0,0.0,0.0,0.0,0.0,0.0,0.0,0.0,0.0,0.0,0.0,0.0,0.0,0.0,0.0,0.0,0.0,0.0,0.0,0.0,0.0,0.0,0.0,0.0,0.0,0.0,0.0,0.0,0.0,0.0,0.0,0.0,0.0,0.0,0.0,0.0,0.0,0.0,0.0,0.0,0.0,0.0,0.0,0.0,0.0,0.0,0.0,0.0,0.0,0.0,0.0,0.0,0.0,0.0,0.0,0.0,0.0,0.0,0.0,0.0,0.0,0.0,0.0,0.0,0.0,0.0,0.0,0.0,0.0,0.0,0.0,0.0,0.0,0.0,0.0,0.0,0.0,0.0,0.0,0.0,0.0,0.0,0.0,0.0,0.0,0.0,0.0,0.0,0.0,0.0,0.0,0.0,0.0,0.0,0.0,0.0,0.0,0.0,0.0,0.0,0.0,0.0,0.0,0.0,0.0,0.0,0.0,0.0,0.0,0.0,0.0,0.0,0.0,0.0,0.0,0.0,0.0,0.0,0.0,0.0,0.0,0.0,0.0,0.0,0.0,0.0,0.0,0.0,0.0,0.0,0.0,0.0,0.0,0.0,0.0,0.0,0.0,0.0,0.0,0.0,0.0,0.0,0.0,0.0,0.0,0.0,0.0,0.0,0.0,0.0,0.0,0.0,0.0,0.0,0.0,0.0,0.0,0.0,0.0,0.0,0.0,0.0,0.0,0.0,0.0,0.0,0.0,0.0,0.0,0.0,0.0,0.0,0.0,0.0,0.0,0.0,0.0,0.0,0.0,0.0,0.0,0.0,0.0,0.0,0.0,0.0,0.0,0.0,0.0,0.0,0.0,0.0,0.0,0.0,0.0,0.0,0.0,0.0,0.0,0.0,0.0,0.0,0.0,0.0,0.0,0.0,0.0,0.0,0.0,0.0,0.0,0.0,0.0,0.0,0.0,0.0,0.0,0.0,0.0,0.0,0.0,0.0,0.0,0.0,0.0,0.0,0.0,0.0,0.0,0.0,0.0,0.0,0.0,0.0,0.0,0.0,0.0,0.0,0.0,0.0,0.0,0.0,0.0,0.0,0.0,0.0,0.0,0.0,0.0,0.0,0.0,0.0,0.0,0.0,0.0,0.0,0.0,0.0,0.0,0.0,0.0,0.0,0.0,0.0,0.0,0.0,0.0,0.0,0.0,0.0,0.0,0.0,0.0,0.0,0.0,0.0,0.0,0.0,0.0,0.0,0.0,0.0,0.0,0.0,0.0,0.0,0.0,0.0,0.0,0.0,0.0,0.0,0.0,0.0,0.0,0.0,0.0,0.0,0.0,0.0,0.0,0.0,0.0,0.0,0.0,0.0,0.0,0.0,0.0,0.0,0.0,0.0,0.0,0.0,0.0,0.0,0.0,0.0,0.0,0.0,0.0,0.0,0.0,0.0,0.0,0.0,0.0,0.0,0.0,0.0,0.0,0.0,0.0,0.0,0.0,0.0,0.0,0.0,0.0,0.0,0.0,0.0,0.0,0.0,0.0,0.0,0.0,0.0,0.0,0.0,0.0,0.0,0.0,0.0,0.0,0.0,0.0,0.0,0.0,0.0,0.0,0.0,0.0,0.0,0.0,0.0,0.0,0.0,0.0,0.0,0.0,0.0,0.0,0.0,0.0,0.0,0.0,0.0,0.0,0.0,0.0,0.0,0.0,0.0,0.0,0.0,0.0,0.0,0.0,0.0,0.0,0.0,0.0,0.0,0.0,0.0,0.0,0.0,0.0,0.0,0.0,0.0,0.0,0.0,0.0,0.0,0.0,0.0,0.0,0.0,0.0,0.0,0.0,0.0,0.0,0.0,0.0,0.0,0.0,0.0,0.0,0.0,0.0,0.0,0.0,0.0,0.0,0.0,0.0,0.0,0.0,0.0,0.0,0.0,0.0,0.0,0.0,0.0,0.0,0.0,0.0,0.0,0.0,0.0,0.0,0.0,0.0,0.0,0.0,0.0,0.0,0.0,0.0,0.0,0.0,0.0,0.0,0.0,0.0,0.0,0.0,0.0,0.0,0.0,0.0,0.0,0.0,0.0,0.0,0.0,0.0,0.0,0.0,0.0,0.0,0.0,0.0,0.0,0.0,0.0,0.0,0.0,0.0,0.0,0.0,0.0,0.0,0.0,0.0,0.0,0.0,0.0,0.0,0.0,0.0,0.0,0.0,0.0,0.0,0.0,0.0,0.0,0.0,0.0,0.0,0.0,0.0,0.0,0.0,0.0,0.0,0.0,0.0,0.0,0.0,0.0,0.0,0.0,0.0,0.0,0.0,0.0,0.0,0.0,0.0,0.0,0.0,0.0,0.0,0.0,0.0,0.0,0.0,0.0,0.0,0.0,0.0,0.0,0.0,0.0,0.0,0.0,0.0,0.0,0.0,0.0,0.0,0.0,0.0,0.0,0.0,0.0,0.0,0.0,0.0,0.0,0.0,0.0,0.0,0.0,0.0,0.0,0.0,0.0,0.0,0.0,0.0,0.0,0.0,0.0,0.0,0.0,2.623,0.0,0.0,0.0,0.0,0.0,0.0,0.0,0.0,0.0,0.0,0.0,0.0,0.0,0.0,0.0,0.0,0.0,0.0,0.0,0.0,0.0,0.0,0.0,0.0,0.0,0.0,0.0,0.0,0.0,0.0,0.0,0.0,0.0,0.0,0.0,0.0,0.0,0.0,0.0,0.0,0.0,0.0,0.0,0.0,0.0,0.0,0.0,0.0,0.0,0.0,0.0,0.0,0.0,0.0,0.0,0.0,0.0,0.0,0.0,0.0,0.0,0.0,0.0,0.0,0.0,0.0,0.0,0.0,0.0,0.0,0.0,0.0,0.0,0.0,0.0,0.0,0.0,0.0,0.0,0.0,0.0,0.0,0.0,0.0,0.0,0.0,0.0,0.0,0.0,0.0,0.0,0.0,0.0,0.0,0.0,0.0,0.0,0.0,0.0,0.0,0.0,0.0,0.0,0.0,0.0,0.0,0.0,0.0,0.0,0.0,0.0,0.0,0.0,0.0,0.0,0.0,2.8828,0.0,0.0,0.0,0.0,0.0,0.0,0.0,0.0,0.0,0.0,0.0,0.0,0.0,0.0,0.0,0.0,0.0,0.0,0.0,0.0,0.0,0.0,0.0,0.0,0.0,0.0,0.0,0.0,0.0,0.0,0.0,0.0,0.0,0.0,0.0,0.0,0.0,0.0,0.0,0.0,0.0,0.0,0.0,0.0,0.0,0.0,0.0,0.0,0.0,0.0,0.0,0.0,0.0,0.0,0.0,0.0,0.0,0.0,0.0,0.0,0.0,0.0,0.0,0.0,0.0,0.0,0.0,0.0,0.0,0.0,0.0,0.0,0.0,0.0,0.0,0.0,0.0,0.0,0.0,0.0,0.0,0.0,0.0,0.0,0.0,0.0,0.0,0.0,0.0,0.0,0.0,0.0,0.0,0.0,0.0,0.0,0.0,0.0,0.0,0.0,0.0,0.0,0.0,0.0,0.0,0.0,0.0,0.0,0.0,0.0,3.7535,3.7441,3.6366,3.4558,3.4429,3.2864,3.041,0.0,0.0,0.0,0.0,0.0,0.0,0.0,0.0,0.0,0.0,0.0,0.0,0.0,0.0,0.0,0.0,0.0,0.0,0.0,0.0,0.0,0.0,0.0,0.0,0.0,0.0,0.0,0.0,0.0,0.0,0.0,0.0,0.0,0.0,0.0,0.0,0.0,0.0,0.0,0.0,0.0,0.0,0.0,0.0,0.0,0.0,0.0,0.0,0.0,0.0,0.0,0.0,0.0,0.0,0.0,0.0,0.0,0.0,0.0,0.0,0.0,0.0,0.0,0.0,0.0,0.0,0.0,0.0,0.0,0.0,0.0,0.0,0.0,0.0,0.0,0.0,0.0,0.0,0.0,0.0,0.0,0.0,0.0,0.0,0.0,0.0,0.0,2.6073,2.6234,0.0,0.0,0.0,0.0,0.0,0.0,0.0,0.0,0.0,0.0,0.0,0.0,0.0,0.0,3.3767,3.3994,3.4602,3.5615,3.9274,4.0408,3.9349,4.2109,4.2435,4.0777,4.0083,0.0,3.2505,3.1258,0.0,0.0,0.0,0.0,0.0,0.0,0.0,0.0,0.0,0.0,0.0,0.0,0.0,0.0,0.0,0.0,0.0,0.0,0.0,0.0,0.0,0.0,0.0,0.0,0.0,0.0,0.0,0.0,0.0,0.0,0.0,0.0,0.0,0.0,0.0,0.0,0.0,0.0,0.0,0.0,0.0,0.0,0.0,0.0,0.0,0.0,0.0,0.0,0.0,0.0,0.0,0.0,0.0,0.0,0.0,0.0,0.0,0.0,0.0,0.0,0.0,0.0,0.0,0.0,0.0,0.0,0.0,0.0,0.0,0.0,0.0,0.0,0.0,0.0,0.0,0.0,0.0,0.0,0.0,0.0,0.0,0.0,0.0,0.0,0.0,2.7431,2.8704,2.8587,2.9048,2.9164,0.0,0.0,0.0,0.0,0.0,0.0,0.0,0.0,0.0,3.2067,3.3581,3.4486,3.4733,3.9293,4.0928,3.957,4.0907,4.2187,4.3348,4.4794,4.5001,4.4202,4.323,4.148,3.9081,3.6133,3.4547,3.3799,0.0,0.0,0.0,0.0,0.0,0.0,0.0,0.0,0.0,0.0,0.0,0.0,0.0,0.0,0.0,0.0,0.0,0.0,0.0,0.0,0.0,0.0,0.0,0.0,0.0,0.0,0.0,0.0,0.0,0.0,0.0,0.0,0.0,0.0,0.0,0.0,0.0,0.0,0.0,0.0,0.0,0.0,0.0,0.0,0.0,0.0,0.0,0.0,0.0,0.0,0.0,0.0,0.0,0.0,0.0,0.0,0.0,0.0,0.0,0.0,0.0,0.0,0.0,0.0,0.0,0.0,0.0,0.0,0.0,0.0,0.0,0.0,0.0,0.0,0.0,0.0,0.0,0.0,0.0,0.0,0.0,0.0,0.0,2.9184,3.0598,3.0196,3.1106,3.1417,0.0,0.0,0.0,0.0,0.0,0.0,3.4018,3.4846,3.542,3.5735,3.6591,3.7164,3.7443,4.3655,4.558,4.3212,4.3269,4.4449,4.6588,4.6843,4.6768,4.6323,4.5627,4.5017,4.424,4.0549,3.7997,3.6339,3.6109,3.5834,0.0,3.4677,3.5296,3.655,0.0,0.0,0.0,0.0,0.0,0.0,0.0,0.0,0.0,0.0,0.0,0.0,0.0,0.0,0.0,0.0,0.0,0.0,0.0,0.0,0.0,0.0,0.0,0.0,0.0,0.0,0.0,0.0,0.0,0.0,0.0,0.0,0.0,0.0,0.0,0.0,0.0,0.0,0.0,0.0,0.0,0.0,0.0,0.0,0.0,0.0,0.0,0.0,0.0,0.0,0.0,0.0,0.0,0.0,0.0,0.0,0.0,0.0,0.0,0.0,0.0,0.0,0.0,0.0,0.0,0.0,0.0,0.0,0.0,0.0,0.0,0.0,0.0,0.0,0.0,0.0,0.0,0.0,0.0,3.0369,3.1461,0.0,0.0,0.0,0.0,3.4601,3.6141,3.7351,3.806,3.8865,4.0026,4.1529,4.2412,4.3613,4.5134,4.5857,4.6354,4.6593,4.8122,4.8409,4.7559,4.8562,4.845,4.7447,4.7703,4.6919,4.5226,4.2669,4.1549,4.1344,4.0514,4.0663,4.1269,4.0429,4.0672,4.1325,0.0,0.0,0.0,0.0,0.0,0.0,0.0,0.0,0.0,0.0,0.0,0.0,0.0,0.0,0.0,0.0,0.0,0.0,0.0,0.0,0.0,0.0,0.0,0.0,0.0,0.0,0.0,0.0,0.0,0.0,0.0,0.0,0.0,0.0,0.0,0.0,0.0,0.0,0.0,0.0,0.0,0.0,0.0,0.0,0.0,0.0,0.0,0.0,0.0,0.0,0.0,0.0,0.0,0.0,0.0,0.0,0.0,0.0,0.0,0.0,0.0,0.0,0.0,0.0,0.0,0.0,0.0,0.0,0.0,0.0,0.0,0.0,0.0,0.0,0.0,0.0,0.0,0.0,0.0,3.4981,3.6859,0.0,0.0,3.7234,3.7934,3.8697,3.9255,3.9787,4.0176,4.1342,4.2814,4.4655,4.4918,4.5659,4.6911,4.7691,4.8147,4.8277,4.8888,4.8968,4.8656,4.8973,4.8922,4.8539,4.865,4.8319,4.7601,4.6727,4.5171,4.3378,4.358,4.3524,4.3303,4.3005,4.3434,4.4143,0.0,0.0,0.0,0.0,0.0,0.0,0.0,0.0,0.0,0.0,0.0,0.0,0.0,0.0,0.0,0.0,0.0,0.0,0.0,0.0,0.0,0.0,0.0,0.0,0.0,0.0,0.0,0.0,0.0,0.0,0.0,0.0,0.0,0.0,0.0,0.0,0.0,0.0,0.0,0.0,0.0,0.0,2.8852,0.0,0.0,0.0,0.0,0.0,0.0,0.0,0.0,0.0,0.0,0.0,0.0,0.0,0.0,0.0,0.0,0.0,0.0,0.0,0.0,0.0,0.0,0.0,0.0,0.0,0.0,0.0,0.0,0.0,0.0,0.0,0.0,0.0,0.0,0.0,3.7329,3.8303,4.0532,4.1586,4.0608,4.0998,4.1538,4.207,4.2607,4.3098,4.3521,4.4421,4.5762,4.7582,4.7609,4.8016,4.8931,4.9407,4.958,4.9519,4.9239,4.9094,4.9113,4.9042,4.9027,4.9049,4.9049,4.8962,4.8909,4.8909,4.7675,4.5823,4.6387,4.6257,4.5799,4.5799,4.6171,4.6624,0.0,0.0,0.0,0.0,0.0,0.0,0.0,0.0,0.0,0.0,0.0,0.0,0.0,0.0,0.0,0.0,0.0,0.0,0.0,0.0,0.0,0.0,0.0,0.0,0.0,0.0,0.0,0.0,0.0,0.0,0.0,0.0,0.0,0.0,0.0,0.0,0.0,0.0,0.0,0.0,0.0,0.0,3.2108,0.0,0.0,0.0,0.0,0.0,0.0,0.0,0.0,0.0,0.0,0.0,0.0,0.0,0.0,0.0,0.0,0.0,0.0,0.0,0.0,0.0,0.0,0.0,0.0,0.0,0.0,0.0,0.0,0.0,0.0,0.0,0.0,0.0,3.3233,3.7124,4.0077,4.0089,4.2065,4.3152,4.2359,4.3735,4.4684,4.4702,4.6186,4.7443,4.8251,4.8215,4.8902,5.0525,5.0619,5.0927,5.1607,5.0908,5.0501,5.0294,4.9493,4.9015,4.8909,4.8909,4.8909,4.8909,4.8909,4.8909,4.8909,4.8909,4.8909,4.8909,4.8909,4.8909,4.8909,4.8909,4.8909,4.8909,0.0,0.0,0.0,0.0,0.0,0.0,0.0,0.0,0.0,0.0,0.0,0.0,0.0,0.0,0.0,0.0,0.0,0.0,0.0,0.0,0.0,0.0,0.0,0.0,0.0,0.0,0.0,0.0,0.0,0.0,0.0,0.0,0.0,0.0,0.0,0.0,0.0,0.0,0.0,0.0,0.0,0.0,3.3827,0.0,0.0,0.0,0.0,0.0,0.0,0.0,0.0,0.0,0.0,0.0,0.0,0.0,0.0,0.0,0.0,0.0,0.0,0.0,0.0,0.0,0.0,0.0,0.0,0.0,0.0,0.0,0.0,0.0,0.0,0.0,0.0,3.769,3.7494,3.989,4.2341,4.4113,4.5827,4.6749,4.6534,4.7481,4.8363,4.8945,4.8877,4.9209,5.0099,5.0123,5.0665,5.1825,5.146,5.1316,5.154,5.0685,5.0205,5.0152,4.9334,4.8962,4.8909,4.8909,4.8909,4.8909,4.8909,4.8909,4.8909,4.8909,4.8909,4.8909,4.8909,4.8909,4.8909,4.8909,4.8909,4.8909,0.0,0.0,0.0,0.0,0.0,0.0,0.0,0.0,0.0,0.0,0.0,0.0,0.0,0.0,0.0,0.0,0.0,0.0,0.0,0.0,0.0,0.0,0.0,0.0,0.0,0.0,0.0,0.0,0.0,0.0,0.0,0.0,0.0,0.0,0.0,0.0,0.0,0.0,0.0,0.0,0.0,0.0,3.7624,3.4672,3.3806,3.3828,3.1555,3.1362,3.1874,2.9813,0.0,0.0,0.0,0.0,0.0,0.0,0.0,0.0,0.0,0.0,0.0,0.0,0.0,0.0,0.0,0.0,0.0,0.0,0.0,0.0,0.0,0.0,0.0,0.0,3.9807,4.2086,4.3446,4.4349,4.5632,4.7711,4.9017,4.9753,4.9753,5.0191,5.059,5.0871,5.0563,5.0754,5.1582,5.1327,5.174,5.3028,5.2378,5.2306,5.2958,5.1786,5.1174,5.1138,5.0339,4.9763,4.941,4.941,4.9224,0.0,4.8909,4.8909,4.8909,4.8909,4.8909,0.0,0.0,0.0,0.0,0.0,4.8909,4.8909,0.0,0.0,0.0,0.0,0.0,0.0,0.0,0.0,0.0,0.0,0.0,0.0,0.0,0.0,0.0,0.0,0.0,0.0,0.0,0.0,0.0,0.0,0.0,0.0,0.0,0.0,0.0,0.0,0.0,0.0,0.0,0.0,0.0,0.0,0.0,0.0,0.0,0.0,0.0,0.0,0.0,0.0,4.2308,3.8936,3.8046,3.8222,3.5068,3.4001,3.3832,3.2185,0.0,0.0,0.0,0.0,0.0,0.0,0.0,0.0,0.0,0.0,0.0,0.0,0.0,0.0,0.0,0.0,0.0,0.0,0.0,0.0,0.0,0.0,0.0,0.0,4.4134,4.6759,4.9827,4.957,4.9529,5.0704,5.1461,5.1912,5.1879,5.1832,5.1653,5.1338,5.1644,5.2111,5.2741,0.0,0.0,0.0,0.0,5.3516,5.5001,5.3442,5.2642,5.2587,5.1732,5.0952,5.0246,5.019,4.9763,4.9039,4.9039,4.8983,4.8909,4.8909,4.8909,4.8909,4.8909,4.8909,4.8909,4.8909,4.8909,0.0,0.0,0.0,0.0,0.0,0.0,0.0,0.0,0.0,0.0,0.0,0.0,0.0,0.0,0.0,0.0,0.0,0.0,0.0,0.0,0.0,0.0,0.0,0.0,0.0,0.0,0.0,0.0,0.0,0.0,0.0,0.0,0.0,0.0,0.0,0.0,0.0,0.0,0.0,0.0,0.0,0.0,0.0,4.4739,4.2002,4.1049,4.0843,3.8203,3.7654,3.781,3.5631,3.4821,3.4356,3.2278,0.0,0.0,0.0,0.0,0.0,0.0,0.0,0.0,0.0,0.0,0.0,0.0,0.0,0.0,0.0,0.0,0.0,0.0,0.0,0.0,4.4517,4.7415,5.013,5.2749,5.3172,5.2846,5.1799,5.1818,5.1879,5.1832,5.1817,5.2027,5.2503,5.3176,5.3607,5.3702,5.4317,0.0,5.4817,5.4018,5.4017,5.5001,5.3404,5.2587,5.2587,0.0,0.0,5.1138,5.0712,5.0285,4.9875,4.9875,4.9503,4.8909,4.8909,4.8909,4.8909,4.8909,4.8909,4.8909,4.8909,4.8909,4.8909,0.0,0.0,0.0,0.0,0.0,0.0,0.0,0.0,0.0,0.0,0.0,0.0,0.0,0.0,0.0,0.0,0.0,0.0,0.0,0.0,0.0,0.0,0.0,0.0,0.0,0.0,0.0,0.0,0.0,0.0,0.0,0.0,0.0,0.0,0.0,0.0,0.0,0.0,0.0,0.0,0.0,0.0,4.7754,4.4851,4.3708,4.3359,4.1306,4.0802,4.0821,3.8812,3.7897,3.7263,3.5233,3.3517,3.1958,0.0,0.0,0.0,0.0,0.0,0.0,0.0,0.0,0.0,0.0,0.0,0.0,0.0,0.0,3.6966,0.0,0.0,4.508,4.8546,5.075,5.2686,5.4484,5.5268,5.5179,5.3902,5.4093,5.4287,5.4271,5.4146,5.3925,5.3516,5.4522,5.5509,5.6311,5.6029,5.5951,5.6246,5.5466,5.5243,5.5652,5.4426,5.3608,5.32,5.2512,5.2122,5.1992,5.1714,5.1046,5.0098,5.0135,4.967,4.8909,4.8909,4.8909,4.8909,4.8909,4.8909,4.8909,4.8909,4.8909,4.8909,0.0,0.0,0.0,0.0,0.0,0.0,0.0,0.0,0.0,0.0,0.0,0.0,0.0,0.0,0.0,0.0,0.0,0.0,0.0,0.0,0.0,0.0,0.0,0.0,0.0,0.0,0.0,0.0,0.0,0.0,0.0,0.0,0.0,0.0,0.0,0.0,0.0,0.0,0.0,0.0,0.0,0.0,5.0079,4.7492,4.6234,4.5624,4.38,4.2994,4.2585,4.1213,4.0122,3.9156,3.7984,3.6676,3.5052,3.2616,3.2496,0.0,0.0,0.0,0.0,0.0,0.0,0.0,0.0,0.0,3.6098,3.7351,3.9354,4.1735,4.4435,4.6581,4.8952,5.2102,5.3582,5.4686,5.5781,5.6603,5.6833,5.6138,5.6423,5.6705,5.6668,5.648,5.586,5.4628,5.576,5.7011,5.8154,5.7162,5.684,5.749,5.6729,5.6376,5.6525,5.5522,5.4686,5.4035,5.3868,5.346,5.2828,5.2828,5.2011,5.058,5.0302,4.9782,4.9132,4.8964,4.8909,4.8909,4.8909,4.8909,4.8909,4.8909,4.8909,4.8909,0.0,0.0,0.0,0.0,0.0,0.0,0.0,0.0,0.0,0.0,0.0,0.0,0.0,0.0,0.0,0.0,0.0,0.0,0.0,0.0,0.0,0.0,0.0,0.0,0.0,0.0,0.0,0.0,0.0,0.0,0.0,0.0,0.0,0.0,0.0,0.0,0.0,0.0,0.0,0.0,0.0,0.0,5.0256,4.9902,4.8841,4.7239,4.4892,4.3183,4.1986,4.1689,4.067,3.9627,4.0053,3.9567,3.8295,3.5344,0.0,3.4416,3.2921,3.443,3.6671,3.775,3.7742,3.8517,0.0,0.0,4.154,4.3912,4.5203,4.6223,4.7376,4.9424,5.1525,5.3417,5.4867,5.6076,5.698,5.7482,5.7754,5.7641,5.708,5.6631,5.6442,5.6403,5.6309,5.6079,5.6878,5.7119,5.662,5.7082,5.7416,5.7509,5.6729,5.6636,5.736,5.58,5.4964,5.4871,5.4147,5.3757,5.3683,5.3683,5.3181,5.2234,5.0748,5.006,4.9912,4.9187,4.8909,4.8909,4.8909,4.8909,4.8909,4.8909,4.8909,4.8909,0.0,0.0,0.0,0.0,0.0,0.0,0.0,0.0,0.0,0.0,0.0,0.0,0.0,0.0,0.0,0.0,0.0,0.0,0.0,0.0,0.0,0.0,0.0,0.0,0.0,0.0,0.0,0.0,0.0,0.0,0.0,0.0,0.0,0.0,0.0,0.0,0.0,0.0,0.0,0.0,0.0,0.0,5.0856,4.987,4.8494,4.6801,4.4934,4.324,0.0,0.0,4.0409,4.024,4.0169,3.95,3.8258,3.5798,3.5146,0.0,3.6528,3.781,0.0,0.0,4.1552,4.3155,4.4775,4.5123,4.5722,4.7933,4.949,5.0776,5.197,5.3502,5.4872,0.0,5.6763,5.7516,5.7645,5.7808,5.7735,5.7117,5.6724,5.6872,5.7763,5.7757,5.7736,5.7695,5.8011,5.8048,5.7713,5.8029,5.8215,5.8215,5.7881,5.7639,5.7509,5.6339,5.5763,5.5744,5.4426,5.4054,5.4481,5.4017,5.3367,5.2512,5.0841,5.0098,5.0042,4.9243,4.8909,4.8909,4.8909,4.8909,4.8909,4.8909,4.8909,4.8909,0.0,0.0,0.0,0.0,0.0,0.0,0.0,0.0,0.0,0.0,0.0,0.0,0.0,0.0,0.0,0.0,0.0,0.0,0.0,0.0,0.0,0.0,0.0,0.0,0.0,0.0,0.0,0.0,0.0,0.0,0.0,0.0,0.0,0.0,0.0,0.0,0.0,0.0,0.0,0.0,0.0,0.0,5.0915,4.9447,4.7642,4.568,4.4173,4.2612,0.0,0.0,3.9437,3.9505,3.9472,3.8823,3.7683,3.577,3.5316,3.5939,3.8092,0.0,0.0,4.2259,4.4758,4.7014,4.7264,4.81,4.9436,5.1591,5.302,5.4298,5.5651,5.6493,5.7129,5.759,5.811,5.8344,5.7997,5.7922,5.7528,5.6496,5.616,5.6681,5.8356,5.8423,5.8475,5.8679,5.8716,5.8716,5.8716,5.8716,5.8716,5.8716,5.8716,5.8419,5.7843,5.7026,5.6525,5.6283,5.4834,5.4333,5.4648,5.4073,5.3478,5.2847,5.1416,5.0673,5.0395,4.9596,4.9132,4.8909,4.8909,4.8909,4.8909,4.8909,4.8909,4.8909,0.0,0.0,0.0,0.0,0.0,0.0,0.0,0.0,0.0,0.0,0.0,0.0,0.0,0.0,0.0,0.0,0.0,0.0,0.0,0.0,0.0,0.0,0.0,0.0,0.0,0.0,0.0,0.0,0.0,0.0,0.0,0.0,0.0,0.0,0.0,0.0,0.0,0.0,0.0,0.0,0.0,0.0,5.0135,4.9243,4.7015,4.4157,4.2548,0.0,0.0,0.0,3.7699,3.6781,3.8192,3.8077,0.0,3.5643,3.5418,0.0,0.0,0.0,4.3511,4.4689,4.6915,4.9387,5.1592,5.2115,5.2854,5.5318,5.5887,5.628,5.7412,5.7434,5.7567,5.8407,5.8476,5.8295,5.8034,5.7789,5.7316,5.6496,5.5618,5.5707,0.0,5.7546,5.7862,5.8642,5.8716,5.8716,5.8716,5.8716,5.8716,5.8716,5.8716,5.8698,5.8661,5.7881,5.7082,5.6302,5.5391,5.4574,5.385,5.3813,5.3794,5.372,5.2884,5.2085,5.1305,5.0488,4.9652,4.8909,4.8909,4.8909,4.8909,4.8909,4.8909,4.8909,0.0,0.0,0.0,0.0,0.0,0.0,0.0,0.0,0.0,0.0,0.0,0.0,0.0,0.0,0.0,0.0,0.0,0.0,0.0,0.0,0.0,0.0,0.0,0.0,0.0,0.0,0.0,0.0,0.0,0.0,0.0,0.0,0.0,0.0,0.0,0.0,0.0,0.0,0.0,0.0,0.0,0.0,4.9947,4.7615,4.5036,4.2471,0.0,0.0,0.0,0.0,3.6476,3.652,3.726,0.0,0.0,3.5785,3.6685,3.8368,4.023,0.0,4.6256,4.7783,5.0392,5.2802,5.3735,5.4806,5.5849,5.6671,5.6245,5.5747,5.5834,5.5534,5.5656,5.6706,5.7251,5.7586,5.7734,5.7654,5.6867,5.4892,5.4853,0.0,0.0,0.0,0.0,5.8568,5.8215,5.8141,5.8679,5.8716,5.8716,5.8716,5.8716,5.8716,5.8716,5.7899,5.7639,5.7881,5.6525,5.5111,5.3734,5.3774,5.3793,5.3678,5.292,5.2457,5.2085,5.0657,4.9896,4.9652,4.9061,4.8839,4.8909,4.8909,4.8909,4.8909,0.0,0.0,0.0,0.0,0.0,0.0,0.0,0.0,0.0,0.0,0.0,0.0,0.0,0.0,0.0,0.0,0.0,0.0,0.0,0.0,0.0,0.0,0.0,0.0,0.0,0.0,0.0,0.0,0.0,0.0,0.0,0.0,0.0,0.0,0.0,0.0,0.0,0.0,0.0,0.0,0.0,0.0,4.7985,4.5368,4.31,0.0,0.0,0.0,0.0,0.0,0.0,3.5734,3.6267,3.6517,3.6647,3.6945,3.8691,4.1143,4.3847,4.6882,4.9626,5.1168,5.3478,5.5546,5.6015,5.6665,5.7092,5.6757,5.5931,5.504,5.4272,5.3894,5.3943,5.4732,5.5129,5.5588,5.6295,5.6088,5.5602,5.4779,5.463,0.0,0.0,0.0,0.0,5.7676,5.7899,5.8029,5.8271,5.8549,5.8716,5.8716,5.8716,5.8716,5.8716,5.8196,5.7899,5.7825,5.619,5.4793,5.3714,5.3754,5.3716,5.3676,5.3159,5.279,5.2512,5.0991,5.0305,5.006,4.9137,4.8857,4.8909,4.8909,4.8909,4.8909,0.0,0.0,0.0,0.0,0.0,0.0,0.0,0.0,0.0,0.0,0.0,0.0,0.0,0.0,0.0,0.0,0.0,0.0,0.0,0.0,0.0,0.0,0.0,0.0,0.0,0.0,0.0,0.0,0.0,0.0,0.0,0.0,0.0,0.0,0.0,0.0,0.0,0.0,0.0,0.0,0.0,0.0,4.4473,4.271,0.0,0.0,0.0,0.0,0.0,0.0,0.0,0.0,0.0,3.6408,3.7417,3.9174,4.147,4.411,4.7016,5.0371,5.3349,5.4591,5.614,5.7529,5.8262,5.7616,5.6603,5.5701,5.495,5.4041,0.0,0.0,5.2513,5.2719,5.2574,5.2855,5.4177,5.3643,5.3907,0.0,0.0,0.0,0.0,0.0,0.0,5.619,0.0,5.8215,5.7546,5.8196,5.8586,5.8586,5.8624,5.8642,5.8642,5.8642,5.7862,5.6283,5.4648,5.381,5.3769,5.3732,5.3714,5.3656,5.3558,5.3174,5.2568,5.1526,5.0768,5.0136,4.9174,4.8839,4.8909,4.8909,4.8909,4.889,0.0,0.0,0.0,0.0,0.0,0.0,0.0,0.0,0.0,0.0,0.0,0.0,0.0,0.0,0.0,0.0,0.0,0.0,0.0,0.0,0.0,0.0,0.0,0.0,0.0,0.0,0.0,0.0,0.0,0.0,0.0,0.0,0.0,0.0,0.0,0.0,0.0,0.0,0.0,0.0,0.0,0.0,4.2612,0.0,0.0,0.0,0.0,0.0,0.0,0.0,0.0,0.0,0.0,3.9738,4.1245,4.2921,4.5076,4.7517,5.0213,5.2413,5.4339,5.5969,5.7052,5.7707,5.7629,5.6998,5.6063,5.4638,5.2494,5.0507,0.0,0.0,0.0,5.1991,5.3841,0.0,5.6536,5.6976,0.0,5.6376,0.0,5.6487,5.632,5.6469,0.0,0.0,5.6079,5.6413,5.7453,5.7138,5.6915,5.6915,5.749,5.7806,5.7806,5.7806,5.7305,5.6302,5.5224,5.4645,5.4584,5.3973,5.3656,5.3539,5.3499,5.341,5.3154,5.1614,5.0912,5.0712,4.9251,4.8678,4.8678,4.8768,4.8768,4.8678,0.0,0.0,0.0,0.0,0.0,0.0,0.0,0.0,0.0,0.0,0.0,0.0,0.0,0.0,0.0,0.0,0.0,0.0,0.0,0.0,0.0,0.0,0.0,0.0,0.0,0.0,0.0,0.0,0.0,0.0,0.0,0.0,0.0,0.0,0.0,0.0,0.0,0.0,0.0,0.0,0.0,0.0,0.0,0.0,0.0,0.0,0.0,0.0,0.0,0.0,0.0,4.0634,4.1627,4.3095,4.4857,4.6929,0.0,5.0543,5.3,5.4937,5.6398,5.7115,5.7696,5.782,5.6819,5.575,5.4344,5.2126,5.0176,0.0,0.0,0.0,0.0,0.0,0.0,0.0,5.5752,5.6364,5.6827,0.0,5.7453,0.0,5.6878,5.7249,5.7175,0.0,5.6172,5.6357,5.6952,5.6543,5.6302,5.6302,5.6747,5.697,5.697,5.6599,5.619,5.5726,5.489,5.4422,5.4263,5.382,5.3558,5.34,0.0,5.3418,5.3388,5.1977,5.1501,5.1563,5.025,4.9787,4.9842,4.9861,4.9806,4.9714,0.0,0.0,0.0,0.0,0.0,0.0,0.0,0.0,0.0,0.0,0.0,0.0,0.0,0.0,0.0,0.0,0.0,0.0,0.0,0.0,0.0,0.0,0.0,0.0,0.0,0.0,0.0,0.0,0.0,0.0,0.0,0.0,0.0,0.0,0.0,0.0,0.0,0.0,0.0,0.0,0.0,0.0,0.0,0.0,0.0,0.0,0.0,0.0,0.0,0.0,4.221,4.309,4.4802,4.6445,4.824,5.0667,5.1981,5.3142,5.5348,5.7243,5.8457,5.8053,5.7921,5.7473,5.581,5.4012,5.1905,4.9153,0.0,4.6972,4.4795,4.6107,4.7423,4.7045,0.0,5.1742,5.4184,5.4539,5.5585,5.8345,5.8085,5.7658,5.7658,5.7565,5.7249,5.6655,5.697,5.6859,5.6172,5.6023,5.6023,5.6116,5.6134,5.6134,5.6134,5.5391,5.5001,5.5001,5.4164,5.3753,5.3687,5.3536,5.34,5.3318,0.0,0.0,5.3385,5.2475,5.2164,5.2286,5.1472,5.1213,5.1324,5.1194,5.1138,5.1138,0.0,0.0,0.0,0.0,0.0,0.0,0.0,0.0,0.0,0.0,0.0,0.0,0.0,0.0,0.0,0.0,0.0,0.0,0.0,0.0,0.0,0.0,0.0,0.0,0.0,0.0,0.0,0.0,0.0,0.0,0.0,0.0,0.0,0.0,0.0,0.0,0.0,0.0,0.0,0.0,0.0,0.0,0.0,0.0,0.0,0.0,0.0,0.0,0.0,0.0,4.4386,4.5799,4.7985,4.9577,5.1001,5.2789,5.3888,5.4913,5.6741,5.7528,5.7959,5.8611,5.7247,5.5432,5.4311,5.164,0.0,0.0,0.0,4.6027,4.5602,4.7001,4.8756,5.0342,0.0,0.0,0.0,0.0,5.766,0.0,0.0,0.0,0.0,0.0,0.0,0.0,0.0,0.0,5.5243,5.4593,5.4537,5.5206,5.5243,5.5243,5.5243,5.5094,5.5001,5.5001,5.4144,5.4047,5.4637,5.3754,5.3318,5.3318,0.0,0.0,5.3244,5.239,5.2081,5.2091,5.1259,5.0984,5.0984,5.0945,5.0945,5.0945,0.0,0.0,0.0,0.0,0.0,0.0,0.0,0.0,0.0,0.0,2.0506,2.0491,0.0,0.0,0.0,0.0,0.0,0.0,0.0,0.0,0.0,0.0,0.0,0.0,0.0,0.0,0.0,0.0,0.0,0.0,0.0,0.0,0.0,0.0,0.0,0.0,0.0,0.0,0.0,0.0,0.0,0.0,0.0,0.0,0.0,0.0,0.0,0.0,0.0,0.0,4.4648,4.7397,5.0447,5.2104,5.3213,5.4893,5.5786,5.6566,5.8274,5.8883,5.9027,5.9103,5.7124,5.4799,5.3252,0.0,0.0,0.0,4.6085,4.567,4.5258,0.0,0.0,0.0,0.0,0.0,0.0,0.0,0.0,0.0,0.0,0.0,0.0,0.0,0.0,0.0,0.0,0.0,5.5652,5.4481,5.398,5.437,5.4388,5.4388,5.4388,5.4388,5.4388,5.437,5.396,5.388,5.4152,5.3625,5.3336,5.3272,0.0,0.0,5.3235,5.2831,5.2706,5.2674,5.2364,5.2296,5.2354,5.2217,5.2198,5.2238,0.0,0.0,0.0,0.0,0.0,0.0,0.0,2.0497,2.0493,2.0502,2.0506,2.0506,2.0506,2.0502,0.0,0.0,0.0,0.0,0.0,0.0,0.0,0.0,0.0,0.0,0.0,0.0,0.0,0.0,0.0,0.0,0.0,0.0,0.0,0.0,0.0,0.0,0.0,0.0,0.0,0.0,0.0,0.0,0.0,0.0,0.0,0.0,0.0,0.0,0.0,0.0,4.379,4.6953,5.0809,5.2899,5.4115,5.5465,5.6352,5.7289,5.894,5.9735,5.9874,5.9135,5.6753,5.4089,5.2208,4.9262,0.0,0.0,4.5409,4.5346,4.4722,0.0,0.0,0.0,0.0,0.0,0.0,0.0,0.0,0.0,0.0,0.0,0.0,0.0,0.0,0.0,0.0,0.0,0.0,5.4518,5.3813,5.3813,5.3813,5.3813,5.3813,5.3813,5.3813,5.3813,5.3774,5.3697,5.3499,5.3481,5.3378,5.3206,0.0,0.0,0.0,5.3254,5.3277,5.33,5.34,5.3539,5.3616,5.34,5.34,5.3459,0.0,0.0,0.0,0.0,0.0,0.0,0.0,2.0507,2.0507,2.0507,2.0502,2.0506,2.0506,2.05,0.0,0.0,0.0,0.0,0.0,0.0,0.0,0.0,0.0,0.0,0.0,0.0,0.0,0.0,0.0,0.0,0.0,0.0,0.0,0.0,0.0,0.0,0.0,0.0,0.0,0.0,0.0,0.0,0.0,0.0,0.0,0.0,0.0,0.0,0.0,0.0,0.0,4.2698,4.6967,5.0215,5.2523,5.2674,0.0,0.0,5.773,5.8743,5.9101,5.8333,5.5314,5.217,5.0727,0.0,0.0,4.3588,4.4109,4.4684,4.462,0.0,0.0,0.0,0.0,4.9602,0.0,0.0,0.0,0.0,0.0,0.0,0.0,0.0,0.0,0.0,0.0,0.0,0.0,5.3887,5.3813,5.3813,5.3813,5.3813,5.3813,5.3813,5.3813,5.3813,5.3734,5.3656,5.3499,5.3359,5.3295,5.3206,0.0,0.0,0.0,5.323,5.3272,5.33,5.33,5.34,5.3499,5.3499,5.3499,5.3499,0.0,0.0,0.0,0.0,0.0,0.0,0.0,2.0507,2.0507,2.0507,2.0502,2.0506,2.0497,2.0506,2.0636,0.0,0.0,0.0,0.0,0.0,0.0,0.0,0.0,0.0,0.0,0.0,0.0,0.0,0.0,0.0,0.0,0.0,0.0,0.0,0.0,0.0,0.0,0.0,0.0,0.0,0.0,0.0,0.0,0.0,0.0,0.0,0.0,0.0,0.0,0.0,0.0,0.0,4.3173,4.5433,0.0,0.0,5.3703,5.5484,5.8186,5.9522,5.9902,5.8855,5.5301,5.1748,5.052,0.0,4.3497,4.3303,4.3968,4.4601,4.4601,0.0,0.0,0.0,0.0,0.0,0.0,0.0,0.0,0.0,0.0,0.0,0.0,0.0,0.0,0.0,0.0,0.0,0.0,5.3813,5.3813,5.3813,5.3813,5.3813,5.3813,5.3813,5.3813,5.3813,5.3774,5.3676,5.3499,5.344,5.3336,5.3206,0.0,0.0,0.0,5.3277,5.3295,5.33,5.33,5.34,5.3499,5.34,5.3499,5.3598,0.0,0.0,0.0,0.0,0.0,0.0,2.0464,2.0464,2.0464,2.0464,2.0497,2.0502,2.0507,2.0497,2.0487,2.0472,0.0,0.0,0.0,0.0,0.0,0.0,0.0,0.0,0.0,0.0,0.0,0.0,0.0,0.0,0.0,0.0,0.0,0.0,0.0,0.0,0.0,0.0,0.0,0.0,0.0,0.0,0.0,0.0,0.0,0.0,0.0,0.0,0.0,0.0,0.0,0.0,0.0,0.0,0.0,0.0,5.1736,5.393,5.7017,5.8861,5.9613,5.8551,5.489,5.1221,0.0,4.6123,4.2869,4.2905,4.3401,4.3904,4.4175,4.4891,0.0,0.0,0.0,4.5342,4.7232,0.0,0.0,0.0,0.0,0.0,0.0,0.0,0.0,0.0,0.0,0.0,0.0,0.0,5.3813,5.3813,5.3813,5.3813,5.3813,5.3813,5.3813,5.3813,5.3813,5.3736,5.3558,5.3539,5.3418,0.0,0.0,0.0,0.0,5.3318,5.33,5.3359,5.3359,5.344,5.3558,5.3459,5.3558,5.3656,0.0,0.0,0.0,0.0,0.0,0.0,0.0,2.04,2.04,2.04,2.0458,2.0502,2.0507,2.0507,2.0464,2.042,0.0,0.0,0.0,0.0,0.0,0.0,0.0,0.0,0.0,0.0,0.0,0.0,0.0,0.0,0.0,0.0,0.0,0.0,0.0,0.0,0.0,0.0,0.0,0.0,0.0,0.0,3.1484,0.0,0.0,0.0,0.0,0.0,0.0,0.0,0.0,0.0,0.0,0.0,0.0,0.0,4.7318,5.0887,5.3388,5.5842,5.7535,5.6714,5.3609,5.0277,0.0,4.5001,4.2008,4.1996,4.2028,4.2299,4.315,4.404,4.4829,4.5494,0.0,0.0,0.0,0.0,0.0,0.0,0.0,0.0,0.0,0.0,0.0,0.0,0.0,0.0,0.0,0.0,5.3813,5.3813,5.3813,5.3813,5.3813,5.3813,5.3813,5.3813,5.3813,5.3754,5.3695,5.3558,0.0,0.0,0.0,0.0,0.0,5.3341,5.34,5.3499,5.3499,5.3598,5.3714,5.3714,5.3714,5.3714,0.0,0.0,0.0,0.0,0.0,0.0,0.0,2.042,2.04,2.04,2.0425,2.0425,2.042,2.042,2.042,2.04,0.0,0.0,0.0,0.0,0.0,0.0,0.0,0.0,0.0,0.0,0.0,0.0,0.0,0.0,0.0,0.0,0.0,0.0,0.0,0.0,0.0,0.0,0.0,0.0,0.0,3.0157,3.0745,0.0,0.0,0.0,0.0,0.0,0.0,0.0,0.0,0.0,0.0,0.0,0.0,4.1731,4.4851,4.8604,5.1125,5.322,5.4374,5.2951,5.0375,4.7728,4.6044,4.3313,4.1119,4.1177,4.1622,4.2086,4.2357,4.3614,4.4617,4.4707,4.5216,0.0,0.0,0.0,0.0,0.0,0.0,0.0,0.0,0.0,0.0,0.0,0.0,0.0,0.0,0.0,5.3813,5.3813,5.3813,5.3813,5.3813,5.3813,5.3813,5.3813,5.3813,5.3736,5.3558,5.3539,0.0,0.0,0.0,0.0,0.0,5.344,5.3499,5.3656,5.3656,5.3656,5.3714,5.3714,5.3734,5.3754,0.0,0.0,0.0,0.0,0.0,0.0,0.0,2.0434,2.041,2.041,2.041,2.041,2.041,2.0404,2.0399,2.0399,0.0,0.0,0.0,0.0,0.0,0.0,0.0,0.0,0.0,0.0,0.0,0.0,0.0,0.0,0.0,0.0,0.0,0.0,0.0,0.0,0.0,0.0,0.0,0.0,2.9653,2.9557,2.9411,0.0,0.0,0.0,0.0,0.0,0.0,0.0,0.0,0.0,0.0,0.0,0.0,0.0,4.2568,4.5673,0.0,5.0119,5.1141,5.0081,4.7918,0.0,4.4337,4.2304,4.0746,4.0759,4.1165,4.1706,4.2344,4.3322,4.4206,4.471,4.5218,0.0,0.0,0.0,0.0,0.0,0.0,0.0,0.0,0.0,0.0,0.0,0.0,0.0,0.0,0.0,5.3813,5.3813,5.3813,5.3813,5.3813,5.3813,5.3813,5.3813,5.3813,5.3736,5.3558,0.0,0.0,0.0,0.0,0.0,0.0,5.3598,5.3637,5.3734,5.3695,5.3695,5.3716,5.3695,5.3716,5.3813,0.0,0.0,0.0,0.0,0.0,0.0,0.0,0.0,0.0,0.0,2.0394,2.0394,2.0394,2.0396,2.041,0.0,0.0,0.0,0.0,0.0,0.0,0.0,0.0,0.0,0.0,0.0,0.0,0.0,2.5701,2.5693,2.5702,0.0,0.0,0.0,0.0,0.0,0.0,0.0,0.0,0.0,2.8701,2.8553,0.0,0.0,0.0,0.0,0.0,0.0,0.0,0.0,0.0,0.0,0.0,0.0,0.0,0.0,0.0,0.0,0.0,4.6584,0.0,0.0,0.0,0.0,4.3231,4.1867,0.0,4.0733,4.07,4.1183,4.2742,4.3076,4.3628,4.5189,4.547,0.0,0.0,0.0,0.0,0.0,0.0,0.0,0.0,0.0,0.0,0.0,0.0,0.0,0.0,0.0,0.0,5.3813,5.3813,5.3813,5.3813,5.3813,5.3813,5.3813,5.3813,5.3754,5.3656,0.0,0.0,0.0,0.0,0.0,0.0,5.3714,5.3716,5.3813,5.3734,5.3754,5.3813,5.3734,5.3754,5.3813,0.0,0.0,0.0,0.0,0.0,0.0,0.0,0.0,0.0,0.0,0.0,2.0396,2.0396,2.039,0.0,0.0,0.0,0.0,0.0,0.0,0.0,0.0,0.0,0.0,0.0,0.0,0.0,2.5628,2.5673,2.5698,2.5703,2.5703,0.0,0.0,0.0,0.0,0.0,0.0,0.0,0.0,2.9851,2.9819,0.0,0.0,0.0,0.0,3.2702,3.391,0.0,0.0,0.0,0.0,0.0,0.0,0.0,0.0,3.9772,4.0217,4.0817,0.0,4.4288,4.3626,4.3027,4.2383,0.0,4.1081,0.0,0.0,0.0,4.0894,4.1281,4.2367,4.3327,4.3772,4.4816,0.0,0.0,0.0,0.0,0.0,0.0,0.0,0.0,0.0,0.0,0.0,0.0,0.0,0.0,0.0,0.0,5.3813,5.3813,5.3813,5.3813,5.3813,5.3813,5.3813,5.3813,5.3697,5.3558,0.0,0.0,0.0,0.0,0.0,0.0,5.3656,5.3716,5.3813,5.3774,5.3774,5.3813,5.3774,5.3774,5.3813,0.0,0.0,0.0,0.0,0.0,0.0,0.0,0.0,0.0,0.0,0.0,0.0,0.0,0.0,0.0,0.0,0.0,0.0,0.0,0.0,0.0,0.0,0.0,0.0,0.0,0.0,0.0,0.0,0.0,2.5709,0.0,0.0,0.0,0.0,0.0,0.0,0.0,0.0,0.0,2.9793,3.012,0.0,0.0,0.0,0.0,0.0,3.1827,3.3195,0.0,3.5029,3.5581,3.6414,0.0,0.0,0.0,0.0,3.9444,3.9888,3.9108,4.0191,4.1545,4.1467,4.1448,4.1332,4.0887,0.0,0.0,0.0,0.0,4.0887,4.1268,4.2353,0.0,0.0,4.4773,0.0,0.0,0.0,0.0,0.0,0.0,0.0,0.0,0.0,0.0,0.0,0.0,0.0,0.0,0.0,0.0,0.0,5.3813,5.3813,5.3813,5.3813,5.3813,5.3813,5.3813,5.3678,5.3499,0.0,0.0,0.0,0.0,0.0,5.3499,5.3676,5.3793,5.3813,5.3813,5.3813,5.3813,5.3813,5.3813,5.3813,0.0,0.0,0.0,0.0,0.0,0.0,0.0,0.0,0.0,0.0,0.0,0.0,0.0,0.0,0.0,0.0,0.0,0.0,0.0,0.0,0.0,0.0,0.0,0.0,0.0,0.0,0.0,0.0,0.0,0.0,0.0,0.0,0.0,0.0,0.0,0.0,0.0,0.0,0.0,2.9257,2.9876,0.0,0.0,0.0,0.0,0.0,0.0,0.0,0.0,3.4174,3.4754,3.5558,3.6447,0.0,0.0,0.0,0.0,0.0,3.8748,3.903,3.9823,4.0442,4.0694,4.0752,4.0616,0.0,0.0,0.0,0.0,0.0,0.0,0.0,0.0,0.0,0.0,0.0,0.0,0.0,0.0,0.0,0.0,0.0,0.0,0.0,0.0,0.0,0.0,0.0,0.0,0.0,0.0,0.0,5.3813,5.3813,5.3813,5.3813,5.3813,5.3813,5.3774,5.3697,5.3539,5.3499,0.0,0.0,0.0,0.0,5.3539,5.3736,5.3813,5.3813,5.3813,5.3813,5.3813,5.3813,5.3813,5.3813,0.0,0.0,0.0,0.0,0.0,0.0,0.0,0.0,0.0,0.0,0.0,0.0,0.0,0.0,0.0,0.0,0.0,0.0,0.0,0.0,0.0,0.0,0.0,0.0,0.0,0.0,0.0,0.0,0.0,0.0,2.57,2.5702,2.5632,0.0,0.0,0.0,0.0,0.0,0.0,3.0148,2.9589,0.0,0.0,0.0,0.0,0.0,0.0,0.0,0.0,3.3296,3.3877,3.4737,3.5609,0.0,0.0,0.0,0.0,0.0,3.9166,3.9895,4.0385,3.9767,4.0172,4.052,0.0,0.0,0.0,0.0,0.0,0.0,0.0,0.0,0.0,0.0,0.0,0.0,0.0,0.0,0.0,0.0,0.0,0.0,0.0,0.0,0.0,0.0,0.0,0.0,0.0,0.0,0.0,0.0,0.0,5.3813,5.3813,5.3813,5.3813,5.3813,5.3716,5.3695,5.3656,5.344,5.3318,0.0,0.0,0.0,5.3539,5.3736,5.3813,5.3813,5.3813,5.3813,5.3813,5.3813,5.3813,5.3813,0.0,0.0,0.0,0.0,0.0,0.0,0.0,0.0,0.0,0.0,0.0,0.0,0.0,0.0,0.0,0.0,0.0,0.0,0.0,0.0,0.0,0.0,0.0,0.0,0.0,0.0,0.0,0.0,0.0,2.5671,2.5697,2.5699,2.5636,2.5544,0.0,0.0,0.0,0.0,0.0,2.966,0.0,0.0,0.0,0.0,0.0,0.0,0.0,0.0,0.0,0.0,3.3045,3.3857,3.4759,0.0,0.0,0.0,0.0,0.0,3.8102,3.905,3.9946,3.9509,4.037,4.1123,0.0,0.0,0.0,0.0,0.0,0.0,0.0,0.0,0.0,0.0,0.0,0.0,0.0,0.0,0.0,0.0,0.0,0.0,0.0,0.0,0.0,0.0,0.0,0.0,0.0,0.0,0.0,0.0,0.0,0.0,5.3813,5.3813,5.3813,5.3813,5.3793,5.3734,5.3695,5.3499,5.34,0.0,0.0,5.3539,5.3598,5.3736,5.3813,5.3813,5.3813,5.3813,5.3813,5.3813,5.3813,5.3813,0.0,0.0,0.0,0.0,0.0,0.0,0.0,0.0,0.0,0.0,0.0,0.0,0.0,0.0,0.0,0.0,0.0,0.0,0.0,0.0,0.0,0.0,0.0,0.0,0.0,0.0,0.0,2.42,2.5406,2.599,2.6008,2.5792,2.5613,0.0,0.0,0.0,0.0,0.0,0.0,2.9113,0.0,0.0,0.0,0.0,0.0,0.0,0.0,0.0,0.0,0.0,0.0,0.0,0.0,0.0,0.0,3.6613,3.7386,3.7823,3.734,3.8462,3.9719,3.9483,0.0,0.0,0.0,0.0,0.0,0.0,0.0,0.0,0.0,0.0,0.0,0.0,0.0,0.0,0.0,0.0,0.0,0.0,0.0,0.0,0.0,0.0,0.0,0.0,0.0,0.0,0.0,0.0,0.0,0.0,0.0,0.0,5.3813,5.3813,5.3813,5.3813,5.3774,5.3754,5.3714,5.3558,5.3499,5.3499,5.3539,5.3616,5.3714,5.3774,5.3813,5.3813,5.3813,5.3813,5.3813,5.3813,5.3813,5.3813,0.0,0.0,0.0,0.0,0.0,0.0,0.0,0.0,0.0,0.0,0.0,0.0,0.0,0.0,0.0,0.0,0.0,0.0,0.0,0.0,0.0,0.0,0.0,0.0,0.0,2.3639,2.4145,2.42,2.5957,2.6852,2.689,2.6083,2.5589,2.5453,0.0,0.0,0.0,0.0,0.0,0.0,2.9245,0.0,0.0,0.0,0.0,0.0,0.0,0.0,0.0,0.0,0.0,0.0,0.0,0.0,3.4893,3.6441,3.7003,3.7246,3.7923,3.934,4.0424,3.9673,0.0,0.0,0.0,0.0,0.0,0.0,0.0,0.0,0.0,0.0,0.0,0.0,0.0,0.0,0.0,0.0,0.0,0.0,0.0,0.0,0.0,0.0,0.0,0.0,0.0,0.0,0.0,0.0,0.0,0.0,0.0,0.0,5.3813,5.3813,5.3813,5.3813,5.3734,5.3695,5.3714,5.3558,5.3499,5.3499,5.3616,5.3714,5.3714,5.3774,5.3813,5.3813,5.3813,5.3813,5.3813,5.3813,5.3813,5.3813,0.0,0.0,0.0,0.0,0.0,0.0,0.0,0.0,0.0,0.0,0.0,0.0,0.0,0.0,0.0,0.0,0.0,0.0,0.0,0.0,0.0,0.0,0.0,2.2167,2.3589,2.3466,2.3654,2.4206,2.6013,2.6654,2.6208,2.6413,0.0,0.0,0.0,0.0,0.0,0.0,0.0,0.0,2.9052,2.9805,0.0,0.0,0.0,0.0,0.0,0.0,0.0,0.0,3.0865,3.1335,3.274,3.341,3.3954,3.5659,3.6172,3.625,3.6561,3.8283,4.0053,4.0258,0.0,0.0,0.0,0.0,0.0,0.0,0.0,0.0,0.0,0.0,0.0,0.0,0.0,0.0,0.0,0.0,0.0,0.0,0.0,0.0,0.0,0.0,0.0,0.0,0.0,0.0,0.0,0.0,0.0,0.0,0.0,0.0,0.0,5.3813,5.3813,5.3813,5.3774,5.3754,5.3754,5.3676,5.3637,5.3697,5.3695,5.3734,5.3754,5.3774,5.3813,5.3813,5.3813,5.3497,5.3107,5.3627,5.3813,5.3813,0.0,0.0,0.0,0.0,0.0,0.0,0.0,0.0,0.0,0.0,0.0,0.0,0.0,0.0,0.0,0.0,0.0,0.0,0.0,0.0,0.0,0.0,0.0,2.2601,2.407,2.3554,2.3724,2.4613,2.5866,2.6493,2.648,0.0,0.0,0.0,0.0,0.0,0.0,0.0,0.0,0.0,0.0,3.0037,0.0,0.0,0.0,0.0,0.0,0.0,0.0,0.0,3.1086,3.1344,3.3067,3.3585,3.3838,3.5282,3.5679,3.5658,3.5699,3.7385,3.9359,4.0181,0.0,0.0,0.0,0.0,0.0,0.0,0.0,0.0,0.0,0.0,0.0,0.0,0.0,0.0,0.0,0.0,0.0,0.0,0.0,0.0,0.0,0.0,0.0,0.0,0.0,0.0,0.0,0.0,0.0,0.0,0.0,0.0,0.0,5.3813,5.3813,5.3813,5.3813,5.3774,5.3697,5.3695,5.3676,5.3697,5.3695,5.3586,5.3423,5.3423,5.3423,5.3404,5.3144,5.3032,5.3014,5.3311,5.359,5.3813,0.0,0.0,0.0,0.0,0.0,0.0,0.0,0.0,0.0,0.0,0.0,0.0,0.0,0.0,0.0,0.0,0.0,0.0,0.0,0.0,0.0,0.0,0.0,2.3198,2.4072,2.4116,2.4587,2.5499,2.5574,2.6491,2.8139,0.0,0.0,0.0,0.0,0.0,0.0,0.0,0.0,0.0,0.0,3.053,3.0501,0.0,0.0,0.0,0.0,0.0,0.0,0.0,3.1987,3.2295,3.3949,3.4484,3.4659,3.5446,3.5649,3.5599,3.5669,3.6908,3.8404,3.9298,0.0,0.0,0.0,0.0,0.0,0.0,0.0,0.0,0.0,0.0,0.0,0.0,0.0,0.0,0.0,0.0,0.0,0.0,0.0,0.0,0.0,0.0,0.0,0.0,0.0,0.0,0.0,0.0,0.0,0.0,0.0,0.0,0.0,5.3813,5.3813,5.3813,5.3813,5.3697,5.3499,5.3637,5.3598,5.3481,5.3637,5.3252,5.2605,5.2605,5.2605,5.2512,5.1714,5.2382,5.3683,5.2884,5.3107,5.3794,0.0,0.0,0.0,0.0,0.0,0.0,0.0,0.0,0.0,0.0,0.0,0.0,0.0,0.0,0.0,0.0,0.0,0.0,0.0,0.0,0.0,0.0,0.0,0.0,0.0,0.0,2.5866,2.5564,2.6201,2.6496,0.0,0.0,0.0,2.5628,0.0,0.0,0.0,0.0,0.0,0.0,3.0247,3.0576,3.0567,0.0,0.0,0.0,0.0,0.0,0.0,0.0,0.0,0.0,3.2586,3.3516,3.4497,3.4775,3.5214,3.5599,3.5669,3.6927,0.0,3.999,0.0,0.0,0.0,0.0,0.0,0.0,0.0,0.0,0.0,0.0,0.0,0.0,0.0,0.0,0.0,0.0,0.0,0.0,0.0,0.0,0.0,0.0,0.0,0.0,0.0,0.0,0.0,0.0,0.0,0.0,0.0,0.0,0.0,0.0,5.3813,5.3813,5.3813,5.3774,5.3699,5.3161,5.2883,5.2845,5.2289,5.2271,5.2642,5.3218,5.2791,5.1788,5.2122,5.1844,5.1305,5.1639,5.2271,5.2865,0.0,0.0,0.0,0.0,0.0,0.0,0.0,0.0,0.0,0.0,0.0,0.0,0.0,0.0,0.0,0.0,0.0,0.0,0.0,0.0,0.0,0.0,0.0,0.0,0.0,2.5476,2.6236,0.0,0.0,0.0,0.0,0.0,0.0,2.6661,0.0,2.7161,0.0,0.0,0.0,2.9931,3.0408,3.0604,3.0595,0.0,0.0,0.0,0.0,0.0,0.0,0.0,0.0,0.0,3.3297,3.3951,3.4526,3.49,3.5059,3.5248,3.5968,3.7409,0.0,0.0,0.0,0.0,0.0,0.0,0.0,0.0,0.0,0.0,0.0,0.0,0.0,0.0,0.0,0.0,0.0,0.0,0.0,0.0,0.0,0.0,0.0,0.0,0.0,0.0,0.0,0.0,0.0,0.0,0.0,0.0,0.0,0.0,0.0,0.0,0.0,5.2847,5.2847,5.2847,5.2847,5.2623,5.2345,5.2011,5.1565,5.1472,5.1676,5.2512,5.2289,5.1416,5.1584,5.1435,5.1138,5.0952,5.1416,5.2048,0.0,0.0,0.0,0.0,0.0,0.0,0.0,0.0,0.0,0.0,0.0,0.0,0.0,0.0,0.0,0.0,0.0,0.0,0.0,0.0,0.0,0.0,0.0,0.0,0.0,0.0,0.0,0.0,0.0,0.0,0.0,0.0,2.6668,2.8372,0.0,2.7926,0.0,2.9411,2.9812,3.061,3.0613,3.0604,3.0595,3.0604,0.0,0.0,0.0,0.0,0.0,0.0,0.0,0.0,3.4872,3.4891,3.4523,3.5338,3.4972,3.4712,3.6535,0.0,0.0,0.0,0.0,0.0,0.0,0.0,0.0,0.0,0.0,0.0,0.0,0.0,0.0,0.0,0.0,0.0,0.0,0.0,0.0,0.0,0.0,0.0,0.0,0.0,0.0,0.0,0.0,0.0,0.0,0.0,0.0,0.0,0.0,0.0,0.0,0.0,0.0,0.0,5.1398,5.1361,5.1305,5.1899,5.175,5.1009,5.1213,5.0841,5.0172,5.1045,5.1361,5.1212,5.0488,5.1045,5.2085,5.0562,5.0543,5.1268,0.0,0.0,0.0,0.0,0.0,0.0,0.0,0.0,0.0,0.0,0.0,0.0,0.0,0.0,0.0,0.0,0.0,0.0,0.0,0.0,0.0,0.0,0.0,0.0,0.0,0.0,0.0,0.0,0.0,0.0,0.0,0.0,0.0,2.9201,0.0,2.88,0.0,3.0331,3.044,3.0676,3.0673,3.0649,3.0604,3.0593,3.0593,0.0,0.0,0.0,0.0,0.0,0.0,0.0,3.1875,3.2538,3.3451,3.3759,3.4089,3.4911,3.7345,3.8199,0.0,0.0,0.0,0.0,0.0,0.0,0.0,0.0,0.0,0.0,0.0,0.0,0.0,0.0,0.0,0.0,0.0,0.0,0.0,0.0,0.0,0.0,0.0,0.0,0.0,0.0,0.0,0.0,0.0,0.0,0.0,0.0,0.0,0.0,5.1398,5.1398,5.1398,0.0,5.1398,5.1045,5.0395,5.0526,5.0155,4.9431,5.0098,5.0283,5.0172,5.1045,5.1008,5.0358,5.019,4.9949,4.9652,4.9299,4.9689,5.0302,0.0,0.0,0.0,0.0,0.0,0.0,0.0,0.0,0.0,0.0,0.0,0.0,0.0,0.0,0.0,0.0,0.0,0.0,0.0,0.0,0.0,0.0,0.0,0.0,0.0,0.0,0.0,0.0,0.0,0.0,0.0,0.0,0.0,3.0647,0.0,2.9473,3.0728,3.027,3.0315,3.0704,3.0703,3.0653,3.0593,3.0593,3.0593,3.0621,3.068,0.0,0.0,0.0,0.0,0.0,0.0,0.0,3.2712,3.3599,3.3856,3.4458,0.0,0.0,0.0,0.0,0.0,0.0,0.0,0.0,0.0,0.0,0.0,0.0,0.0,0.0,0.0,0.0,0.0,0.0,0.0,0.0,0.0,0.0,0.0,0.0,0.0,0.0,0.0,0.0,0.0,0.0,0.0,0.0,0.0,0.0,0.0,0.0,5.0209,5.0209,5.0209,5.0209,5.0209,4.9968,4.954,4.954,4.9299,4.8946,4.9763,4.9893,4.9633,5.0878,5.0896,5.0098,5.0098,4.9837,4.9429,4.9039,4.9169,4.9466,0.0,0.0,0.0,0.0,0.0,0.0,0.0,0.0,0.0,0.0,0.0,0.0,0.0,0.0,0.0,0.0,0.0,0.0,0.0,0.0,0.0,0.0,0.0,0.0,0.0,0.0,0.0,0.0,0.0,0.0,0.0,0.0,0.0,3.1935,0.0,0.0,3.0964,3.0236,3.0218,3.0698,3.0697,3.0668,3.0629,3.0593,3.0613,3.061,3.0665,3.0649,3.0817,3.2268,0.0,0.0,0.0,0.0,3.2011,3.3777,3.3759,3.3935,0.0,0.0,0.0,0.0,0.0,0.0,0.0,0.0,0.0,0.0,0.0,0.0,0.0,0.0,0.0,0.0,0.0,0.0,0.0,0.0,0.0,0.0,0.0,0.0,0.0,0.0,0.0,0.0,0.0,0.0,0.0,0.0,0.0,0.0,0.0,4.8909,4.8909,4.8909,4.8909,4.8909,4.8909,4.8909,4.8909,4.8909,4.8909,4.8946,4.9596,4.9522,4.902,5.0395,5.0543,4.9893,4.9893,4.9893,4.9819,4.915,4.8909,4.8909,0.0,0.0,0.0,0.0,0.0,0.0,0.0,0.0,0.0,0.0,0.0,0.0,0.0,0.0,0.0,0.0,0.0,0.0,0.0,0.0,0.0,0.0,0.0,0.0,0.0,0.0,0.0,0.0,0.0,0.0,0.0,0.0,0.0,0.0,0.0,0.0,0.0,3.1654,3.1241,3.0697,3.0703,3.068,3.0673,3.061,0.0,0.0,3.0637,3.061,3.064,3.0875,3.0877,0.0,0.0,0.0,3.113,3.2932,3.3344,3.394,0.0,0.0,0.0,0.0,0.0,0.0,0.0,0.0,0.0,0.0,0.0,0.0,0.0,0.0,0.0,0.0,0.0,0.0,0.0,0.0,0.0,0.0,0.0,0.0,0.0,0.0,0.0,0.0,0.0,0.0,0.0,0.0,4.9057,4.9057,4.8964,0.0,4.8909,4.8909,4.8909,4.8909,4.8909,4.8909,4.8909,4.8909,4.8909,4.8909,4.902,4.9002,4.8927,4.915,4.9169,4.9057,4.9057,4.9057,4.9057,4.8946,4.8909,4.8909,0.0,0.0,0.0,0.0,0.0,0.0,0.0,0.0,0.0,0.0,0.0,0.0,0.0,0.0,0.0,0.0,0.0,0.0,0.0,0.0,0.0,0.0,0.0,0.0,0.0,0.0,0.0,0.0,0.0,0.0,0.0,2.9513,3.0704,0.0,0.0,0.0,0.0,0.0,0.0,3.0743,3.1181,3.1371,3.1382,0.0,0.0,0.0,0.0,0.0,0.0,3.1835,3.1681,3.1284,3.131,0.0,0.0,0.0,3.3577,0.0,3.8646,0.0,0.0,0.0,0.0,0.0,0.0,0.0,0.0,0.0,0.0,0.0,0.0,0.0,0.0,0.0,0.0,0.0,0.0,0.0,0.0,0.0,0.0,0.0,0.0,0.0,0.0,0.0,0.0,0.0,0.0,4.9094,4.8909,4.8909,4.8909,0.0,4.8909,4.9094,4.9193,4.9174,4.8528,4.8463,4.8909,4.8909,4.8909,4.8909,4.8909,4.8909,4.8909,4.8909,4.8909,4.8909,4.8909,4.8909,4.8909,4.8909,4.8909,4.8909,0.0,0.0,0.0,0.0,0.0,0.0,0.0,0.0,0.0,0.0,0.0,0.0,0.0,0.0,0.0,0.0,0.0,0.0,0.0,0.0,0.0,0.0,0.0,0.0,0.0,0.0,0.0,0.0,0.0,0.0,2.8549,2.9577,3.108,0.0,3.286,0.0,0.0,0.0,0.0,0.0,0.0,3.1889,0.0,0.0,0.0,0.0,0.0,0.0,0.0,0.0,0.0,0.0,0.0,0.0,0.0,0.0,0.0,0.0,0.0,0.0,0.0,0.0,0.0,0.0,0.0,0.0,0.0,0.0,0.0,0.0,0.0,0.0,0.0,0.0,0.0,0.0,0.0,0.0,0.0,0.0,0.0,0.0,0.0,0.0,0.0,0.0,0.0,0.0,4.8296,4.8296,4.8296,4.8296,4.8296,4.8311,4.8394,4.8652,4.8776,4.8758,4.783,4.7701,4.8296,4.85,4.8612,4.8612,4.8816,4.8909,4.8909,4.8909,4.8909,4.8909,4.8993,4.8978,4.8909,4.8993,4.8959,4.8909,0.0,0.0,0.0,0.0,0.0,0.0,0.0,0.0,0.0,0.0,0.0,0.0,0.0,0.0,0.0,0.0,0.0,0.0,0.0,0.0,0.0,0.0,0.0,0.0,0.0,0.0,0.0,0.0,0.0,0.0,2.9411,2.8686,2.9679,3.2155,3.4468,3.4603,3.3111,0.0,0.0,0.0,0.0,0.0,0.0,0.0,0.0,0.0,0.0,0.0,0.0,0.0,0.0,0.0,0.0,0.0,0.0,0.0,0.0,0.0,0.0,0.0,0.0,0.0,0.0,0.0,0.0,0.0,0.0,0.0,0.0,0.0,0.0,0.0,0.0,0.0,0.0,0.0,0.0,0.0,0.0,0.0,0.0,0.0,0.0,0.0,0.0,0.0,0.0,0.0,4.6624,4.6624,4.6624,4.6624,4.6624,4.6749,4.702,4.702,4.7049,4.702,4.6712,4.6587,4.6643,4.7404,4.7757,4.7794,4.8574,4.8909,4.8909,4.8909,4.8909,4.8925,4.9257,4.9193,4.8943,4.9257,4.9193,4.8909,0.0,0.0,0.0,0.0,0.0,0.0,0.0,0.0,0.0,0.0,0.0,0.0,0.0,0.0,0.0,2.1802,2.2503,0.0,0.0,0.0,0.0,0.0,0.0,0.0,0.0,0.0,0.0,0.0,0.0,2.7001,2.7929,2.9246,3.0361,3.1281,3.2648,3.2934,3.2446,3.381,0.0,0.0,0.0,0.0,0.0,0.0,0.0,0.0,0.0,0.0,0.0,0.0,0.0,0.0,0.0,0.0,0.0,0.0,0.0,0.0,0.0,0.0,0.0,0.0,0.0,0.0,0.0,0.0,0.0,0.0,0.0,0.0,0.0,0.0,0.0,0.0,0.0,0.0,0.0,0.0,0.0,0.0,0.0,0.0,0.0,0.0,0.0,0.0,0.0,0.0,4.7005,4.7005,4.7005,4.7005,4.7005,4.7071,4.7162,4.6615,4.6524,4.688,4.6237,4.6109,4.6513,4.6791,4.6921,4.694,4.7237,4.7943,4.8872,4.8333,4.8426,4.8853,4.8449,4.8546,4.889,4.9027,4.8993,4.8909,0.0,0.0,0.0,0.0,0.0,0.0,0.0,0.0,0.0,0.0,0.0,0.0,0.0,0.0,0.0,2.2276,2.3508,2.4554,2.5127,2.5369,0.0,0.0,0.0,0.0,0.0,0.0,0.0,0.0,0.0,0.0,0.0,0.0,3.0267,3.0823,3.1586,3.2089,0.0,0.0,0.0,3.243,0.0,0.0,3.3606,0.0,0.0,0.0,0.0,0.0,0.0,0.0,0.0,0.0,0.0,0.0,0.0,0.0,0.0,0.0,0.0,0.0,0.0,0.0,0.0,0.0,0.0,0.0,0.0,0.0,0.0,0.0,0.0,0.0,0.0,0.0,0.0,0.0,0.0,0.0,0.0,0.0,0.0,0.0,0.0,0.0,0.0,0.0,0.0,0.0,4.6462,4.6462,4.6462,4.6462,4.6556,4.6586,4.6592,4.6022,4.5874,4.6177,4.5529,4.5354,4.5658,4.5955,4.6104,4.6104,4.6382,4.7107,4.8054,4.7516,4.7776,4.8426,4.7704,4.8025,4.8872,4.871,4.8751,4.8909,0.0,0.0,0.0,0.0,0.0,0.0,0.0,0.0,0.0,0.0,0.0,0.0,0.0,0.0,0.0,2.3288,2.3945,2.4408,2.4384,2.5116,0.0,0.0,0.0,0.0,0.0,0.0,0.0,0.0,0.0,0.0,0.0,0.0,2.9205,0.0,3.1607,3.2433,3.3238,0.0,3.3214,3.3234,0.0,3.3669,3.4461,0.0,0.0,0.0,3.682,3.6812,0.0,0.0,0.0,0.0,0.0,0.0,0.0,0.0,0.0,0.0,0.0,0.0,0.0,0.0,0.0,0.0,0.0,0.0,0.0,0.0,0.0,0.0,0.0,0.0,0.0,0.0,0.0,0.0,0.0,0.0,0.0,0.0,0.0,0.0,0.0,0.0,0.0,0.0,0.0,4.4825,4.4825,4.4825,4.4825,4.4825,4.5074,4.5201,4.5201,4.5201,4.5074,4.48,4.4546,4.4279,4.4023,4.4878,4.5249,4.5305,4.6085,4.642,4.642,4.6438,4.694,4.7642,4.7117,4.7697,4.8832,4.8334,4.8464,4.8909,0.0,0.0,0.0,0.0,0.0,0.0,0.0,0.0,0.0,0.0,0.0,0.0,0.0,0.0,0.0,2.594,2.6654,2.684,2.6223,2.6398,2.6251,2.5632,2.6184,0.0,0.0,0.0,0.0,0.0,0.0,0.0,0.0,0.0,0.0,0.0,3.0751,3.1261,3.1576,3.2703,0.0,0.0,3.4687,3.5415,0.0,0.0,0.0,0.0,0.0,3.7211,0.0,0.0,3.6035,3.681,0.0,0.0,0.0,0.0,0.0,0.0,3.4836,0.0,0.0,0.0,0.0,0.0,4.2105,4.2937,0.0,0.0,0.0,0.0,0.0,0.0,0.0,0.0,0.0,0.0,0.0,0.0,0.0,0.0,0.0,0.0,0.0,0.0,0.0,0.0,0.0,4.5381,4.5381,4.5381,4.5381,4.5381,4.5438,4.54,4.5201,4.54,4.5243,4.48,4.4726,4.4546,4.4308,4.4351,4.4358,4.4376,4.4599,4.4692,4.4748,4.5361,4.6438,4.7627,4.689,4.756,4.8872,4.8732,4.8754,4.8909,0.0,0.0,0.0,0.0,0.0,0.0,0.0,0.0,0.0,0.0,0.0,0.0,0.0,0.0,0.0,0.0,2.7433,2.764,2.7452,2.7444,2.722,2.6705,2.7171,2.7245,0.0,0.0,0.0,0.0,0.0,0.0,0.0,0.0,0.0,0.0,0.0,0.0,0.0,0.0,0.0,0.0,3.5162,0.0,0.0,3.7745,3.8358,0.0,0.0,0.0,3.8849,3.7126,3.7045,0.0,0.0,0.0,0.0,0.0,0.0,0.0,0.0,0.0,0.0,0.0,0.0,0.0,4.0894,4.1569,4.2049,0.0,0.0,0.0,0.0,0.0,0.0,0.0,0.0,0.0,0.0,0.0,0.0,0.0,0.0,0.0,0.0,0.0,0.0,0.0,4.5513,4.5586,4.5586,4.5586,4.5586,4.5586,4.5586,4.5513,4.5362,4.5513,4.54,4.4985,4.4985,4.4776,4.4383,4.425,4.4109,4.4005,4.4005,4.4005,4.4042,4.4544,4.5509,4.6643,4.6178,4.6977,4.8407,4.8407,4.8612,4.8909,0.0,0.0,0.0,0.0,0.0,0.0,0.0,0.0,0.0,0.0,0.0,0.0,0.0,0.0,0.0,0.0,2.7166,2.7546,2.8161,2.8291,2.8306,2.8205,2.8301,2.794,2.7051,0.0,0.0,0.0,0.0,0.0,0.0,0.0,0.0,0.0,0.0,0.0,0.0,0.0,0.0,3.3475,3.4988,3.669,0.0,0.0,3.9837,0.0,3.961,3.9807,4.0273,3.8792,3.7712,0.0,0.0,0.0,0.0,0.0,3.5912,0.0,0.0,0.0,0.0,0.0,0.0,0.0,3.9702,4.0153,4.0468,0.0,0.0,0.0,0.0,0.0,0.0,0.0,0.0,0.0,0.0,0.0,0.0,0.0,0.0,0.0,0.0,0.0,4.5586,4.5586,4.5586,4.5586,4.5586,4.5586,4.5586,4.5586,4.5586,4.5586,4.5586,4.5586,4.5495,4.5243,4.5222,4.4943,4.4438,4.4411,4.425,4.4005,4.4005,4.4005,4.4005,4.4005,4.4506,4.5287,4.5287,4.6271,4.7701,4.7701,4.8203,4.8909,2.5668,0.0,0.0,0.0,0.0,0.0,0.0,0.0,0.0,0.0,0.0,0.0,0.0,0.0,0.0,0.0,0.0,2.8806,0.0,2.888,2.8935,2.8235,2.8867,2.8844,2.797,2.8638,0.0,0.0,0.0,0.0,0.0,0.0,0.0,0.0,0.0,0.0,0.0,0.0,0.0,3.4246,3.522,0.0,3.9179,3.9273,3.9822,4.0408,3.958,3.9846,4.053,0.0,3.9056,3.7918,0.0,0.0,0.0,0.0,0.0,0.0,0.0,0.0,0.0,0.0,0.0,0.0,4.0261,4.0668,4.0734,0.0,0.0,0.0,0.0,0.0,0.0,0.0,0.0,0.0,0.0,0.0,0.0,0.0,0.0,0.0,0.0,0.0,4.5586,4.5586,4.5586,4.5586,4.5586,4.5586,4.5586,4.5586,4.5586,4.5586,4.5586,4.5586,4.5568,4.5513,4.5302,4.503,4.4701,4.4493,4.425,4.4005,4.4005,4.4005,4.4005,4.4005,4.4506,4.5287,4.5287,4.6271,4.7701,4.7701,4.8203,4.8909,2.5698,0.0,0.0,0.0,0.0,0.0,0.0,0.0,0.0,0.0,0.0,0.0,0.0,0.0,0.0,0.0,0.0,0.0,0.0,0.0,3.0371,2.9527,2.9923,2.9767,2.8918,2.9279,0.0,0.0,0.0,0.0,0.0,0.0,0.0,0.0,0.0,0.0,0.0,0.0,3.3895,3.5115,3.6358,0.0,3.9389,3.9764,4.0138,4.045,4.0027,4.0177,4.0616,4.105,4.0352,0.0,0.0,3.97,3.927,0.0,3.8496,3.8071,0.0,0.0,0.0,3.8628,0.0,0.0,0.0,4.0176,4.007,3.9614,0.0,0.0,0.0,0.0,0.0,0.0,0.0,0.0,0.0,0.0,0.0,0.0,0.0,0.0,0.0,0.0,4.5124,4.5566,4.5201,4.4951,4.4951,4.4951,4.4951,4.4951,4.5355,4.5586,4.5586,4.5586,4.5586,4.5586,4.5457,4.5201,4.4819,4.465,4.4374,4.4005,4.4005,4.4005,4.4005,4.4005,4.4265,4.4692,4.5119,4.5788,4.6605,4.7404,4.7961,4.837,2.569,0.0,0.0,0.0,0.0,0.0,0.0,0.0,0.0,0.0,0.0,0.0,0.0,0.0,0.0,0.0,0.0,0.0,0.0,0.0,0.0,3.103,3.0877,3.0491,2.9851,2.9771,2.9355,0.0,0.0,0.0,0.0,0.0,0.0,0.0,0.0,0.0,0.0,0.0,0.0,3.5968,0.0,3.8832,3.9644,4.0457,4.0754,4.0719,4.0546,4.0489,4.0623,4.1508,0.0,4.0631,4.0795,4.0733,0.0,0.0,0.0,0.0,0.0,0.0,0.0,0.0,0.0,4.0447,0.0,0.0,0.0,3.8877,0.0,0.0,0.0,0.0,0.0,0.0,0.0,0.0,0.0,0.0,0.0,0.0,0.0,0.0,0.0,0.0,4.4047,4.4566,4.4278,4.3989,4.3835,4.397,4.4143,4.4297,4.497,4.5432,4.5586,4.5586,4.5586,4.5586,4.5586,4.5342,4.4891,4.4825,4.4538,4.4079,4.4017,4.4005,4.4005,4.4005,4.4005,4.4079,4.4766,4.5138,4.5472,4.6921,4.7571,4.7813,2.5696,2.5703,0.0,0.0,0.0,0.0,0.0,0.0,0.0,0.0,0.0,0.0,0.0,0.0,0.0,0.0,0.0,0.0,3.2778,0.0,0.0,0.0,3.1155,3.076,3.0664,3.0663,3.0232,2.9352,0.0,0.0,0.0,0.0,0.0,0.0,3.2253,0.0,0.0,0.0,3.6516,0.0,3.855,3.9727,0.0,4.1403,4.1705,4.1546,4.0777,4.0489,4.0623,0.0,4.127,4.0737,0.0,4.1215,0.0,0.0,0.0,0.0,0.0,0.0,0.0,0.0,4.0142,0.0,0.0,0.0,4.0713,4.0616,0.0,0.0,0.0,0.0,0.0,0.0,0.0,0.0,0.0,0.0,0.0,0.0,0.0,0.0,0.0,0.0,0.0,4.1123,4.2412,4.2893,4.2143,4.2816,4.3566,4.4278,4.4393,4.4816,4.5586,4.5586,4.5586,4.5586,4.5586,4.5438,4.5159,4.4915,4.4624,4.4346,4.4091,4.4005,4.4005,4.4005,4.4005,4.4005,4.4116,4.4618,4.5398,4.6308,4.7088,4.7813,2.5701,2.6103,0.0,0.0,0.0,0.0,0.0,0.0,0.0,0.0,0.0,0.0,0.0,0.0,0.0,0.0,0.0,3.2704,0.0,0.0,0.0,0.0,0.0,0.0,3.1499,3.1038,3.0611,3.0243,2.9751,0.0,0.0,0.0,0.0,0.0,3.2691,0.0,3.3692,0.0,0.0,0.0,0.0,0.0,0.0,4.1161,4.1058,4.0989,4.0623,4.0489,4.0546,0.0,4.1174,0.0,0.0,0.0,0.0,0.0,0.0,0.0,0.0,0.0,0.0,0.0,0.0,0.0,0.0,0.0,4.0888,0.0,0.0,0.0,0.0,0.0,0.0,0.0,0.0,0.0,0.0,0.0,0.0,0.0,0.0,0.0,0.0,0.0,0.0,0.0,0.0,4.1219,4.0392,4.1143,4.1739,4.2066,4.3085,4.3989,4.4836,4.4855,4.5086,4.5586,4.5586,4.5457,4.5201,4.5074,4.48,4.4383,4.426,4.4151,4.4005,4.4005,4.4005,4.4005,4.4005,4.4228,4.4655,4.5491,4.6011,4.642,2.6392,0.0,0.0,0.0,0.0,0.0,0.0,0.0,0.0,0.0,0.0,0.0,3.4057,3.4409,0.0,0.0,0.0,3.5102,0.0,0.0,3.3798,0.0,0.0,0.0,0.0,0.0,3.1586,3.1811,0.0,0.0,0.0,0.0,0.0,0.0,0.0,3.3519,3.4179,0.0,0.0,3.8863,4.0111,4.0964,4.147,4.102,4.07,4.0489,4.0489,4.0489,4.0527,4.0777,4.1155,0.0,4.102,0.0,0.0,0.0,0.0,0.0,4.2916,0.0,0.0,0.0,0.0,0.0,0.0,0.0,0.0,0.0,0.0,0.0,0.0,0.0,0.0,0.0,0.0,0.0,0.0,0.0,0.0,0.0,0.0,0.0,0.0,0.0,0.0,0.0,3.9908,0.0,3.8988,3.9719,4.0373,4.0835,4.2085,4.3239,4.4297,4.4297,4.4739,4.5586,4.5586,4.5495,4.5302,4.5222,4.4988,4.4624,4.4465,4.4289,4.4091,4.4017,4.4005,4.4005,4.4005,4.4005,4.4116,4.4971,4.5287,4.5417,2.8127,2.7521,0.0,0.0,0.0,0.0,0.0,0.0,0.0,0.0,0.0,0.0,0.0,0.0,0.0,0.0,0.0,3.7083,3.7938,0.0,3.4359,0.0,0.0,3.3522,0.0,0.0,0.0,3.4381,0.0,0.0,0.0,0.0,0.0,0.0,0.0,3.4466,3.6825,3.7668,3.8945,4.0427,4.0554,4.0592,4.0639,0.0,4.1239,4.0489,4.0489,0.0,0.0,4.147,4.127,0.0,0.0,0.0,0.0,0.0,0.0,0.0,0.0,0.0,0.0,4.3239,0.0,0.0,0.0,0.0,4.0823,0.0,0.0,0.0,0.0,0.0,0.0,0.0,0.0,0.0,0.0,0.0,0.0,0.0,0.0,0.0,0.0,0.0,0.0,0.0,3.8421,0.0,3.8084,3.8873,4.0085,4.172,4.1816,4.2624,4.4278,4.4297,4.4739,4.5586,4.5586,4.5605,4.5586,4.5322,4.5201,4.5159,4.4624,4.4402,4.4374,4.4091,4.4005,4.4005,4.4005,4.4005,4.4116,4.4971,4.5287,4.5417,0.0,0.0,0.0,0.0,0.0,0.0,0.0,3.2556,0.0,0.0,0.0,0.0,0.0,0.0,4.1528,0.0,0.0,4.0222,4.053,3.8273,0.0,0.0,0.0,3.5785,0.0,0.0,0.0,0.0,0.0,0.0,0.0,0.0,0.0,0.0,0.0,3.4726,0.0,0.0,0.0,0.0,0.0,4.0904,4.1335,0.0,0.0,4.0489,4.0489,4.0489,0.0,4.0835,4.1139,4.1331,4.1058,4.1559,4.2156,4.1624,4.2453,0.0,0.0,0.0,4.4723,4.4172,0.0,0.0,0.0,0.0,0.0,0.0,0.0,0.0,0.0,0.0,0.0,0.0,0.0,0.0,0.0,0.0,0.0,0.0,0.0,0.0,0.0,0.0,0.0,3.6022,3.6958,3.7219,0.0,3.7142,3.8104,3.9258,3.9835,4.095,4.2624,4.322,4.3912,4.4739,4.5316,4.5586,4.5586,4.5513,4.5362,4.5201,4.5007,4.4726,4.4383,4.4289,4.4151,4.4005,4.4005,4.4005,4.4042,4.4321,4.4432,4.4562,2.9804,0.0,0.0,0.0,0.0,0.0,0.0,0.0,0.0,0.0,3.9204,0.0,4.3701,0.0,4.4328,0.0,4.3753,4.3233,4.2329,4.1094,0.0,4.0588,3.9071,0.0,0.0,0.0,0.0,0.0,0.0,3.4119,0.0,0.0,0.0,0.0,0.0,0.0,0.0,0.0,3.8667,0.0,0.0,4.0885,0.0,0.0,4.0681,0.0,0.0,4.0489,4.0489,4.0489,4.0873,4.1296,4.1046,4.1739,4.2604,4.2387,4.3288,4.4366,4.4453,4.5054,0.0,0.0,4.3968,0.0,4.2917,0.0,0.0,0.0,0.0,0.0,0.0,0.0,0.0,0.0,0.0,0.0,0.0,3.5654,0.0,0.0,0.0,0.0,0.0,0.0,3.6754,3.5579,3.6265,3.6636,0.0,0.0,3.7373,3.8834,3.9161,4.0239,4.2239,4.2816,4.3662,4.4759,4.5316,4.5586,4.5586,4.5586,4.5513,4.5342,4.5243,4.4988,4.4676,4.4465,4.4289,4.4121,4.4048,4.4005,4.4005,4.4005,4.4005,4.4079,0.0,0.0,0.0,0.0,3.1782,0.0,0.0,0.0,3.9596,0.0,4.3419,4.4129,4.5738,4.6644,4.6778,4.5855,4.6547,0.0,4.3508,4.408,0.0,0.0,4.0771,4.0342,3.9532,0.0,0.0,0.0,0.0,0.0,0.0,0.0,0.0,0.0,3.4098,0.0,3.6871,3.7698,3.8999,4.0489,4.0489,4.0527,4.0546,4.0508,0.0,4.17,4.0796,4.0489,4.0489,4.0489,4.0489,4.0642,4.147,4.1777,4.197,4.2797,4.3605,4.4256,4.4309,4.4889,4.512,4.3582,0.0,0.0,0.0,0.0,4.2039,0.0,0.0,0.0,0.0,0.0,0.0,0.0,0.0,0.0,0.0,0.0,0.0,0.0,0.0,0.0,0.0,3.7107,3.7353,3.5631,3.6311,3.7132,0.0,0.0,0.0,4.0354,3.9662,4.045,4.3008,4.3085,4.3912,4.5528,4.5566,4.5586,4.5586,4.5586,4.5586,4.5586,4.5322,4.5222,4.5159,4.465,4.4411,4.4374,4.4091,4.4005,4.4005,4.4005,4.4005,4.4005,3.1642,3.1588,3.2207,0.0,3.4224,3.4622,0.0,0.0,0.0,0.0,4.6722,4.8484,5.0106,5.0491,5.0029,4.8548,4.8625,0.0,0.0,0.0,0.0,4.4372,4.3131,4.2071,4.1212,3.9793,0.0,3.885,0.0,0.0,3.6395,0.0,0.0,0.0,0.0,0.0,3.6889,3.8353,3.9557,4.0489,4.0489,4.0893,0.0,0.0,4.1046,4.17,4.0796,4.0489,4.0489,4.0489,4.0489,4.0527,4.0758,4.1277,4.1854,4.2066,4.2739,4.3412,4.3429,4.3583,4.3624,4.3233,4.3118,4.3044,0.0,0.0,0.0,0.0,0.0,0.0,0.0,0.0,0.0,0.0,0.0,0.0,0.0,0.0,0.0,0.0,0.0,0.0,3.562,3.597,3.6023,3.5598,3.6338,0.0,0.0,0.0,0.0,3.9546,3.8777,3.9565,4.2104,4.2777,4.3624,4.4643,4.5278,4.5586,4.5586,4.5586,4.5586,4.5605,4.5513,4.5381,4.5161,4.4825,4.4572,4.4374,4.4091,4.4005,4.4005,4.4005,4.4005,4.4098,3.1954,0.0,0.0,3.5535,0.0,0.0,3.9353,0.0,0.0,4.7311,4.8812,0.0,5.1202,5.2009,5.1798,5.0106,5.0298,0.0,0.0,0.0,0.0,4.624,4.5257,4.383,4.1832,4.0539,0.0,3.9192,0.0,0.0,3.7242,0.0,0.0,0.0,0.0,3.7115,0.0,3.9283,4.0292,4.0995,4.0642,0.0,0.0,4.0681,4.0796,4.1162,4.0681,4.0489,4.0489,4.0489,4.0489,4.0566,4.095,4.1412,4.1873,4.2258,4.272,4.3104,4.3104,4.3104,4.3008,4.2624,4.2527,4.2527,4.2527,4.2544,4.2444,0.0,0.0,0.0,0.0,0.0,0.0,0.0,0.0,0.0,0.0,0.0,0.0,0.0,3.5065,0.0,3.4549,3.514,3.5393,3.5014,0.0,0.0,0.0,0.0,0.0,3.9738,3.9008,3.995,4.2854,4.3374,4.3855,4.4316,4.5182,4.5393,4.5028,4.5432,4.5586,4.5586,4.5586,4.5513,4.5342,4.5074,4.4825,4.4546,4.4151,4.4005,4.4005,4.4005,4.4005,4.4079,0.0,0.0,0.0,0.0,0.0,0.0,0.0,4.449,0.0,5.0183,0.0,5.0528,5.1046,5.2354,5.2568,5.0991,0.0,5.1125,4.9663,5.0279,4.9606,4.7163,4.6971,4.5353,4.204,4.1011,0.0,0.0,0.0,3.8132,3.7993,0.0,0.0,0.0,0.0,0.0,0.0,4.0081,4.0819,0.0,4.0781,4.0489,4.0489,4.0489,4.0489,4.0489,4.0489,4.0489,4.0489,4.0489,4.0489,4.0623,4.1393,4.172,4.195,4.272,4.2931,4.2931,4.2931,4.2854,4.2585,4.1816,4.1643,4.1643,4.1643,4.1674,4.1709,4.1643,4.1674,0.0,0.0,0.0,0.0,0.0,0.0,0.0,0.0,0.0,0.0,0.0,0.0,0.0,0.0,3.4658,3.52,0.0,0.0,0.0,0.0,0.0,0.0,0.0,3.9873,0.0,4.4259,0.0,4.4355,4.447,4.524,4.5201,4.4489,4.524,4.5586,4.5586,4.5586,4.5586,4.5586,4.5322,4.5052,4.4751,4.425,4.4048,4.4048,4.4048,4.4048,4.4048,0.0,0.0,0.0,0.0,0.0,4.4585,4.7252,4.8089,4.9178,5.1375,5.3396,0.0,5.3895,5.3453,5.2799,5.1779,5.1202,0.0,0.0,0.0,0.0,4.7971,4.7259,4.5643,4.2931,4.1366,4.0485,0.0,3.9528,3.8753,3.8022,3.8753,0.0,0.0,0.0,0.0,4.0265,3.9723,0.0,4.07,4.0566,4.0489,4.0489,4.0489,4.0489,4.0489,4.0489,4.0489,4.0489,4.0489,4.0489,4.0527,4.0681,4.1219,4.1835,4.1989,4.2027,4.2027,4.2027,4.1508,4.0912,4.0758,4.0719,4.0719,4.0719,4.0735,4.0735,4.0719,4.0735,4.0696,4.0543,0.0,0.0,0.0,0.0,0.0,0.0,0.0,0.0,0.0,0.0,0.0,0.0,0.0,0.0,0.0,0.0,0.0,0.0,0.0,0.0,0.0,0.0,0.0,0.0,0.0,0.0,4.5355,4.5528,4.5509,4.5374,4.5528,4.5586,4.5586,4.5586,4.5586,4.5586,4.5322,4.5052,4.4751,4.4438,4.4318,4.4318,4.4318,4.4318,4.4289,0.0,0.0,0.0,0.0,0.0,0.0,0.0,5.1298,0.0,5.3084,5.353,5.3608,5.3142,5.3163,5.2683,5.1395,5.1318,5.1144,5.0721,5.0702,4.9913,4.8182,4.774,0.0,4.3162,4.1408,4.077,4.1219,3.9957,3.9341,3.9315,4.0146,3.9631,3.802,0.0,4.014,0.0,0.0,0.0,4.1091,4.0681,4.0489,4.0489,4.0489,4.0489,4.0489,4.0489,4.0489,4.0489,4.0489,4.0489,4.0489,4.0489,4.0777,4.1123,4.1123,4.1123,4.1123,4.1123,4.0816,4.0489,4.0489,4.0489,4.0489,4.0489,4.0489,4.0489,4.0489,4.0489,4.0504,4.0558,3.986,0.0,0.0,0.0,0.0,0.0,0.0,0.0,0.0,0.0,0.0,0.0,0.0,0.0,0.0,0.0,0.0,0.0,0.0,0.0,0.0,0.0,0.0,0.0,0.0,0.0,4.4932,4.4932,4.4932,4.4932,4.5393,4.5586,4.5586,4.5586,4.5586,4.5586,4.5322,4.5118,4.4985,4.4701,4.4599,4.4599,4.4438,4.4572,4.4751,0.0,3.9007,0.0,0.0,4.6256,0.0,0.0,5.3571,5.4739,5.4679,5.3568,5.2742,5.2641,5.297,5.2664,5.1337,5.1491,5.1375,5.0741,5.0702,4.999,4.8432,4.8202,4.6701,4.3701,4.1758,4.1043,0.0,4.0215,3.9681,3.9973,4.1152,4.0773,0.0,0.0,0.0,0.0,0.0,4.03,4.1402,4.0761,4.0489,4.0489,4.0489,4.0489,4.0489,4.0489,4.0489,4.0489,4.0489,4.0489,4.0489,4.0489,4.0489,4.0489,4.0489,4.0489,4.0489,4.0489,4.0489,4.0489,4.0489,4.0489,4.0489,4.0489,4.0489,4.0489,4.0489,4.0489,4.0523,4.0573,4.0015,0.0,0.0,0.0,0.0,0.0,0.0,0.0,0.0,0.0,0.0,0.0,0.0,0.0,0.0,0.0,0.0,0.0,0.0,0.0,0.0,0.0,0.0,4.5566,0.0,4.4297,0.0,4.4124,4.4124,4.4316,4.5009,4.5413,4.5586,4.5586,4.5586,4.5586,4.5322,4.5222,4.5243,4.4985,4.4891,4.4849,4.4572,4.48,4.5118,0.0,0.0,0.0,0.0,0.0,0.0,0.0,5.4051,5.5588,5.5588,5.5453,5.5338,5.5338,5.4068,5.3145,5.2991,5.1645,5.0779,5.0702,5.0702,5.026,4.9317,4.8529,4.724,4.5413,4.2931,4.1335,0.0,0.0,3.9627,3.8197,4.0578,4.0773,0.0,0.0,0.0,0.0,4.0146,4.0469,4.0604,4.0527,4.0489,4.0489,4.0489,4.0489,4.0489,4.0489,4.0489,4.0489,4.0489,4.0489,4.0489,4.0489,4.0489,4.0489,4.0489,4.0489,4.0489,4.0489,4.0489,4.0489,4.0489,4.0489,4.0489,4.0489,4.0489,4.0489,4.0489,4.0489,4.0504,4.0523,4.0446,4.0389,0.0,0.0,0.0,0.0,0.0,0.0,0.0,0.0,0.0,0.0,3.4903,0.0,0.0,0.0,0.0,0.0,0.0,0.0,0.0,0.0,4.3816,4.5566,4.4739,0.0,4.4297,4.3566,4.3585,4.4297,4.4374,4.4855,4.5586,4.5586,4.5586,4.5586,4.5322,4.5342,4.555,4.5282,4.5161,4.5118,4.4849,4.4962,4.5159,0.0,0.0,0.0,0.0,0.0,0.0,0.0,5.4805,5.5389,5.535,5.5132,5.4951,5.4929,5.3392,5.2373,5.2373,5.1316,5.0643,5.0702,5.0702,5.0298,4.9433,4.8567,4.7317,4.5624,4.3104,4.1643,0.0,0.0,0.0,0.0,4.1212,0.0,0.0,0.0,4.0438,4.0707,4.0065,4.0046,4.0489,4.0489,4.0489,4.0489,4.0489,4.0489,4.0489,4.0489,4.0489,4.0489,4.0489,4.0489,4.0489,4.0489,4.0489,4.0489,4.0489,4.0489,4.0489,4.0489,4.0489,4.0489,4.0489,4.0489,4.0489,4.0489,4.0489,4.0489,4.0489,4.0489,4.0489,4.0489,4.0489,4.0489,0.0,0.0,0.0,0.0,0.0,0.0,0.0,0.0,0.0,0.0,0.0,3.5699,0.0,0.0,0.0,0.0,0.0,0.0,4.152,0.0,4.3412,4.4085,4.422,4.4297,4.4297,4.397,4.4259,4.5066,4.5066,4.5259,4.5586,4.5586,4.5586,4.5586,4.5495,4.5495,4.5586,4.5495,4.5438,4.5419,4.514,4.5201,4.54,4.8044,0.0,5.0019,0.0,5.2475,5.3177,5.5313,5.529,5.499,5.4924,5.4664,5.4465,5.4415,5.2886,5.192,5.2031,5.1073,5.0502,5.0663,5.0663,5.0394,4.9779,4.8933,0.0,4.674,4.422,4.2681,4.2181,4.2181,0.0,0.0,0.0,0.0,0.0,3.9863,4.0243,4.1008,3.9999,3.9922,4.0489,4.0489,4.0508,4.0492,4.0489,4.0508,4.0492,4.0489,4.0489,4.0489,4.0489,4.0489,4.0489,4.0489,4.0489,4.0489,4.0489,4.0489,4.0489,4.0489,4.0489,4.0489,4.0489,4.0489,4.0489,4.0489,4.0489,4.0489,4.0489,4.0489,4.0489,4.0489,4.0489,4.0489,0.0,0.0,0.0,0.0,0.0,0.0,0.0,3.8604,3.7623,3.5699,0.0,0.0,0.0,0.0,0.0,0.0,0.0,0.0,0.0,0.0,0.0,0.0,0.0,4.4297,4.4297,4.4066,4.4393,4.522,4.547,4.5586,4.5586,4.5586,4.5586,4.5586,4.5586,4.5586,4.5586,4.5586,4.5586,4.5568,4.5302,4.5362,4.5607,5.0183,5.1964,5.3883,5.5621,5.5925,5.6034,5.6347,5.5379,5.4579,5.4535,5.4484,5.4484,5.4484,5.3006,5.2172,5.2558,5.1084,5.0249,5.0582,5.0603,5.0603,0.0,0.0,4.9317,4.9356,4.6855,4.4739,4.3085,0.0,0.0,3.799,0.0,0.0,3.9358,4.0557,4.0425,3.9373,3.9942,4.0321,4.0489,4.0489,4.0511,4.0502,4.0492,4.0511,4.0499,4.0492,4.0489,4.0489,4.0489,4.0489,4.0489,4.0489,4.0489,4.0489,4.0489,4.0489,4.0489,4.0489,4.0489,4.0489,4.0489,4.0489,4.0489,4.0489,4.0489,4.0489,4.0489,4.0489,4.0489,4.0489,4.0489,4.0489,4.0489,0.0,0.0,0.0,0.0,0.0,0.0,3.8757,3.8296,3.5757,0.0,0.0,0.0,0.0,0.0,0.0,0.0,0.0,4.2989,4.3085,0.0,4.5547,4.472,4.4297,4.4297,4.3489,4.3547,4.4335,4.5201,4.5586,4.5586,4.5586,4.5586,4.5586,4.5586,4.5586,4.5586,4.5586,4.5586,4.5568,4.5302,4.5362,4.5683,5.2696,5.3877,5.4743,5.4516,5.5379,5.5958,5.5672,5.5254,5.4909,5.4836,5.4296,5.3665,5.2883,5.227,5.1756,0.0,5.0279,4.9773,0.0,5.0202,5.0291,5.0521,4.9697,4.8987,4.8471,4.6474,4.4651,4.3035,0.0,0.0,0.0,4.0575,4.0382,3.9319,3.9947,4.0177,4.0123,4.0172,4.0321,4.0489,4.0495,4.0499,4.0502,4.0447,4.043,4.0432,4.0482,4.0499,4.0495,4.0508,4.0489,4.0489,4.0489,4.0489,4.0489,4.0489,4.0489,4.0489,4.0489,4.0489,4.0489,4.0489,4.0489,4.0489,4.0489,4.0489,4.0489,4.0489,4.0489,4.0489,4.0489,4.0489,4.0489,4.0489,0.0,0.0,0.0,0.0,0.0,0.0,0.0,3.7853,0.0,3.6546,0.0,0.0,0.0,0.0,0.0,0.0,0.0,0.0,4.3041,0.0,4.3893,4.4739,4.4893,4.4297,4.4643,4.4932,4.5201,4.547,4.5586,4.5586,4.5586,4.5586,4.5586,4.5586,4.5586,4.5663,4.624,4.649,4.6547,4.7012,4.6877,4.651,5.3774,5.4895,5.5658,5.4988,5.56,5.6083,5.5735,5.4968,5.4311,5.3938,5.3674,5.2887,5.1283,5.1306,0.0,5.052,4.969,0.0,4.9746,4.9872,5.0062,5.0264,4.9877,4.9444,4.8947,0.0,0.0,4.4383,4.2827,4.1637,4.0833,4.0576,4.0173,3.9627,3.9673,3.9983,4.0473,4.0062,4.0139,4.0495,4.036,4.0362,4.0413,4.0415,4.0379,4.0379,4.0432,4.0485,4.0502,4.0495,4.0508,4.0489,4.0489,4.0489,4.0489,4.0489,4.0489,4.0489,4.0489,4.0489,4.0489,4.0489,4.0489,4.0489,4.0489,4.0489,4.0489,4.0489,4.0489,4.0489,4.0489,4.0758,4.0873,4.0546,0.0,4.0758,0.0,0.0,0.0,0.0,0.0,0.0,0.0,3.7296,0.0,0.0,0.0,0.0,0.0,0.0,0.0,4.1532,4.333,0.0,4.4047,4.5066,4.5316,4.4778,4.5336,4.5586,4.5586,4.5586,4.5586,4.5586,4.5586,4.5586,4.5586,4.5586,4.5778,4.6105,4.6336,4.6605,4.6932,4.7105,4.6836,4.6471,5.373,5.5172,0.0,0.0,5.6426,0.0,5.618,5.46,5.3093,5.2293,5.2729,5.2252,4.9921,5.0288,5.0522,5.0021,0.0,0.0,0.0,4.9683,4.9884,4.991,5.0217,0.0,5.0404,4.8832,4.7489,4.6511,4.2619,4.0954,4.138,3.9795,3.947,4.0214,3.9721,3.9859,4.0422,3.9702,3.981,4.0449,4.012,4.012,4.0307,4.0362,4.0362,4.0307,4.0362,4.0432,4.0502,4.0502,4.0495,4.0489,4.0489,4.0489,4.0489,4.0489,4.0489,4.0489,4.0489,4.0489,4.0508,4.0566,4.0585,4.0566,4.0508,4.0489,4.0489,4.0489,4.0546,4.0585,4.0585,4.1296,4.1604,4.0719,4.1277,4.1219,3.9527,0.0,0.0,0.0,0.0,0.0,0.0,3.8354,3.9354,0.0,0.0,0.0,0.0,0.0,4.2354,4.3162,4.397,4.4778,4.5586,4.5586,4.5586,4.5586,4.5586,4.5586,4.5586,4.5586,4.5586,4.5586,4.5586,4.5586,4.5586,4.5586,4.6086,4.674,4.597,4.6182,4.6817,4.6047,4.574,4.5797,0.0,0.0,5.5121,5.5161,5.5599,5.572,5.5014,5.4478,5.4075,5.3849,5.2931,5.183,5.0655,5.0123,4.9556,4.8789,4.8569,4.8568,4.8934,4.9271,4.957,4.9811,5.0144,5.0038,4.943,4.8398,4.6748,4.4484,4.3555,4.2507,4.138,4.0838,4.052,4.0389,3.9791,3.9791,4.0213,3.9651,3.9721,4.0177,4.0002,4.0062,4.0307,4.0309,4.031,4.0291,4.0326,4.0362,4.0432,4.0466,4.0495,4.0489,4.0489,4.0489,4.0489,4.0489,4.0489,4.0489,4.0489,4.0489,4.0662,4.1335,4.1489,4.1316,4.0642,4.0489,4.0489,4.0489,4.1027,4.1489,4.1489,4.22,4.2508,4.1623,4.1681,4.1219,3.9527,0.0,0.0,0.0,3.8642,3.9142,3.8719,3.9065,3.9835,0.0,0.0,0.0,0.0,0.0,4.3833,4.408,4.4872,4.5393,4.5586,4.5586,4.5586,4.5586,4.5586,4.5586,4.5586,4.5586,4.5586,4.5586,4.5586,4.5586,4.5586,4.5586,4.572,4.5951,4.6413,4.6721,4.6951,4.7355,4.7124,4.6624,5.393,5.4317,5.4575,5.4617,5.492,5.4981,5.4522,5.4112,5.3592,5.2858,5.2307,5.1389,4.9829,4.9609,4.9242,4.8379,4.8306,4.8364,4.8569,4.89,4.9145,4.9333,4.9674,4.972,4.9428,4.8585,4.7077,4.4905,4.4296,4.3418,4.2338,4.13,4.0864,4.0875,4.0153,4.0169,4.0692,4.0521,4.0421,4.0366,4.0295,4.0217,4.0119,4.0234,4.031,4.031,4.0291,4.0326,4.0362,4.0432,4.0463,4.0511,4.0508,4.0489,4.0489,4.0489,4.0777,4.1085,4.1085,4.1393,4.1797,4.2277,4.2393,4.2277,4.1797,4.1681,4.1681,4.1681,4.2066,4.2393,4.2393,4.2777,4.2816,4.195,4.1797,4.1219,3.9527,3.9681,0.0,3.87,3.9335,4.0008,4.0392,4.0796,4.1412,4.2335,0.0,0.0,4.3624,4.4432,4.4737,4.4369,4.5161,4.5586,4.5586,4.5586,4.5586,4.5586,4.5586,4.5586,4.5586,4.5586,4.5586,4.5586,4.5586,4.5586,4.5586,4.5586,4.5817,4.6201,4.6278,4.6547,4.6913,4.6932,4.6682,4.6317,5.3442,5.3855,5.4295,5.4454,5.4314,5.4216,5.4216,5.3647,5.2674,5.1187,5.1463,5.0967,4.8746,4.904,4.9095,4.8361,4.8306,4.8306,4.8306,4.8623,4.8816,4.8816,4.9113,4.9453,4.973,4.8813,4.7591,4.607,4.4763,4.39,4.3459,4.1742,4.1206,4.1609,4.0883,4.0902,4.1447,4.1612,4.136,4.0835,4.0865,4.0626,4.0274,4.0425,4.0482,4.0482,4.0348,4.0309,4.0307,4.0379,4.0449,4.0499,4.0508,4.0489,4.0489,4.0489,4.12,4.197,4.1835,4.2527,4.3258,4.3124,4.3181,4.3258,4.3124,4.3104,4.3104,4.3104,4.3201,4.3278,4.3278,4.3278,4.3047,4.2297,4.2085,4.1412,3.9719,0.0,3.9777,3.9508,4.0315,4.1181,4.1931,4.2662,4.3143,4.3278,4.3912,0.0,0.0,4.5201,4.5259,4.4509,4.5201,4.5586,4.5586,4.572,4.572,4.5586,4.5855,4.5836,4.5586,4.574,4.572,4.5586,4.5586,4.5586,4.5586,4.5586,4.6028,4.6624,4.5893,4.6047,4.6605,4.5874,4.5586,4.5586,5.4069,5.3757,5.361,5.4314,5.383,5.339,5.339,5.3298,5.2876,5.194,5.1334,5.0582,4.9499,4.8857,4.8453,4.8324,4.8306,4.8306,4.8306,4.8623,4.8816,4.8816,4.9113,4.9314,4.9394,4.7926,4.6617,4.5436,4.4599,4.392,4.3391,4.3166,4.2978,4.2823,4.2412,4.2164,4.204,4.1798,4.1605,4.1484,4.1657,4.1795,4.1886,4.1473,4.1304,4.1227,4.054,4.0309,4.0307,4.0379,4.0449,4.0499,4.0508,4.0489,4.0489,4.0489,4.1643,4.2739,4.2008,4.2931,4.3951,4.3278,4.3605,4.3932,4.3258,4.3104,4.3104,4.3104,4.3643,4.4105,4.4105,4.4105,4.4066,4.3932,4.3335,4.2297,0.0,0.0,4.195,4.0489,4.172,4.2758,4.2893,4.3028,4.3374,4.4066,4.422,4.4624,4.5355,4.5528,4.5528,4.5393,4.5528,4.5586,4.5586,4.6336,4.6336,4.5605,4.7048,4.6971,4.5605,4.6355,4.6297,4.5586,4.5586,4.5586,4.5586,4.5586,4.5682,4.5778,4.5643,4.5682,4.5778,4.5643,4.5586,4.5568,5.3683,5.3463,5.3335,5.3702,5.3463,5.3206,5.3206,5.3206,5.2913,5.2105,5.1555,5.0875,4.9921,4.8912,4.8306,4.8306,4.8306,4.8306,4.8306,4.8421,4.8532,4.8532,4.8676,4.8832,4.9015,4.8065,4.6993,4.589,4.5268,4.4627,4.4027,4.3298,4.3247,4.3724,4.3082,4.2781,4.2762,4.3069,4.2723,4.2001,4.2389,4.2352,4.2095,4.2176,4.2202,4.2087,4.1246,4.096,4.0883,4.0478,4.0379,4.0449,4.0479,4.0819,4.1104,4.0642,4.172,4.3201,4.3701,4.4412,4.4913,4.4528,4.472,4.4893,4.4528,4.4451,4.4451,4.4451,4.4739,4.4989,4.4989,4.4624,4.4297,4.4297,4.3624,0.0,0.0,4.2585,4.2951,4.2585,4.3258,4.3932,4.4393,4.4451,4.4605,4.497,4.4989,4.5182,4.5566,4.5586,4.5817,4.6297,4.6297,4.6297,4.6297,4.7124,4.7336,4.6951,4.774,4.7471,4.6317,4.6721,4.6413,4.5586,4.5586,4.5874,4.6259,4.5778,4.5874,4.624,4.5778,4.5586,4.5586,4.5586,4.5586,4.5586,5.3206,5.3206,5.3206,5.3206,5.3206,5.3206,5.3206,5.3206,5.2913,5.2105,5.1775,5.1169,5.0031,4.8948,4.8306,4.8306,4.8306,4.8306,4.8306,4.8306,4.8306,4.8306,4.8306,4.8439,4.8694,4.817,4.735,4.6283,4.5705,4.5076,4.4436,4.3445,4.3469,4.4345,4.3714,4.3425,4.3417,4.412,4.37,4.2629,4.3191,4.3023,4.2528,4.2933,4.308,4.2966,4.2106,4.18,4.1724,4.1092,4.0936,4.0991,4.1061,4.1553,4.197,4.1296,4.2181,4.3662,4.4951,4.5451,4.5586,4.5586,4.5586,4.5586,4.5586,4.5586,4.5586,4.5586,4.5586,4.5586,4.5586,4.4893,4.4374,4.4566,0.0,0.0,0.0,4.3547,4.3835,4.4239,4.447,4.4874,4.5528,4.5586,4.5586,4.5586,4.5778,4.5893,4.5893,4.5893,4.6201,4.6894,4.7086,4.7182,4.7182,4.799,4.8298,4.8105,4.8317,4.7875,4.6913,4.6913,4.6413,4.5586,4.5586,4.597,4.6547,4.5819,4.5935,4.6528,4.5782,4.555,4.5586,4.5586,4.5586,4.5586,5.3206,5.3206,5.3206,5.3206,5.3206,5.3206,5.3206,5.3206,5.2913,5.2105,5.1775,5.1096,4.9756,4.882,4.8306,4.8306,4.8306,4.8306,4.8306,4.8306,4.8306,4.8306,4.8306,4.8306,4.8344,4.7592,4.6783,4.592,4.5199,4.4587,4.4058,4.4279,4.4448,4.4581,4.4649,4.4403,4.3953,4.3992,4.3791,4.3456,4.408,4.4271,4.4202,4.3977,4.3921,4.3825,4.2985,4.2698,4.2698,4.2642,4.266,4.2734,4.2789,4.2898,4.2989,4.2931,4.3528,4.4239,4.4355,4.4989,4.5586,4.5586,4.5586,4.5586,4.5586,4.5586,4.5586,4.5586,4.5586,4.5586,4.5586,4.4893,4.4566,4.5355,0.0,0.0,4.4201,4.4913,4.5143,4.4393,4.5009,4.5528,4.5586,4.5586,4.5586,4.5586,4.6355,4.6797,4.6797,4.6797,4.6836,4.6913,4.7625,4.8009,4.8009,4.8875,4.8894,4.8105,4.8913,4.8452,4.6913,4.6913,4.6413,4.5586,4.5586,4.5624,4.5682,4.5341,4.54,4.5645,4.5341,4.5362,4.5586,4.5586,4.5586,4.5568,5.3206,5.3206,5.3206,5.3206,5.3206,5.3206,5.3206,5.3206,5.3096,5.2784,5.1793,5.0912,5.0398,4.9132,4.8306,4.8306,4.8306,4.8306,4.8306,4.8306,4.8306,4.8306,4.8306,4.8306,4.8306,4.8012,4.7462,4.6654,4.5865,4.5244,4.4743,4.436,4.4308,4.4546,4.4599,4.4383,4.398,4.3986,4.3814,4.3548,4.4173,4.4383,4.4447,4.4703,4.4819,4.4704,4.3864,4.3539,4.3482,4.2967,4.2508,4.2237,4.2772,4.3015,4.3201,4.3701,4.4066,4.4297,4.4297,4.4932,4.5586,4.5586,4.5586,4.5586,4.5586,4.5586,4.5586,4.5586,4.5586,4.5586,4.5586,4.5316,4.5201,4.5547,0.0,4.5105,4.5105,4.5855,4.6278,4.5951,4.6644,4.7144,4.7144,4.7144,4.7144,4.7144,4.7471,4.7644,4.7644,4.8163,4.8202,4.7663,4.899,4.9452,4.8913,4.976,5.0029,4.9721,5.0048,4.9317,4.7644,4.7644,4.6894,4.5586,4.5586,4.5913,4.6337,4.5533,4.5668,4.6337,4.5513,4.5362,4.5586,4.5586,4.5586,4.5586,5.3206,5.3206,5.3206,5.3206,5.3206,5.3206,5.3206,5.3206,5.3115,5.2858,5.1499,5.0508,5.0398,4.915,4.8306,4.8306,4.7994,4.7939,4.8288,4.8306,4.8306,4.8306,4.8306,4.8306,4.8306,4.8306,4.7921,4.7113,4.6287,4.5621,4.5022,4.4333,4.4065,4.4184,4.4289,4.4311,4.4198,4.3957,4.3863,4.3915,4.4266,4.4383,4.4438,4.4953,4.5213,4.522,4.4505,4.4102,4.3778,4.3226,4.2564,4.2049,4.2604,4.3098,4.3585,4.4143,4.4489,4.4701,4.4701,4.5143,4.5586,4.5586,4.5586,4.5586,4.5586,4.5586,4.5682,4.5951,4.6009,4.6086,4.6299,4.6163,4.6086,4.6318,4.6163,4.6105,4.6355,4.6894,4.7278,4.7278,4.7759,4.8105,4.8105,4.8105,4.8105,4.8105,4.8355,4.8509,4.8509,4.9336,4.9413,4.8548,4.9663,4.999,4.9413,5.026,5.0702,5.0702,5.0414,4.951,4.8086,4.7836,4.6951,4.5586,4.5586,4.5932,4.6414,4.5571,4.5706,4.6414,4.5532,4.5362,4.5586,4.5586,4.5586,4.5624,5.3206,5.3206,5.3206,5.3206,5.3206,5.3206,5.3206,5.3206,5.2913,5.2087,5.082,4.9866,4.9517,4.8783,4.8306,4.8306,4.7333,4.7168,4.8233,4.8306,4.8306,4.8306,4.8306,4.8306,4.8306,4.8306,4.7921,4.7113,4.6287,4.5498,4.469,4.4235,4.3814,4.3532,4.3846,4.4276,4.4672,4.3846,4.3975,4.4687,4.4479,4.4402,4.443,4.4701,4.5,4.5256,4.491,4.4289,4.3615,4.3615,4.3114,4.2498,4.2498,4.3331,4.4297,4.4297,4.4913,4.5586,4.5586,4.5586,4.5605,4.5586,4.5605,4.5605,4.5586,4.5586,4.5855,4.6721,4.6913,4.7125,4.7857,4.7395,4.7145,4.7876,4.7395,4.7201,4.799,4.8105,4.8105,4.8105,4.8125,4.8125,4.8125,4.8125,4.8125,4.8125,4.8913,4.9394,4.9394,5.0221,5.0298,4.9413,4.9394,4.9413,4.9394,5.026,5.0683,5.0664,4.9817,4.8952,4.8086,4.7278,4.6432,4.5605,4.5586,4.5586,4.5568,4.5302,4.5342,4.5568,4.5302,4.5362,4.5586,4.5586,4.5605,4.572,5.3206,5.3206,5.3206,5.3206,5.3206,5.3206,5.3206,5.3206,5.2858,5.1848,5.0729,4.9664,4.8765,4.8453,4.8306,4.8306,4.8012,4.7957,4.8288,4.8306,4.8306,4.8306,4.8306,4.8306,4.8306,4.8306,4.7921,4.7113,4.6287,4.5498,4.469,4.3968,4.3894,4.4342,4.4446,4.4888,4.5498,4.469,4.4488,4.4671,4.4271,4.4121,4.4207,4.504,4.5055,4.4794,4.5838,4.5697,4.4907,4.435,4.3799,4.318,4.2297,4.3056,4.4297,4.4297,4.4913,4.5586,4.5586,4.6047,4.6374,4.574,4.6067,4.6355,4.5685,4.6049,4.6568,4.6781,4.6839,4.7069,4.7857,4.7838,4.7742,4.7953,4.7857,4.7836,4.8067,4.8625,4.9009,4.9009,4.9548,4.9913,4.9913,4.9913,4.9913,4.9913,5.0164,4.9779,4.8548,4.9894,5.001,4.8529,4.9663,5.001,4.9413,4.9663,4.9779,4.9779,5.0144,4.9856,4.8971,4.8125,4.7298,4.649,4.5874,4.5495,4.5302,4.503,4.5074,4.5302,4.503,4.5201,4.5568,4.54,4.5666,4.6202,5.3151,5.2949,5.2839,5.3151,5.2949,5.2729,5.2729,5.2472,5.1903,5.093,5.0527,4.9811,4.8453,4.8618,4.8673,4.8343,4.8306,4.8159,4.7865,4.8122,4.8159,4.7847,4.8141,4.8306,4.8306,4.8306,4.8067,4.759,4.6783,4.614,4.5645,4.4819,4.4709,4.5168,4.4856,4.5149,4.5828,4.4709,4.4415,4.4671,4.4179,4.4005,4.4073,4.4722,4.4945,4.4993,4.584,4.566,4.4894,4.4418,4.3487,4.2519,4.237,4.3008,4.3893,4.4201,4.4913,4.5682,4.6009,4.6509,4.6855,4.6644,4.699,4.7222,4.6627,4.6935,4.7434,4.7722,4.778,4.799,4.8835,4.87,4.8585,4.8931,4.8759,4.8702,4.9086,4.9586,4.9913,4.9913,5.0067,5.0183,5.0183,4.9875,4.9663,4.9663,4.999,4.9721,4.8663,4.9606,4.9856,4.9144,4.9471,4.9586,4.9394,4.9394,4.9567,4.9913,5.0452,5.0048,4.8875,4.8336,4.7471,4.6355,4.5817,4.563,4.5638,4.5163,4.5433,4.6097,4.5278,4.5369,4.588,4.5397,4.5652,4.6306,5.3041,5.2491,5.216,5.3059,5.2527,5.1995,5.1995,5.1371,5.0582,4.9701,5.0251,5.0105,4.8489,4.9003,4.915,4.8379,4.8306,4.7994,4.7278,4.7902,4.7976,4.726,4.7921,4.8306,4.8306,4.8306,4.8233,4.8104,4.7425,4.7076,4.7003,4.625,4.5938,4.5975,4.5241,4.5333,4.5902,4.436,4.4103,4.4671,4.4147,4.3974,4.3974,4.4016,4.4668,4.5496,4.5332,4.4777,4.4159,4.4073,4.2642,4.1161,4.2621,4.3201,4.3451,4.4105,4.5009,4.5951,4.6605,4.6894,4.7182,4.7836,4.8048,4.8087,4.801,4.8068,4.8337,4.9123,4.9236,4.9465,5.0347,4.9827,4.9559,5.0366,4.9869,4.97,5.0587,5.0625,5.0567,5.0567,4.9798,4.9279,4.9279,4.8644,4.8221,4.8221,4.9086,4.9625,4.9625,4.9702,5.0067,5.0779,4.9279,4.8817,4.9625,4.9625,4.9952,5.0567,5.0644,4.9875,4.8336,4.8259,4.7336,4.5817,4.574,4.5956,4.6301,4.5655,4.6285,4.7525,4.6056,4.5944,4.65,4.5696,4.5726,4.6315,5.3041,5.205,5.1518,5.2968,5.2527,5.1995,5.1995,5.1848,5.1206,4.9774,4.9921,4.9701,4.8453,4.8471,4.8508,4.8324,4.8306,4.8233,4.8067,4.8214,4.8233,4.8067,4.8214,4.8306,4.8306,4.8306,4.7682,4.6416,4.6893,4.6801,4.6159,4.5975,4.625,4.6838,4.6673,4.6691,4.6801,4.5792,4.5131,4.4635,4.3913,4.3615,4.3689,4.4299,4.4699,4.4955,4.553,4.5624,4.5379,4.4573,4.3198,4.1959,4.2776,4.3955,4.4951,4.4451,4.5855,4.7317,4.6182,4.6836,4.774,4.7278,4.7625,4.8087,4.8009,4.8528,4.9066,4.9199,4.9175,4.9382,5.0327,5.0172,5.0045,5.044,5.0224,5.0189,5.0625,5.0106,4.9683,4.9683,4.8913,4.8375,4.8375,4.8836,4.9125,4.9125,5.051,5.1375,5.1375,5.201,5.2145,5.1664,5.1279,5.1183,5.1375,5.1375,5.0798,4.9683,5.0356,5.0491,5.0106,4.9433,4.8548,4.7528,4.6894,4.6433,4.612,4.6651,4.7049,4.7397,4.7682,4.7634,4.7395,4.6977,4.7178,4.7924,5.1977,5.1077,5.06,5.1848,5.172,5.1298,5.0894,5.0839,5.038,4.9132,4.9572,4.9572,4.8416,4.9022,4.9169,4.8379,4.8306,4.8306,4.8306,4.8306,4.8141,4.7755,4.8104,4.7939,4.7168,4.7921,4.7902,4.704,4.748,4.7462,4.704,4.704,4.7278,4.7682,4.7297,4.6911,4.6471,4.5681,4.4856,4.4085,4.3663,4.3497,4.3534,4.3975,4.4378,4.4764,4.5186,4.5333,4.5219,4.4475,4.352,4.2843,4.3727,4.446,4.497,4.4932,4.6163,4.7336,4.6451,4.7144,4.8009,4.7586,4.7798,4.8087,4.8029,4.8355,4.8662,4.8624,4.856,4.8608,4.9006,4.8943,4.8846,4.8881,4.8948,4.9083,4.9235,4.899,4.8933,4.9356,4.8298,4.7528,4.7528,4.8298,4.8952,4.9375,5.0606,5.151,5.1895,5.2337,5.2568,5.2529,5.2125,5.2106,5.2529,5.2529,5.2087,5.1202,5.126,5.0856,5.0048,4.9606,4.8721,4.7528,4.749,4.7157,4.6644,4.7105,4.7768,4.8431,4.7937,4.792,4.8047,4.7348,4.7454,4.8231,5.0765,5.0031,4.9664,5.0637,5.0802,5.0527,4.9701,4.9701,4.9426,4.8434,4.9132,4.9352,4.8416,4.9554,4.9811,4.8416,4.8306,4.8306,4.8306,4.8306,4.8012,4.7352,4.7957,4.7682,4.6342,4.7627,4.8177,4.7902,4.8031,4.8031,4.7902,4.7902,4.7902,4.7884,4.7352,4.6654,4.5865,4.5333,4.4654,4.3883,4.3754,4.3699,4.3681,4.3534,4.3993,4.469,4.4544,4.4488,4.4448,4.4166,4.384,4.3706,4.4801,4.4959,4.4855,4.5432,4.6317,4.7048,4.6759,4.7278,4.7855,4.7721,4.7663,4.7645,4.7588,4.7799,4.7989,4.799,4.7848,4.7694,4.7524,4.7422,4.7352,4.7394,4.7656,4.7942,4.8168,4.8298,4.8586,4.9317,4.8163,4.7394,4.7528,4.8279,4.9106,4.9971,5.0856,5.1702,5.251,5.2549,5.2876,5.3606,5.2799,5.276,5.3626,5.3491,5.3414,5.3414,5.2702,5.1548,5.0048,5.0048,4.9202,4.7798,4.8471,4.8362,4.7749,4.7863,4.8666,4.9644,4.8183,4.8126,4.8757,4.7843,4.7791,4.8426,5.0655,4.9554,4.8967,5.0527,5.0802,5.0527,4.9701,5.0178,5.0086,4.8508,4.8434,4.8471,4.8324,4.8508,4.8563,4.8324,4.8306,4.8306,4.8306,4.8306,4.8251,4.8141,4.8251,4.8214,4.7994,4.8196,4.7627,4.6214,4.6929,4.6929,4.6214,4.6214,4.6214,4.625,4.6856,4.6654,4.5938,4.6544,4.6324,4.5516,4.4819,4.4544,4.447,4.3754,4.3993,4.4617,4.3901,4.3644,4.371,4.4192,4.439,4.4531,4.5163,4.5918,4.6432,4.5778,4.6701,4.7625,4.6163,4.6413,4.6874,4.6124,4.5932,4.5932,4.5932,4.6992,4.7971,4.7928,4.7655,4.7452,4.7409,4.7089,4.7212,4.8397,4.853,4.8895,5.0123,4.9683,4.926,4.9394,4.9202,4.9356,5.0106,5.0914,5.176,5.2626,5.3491,5.4337,5.5145,5.5184,5.5241,5.5357,5.4568,5.453,5.5357,5.4664,5.4318,5.4318,5.4203,5.3626,5.2683,5.2683,5.2164,5.1241,5.1356,5.0661,4.9519,5.0193,5.022,4.9841,5.0279,5.0252,4.9992,5.0078,4.9978,4.993,4.9426,4.882,4.8526,4.9279,4.9811,4.9848,4.9003,4.9719,4.9866,4.8489,4.8306,4.8306,4.8306,4.8306,4.8306,4.8306,4.8306,4.8306,4.8306,4.8306,4.8306,4.8306,4.8306,4.8306,4.8306,4.8306,4.7517,4.5902,4.6728,4.6709,4.5902,4.5902,4.5902,4.5938,4.6746,4.6416,4.5278,4.6104,4.5718,4.4525,4.4176,4.403,4.3993,4.3626,4.3718,4.3975,4.3626,4.3497,4.3548,4.3809,4.4184,4.4599,4.4806,4.5449,4.605,4.5666,4.634,4.6973,4.5895,4.6128,4.6513,4.578,4.5457,4.5322,4.5263,4.6053,4.671,4.6445,4.618,4.5924,4.5666,4.5434,4.5765,4.714,4.7645,4.8435,4.9983,5.0176,5.0125,5.0125,5.0952,5.1491,5.1375,5.2125,5.2991,5.3857,5.428,5.4857,5.5665,5.5703,5.5703,5.5703,5.5357,5.5126,5.503,5.4684,5.426,5.378,5.378,5.3318,5.2472,5.2472,5.2029,5.1241,5.1702,5.1188,5.0133,5.1447,5.1218,5.007,5.0582,5.0519,5.0289,5.1338,5.1039,5.0228]},{"header":{"parameterUnit":"m.s-1","parameterCategory":1,"la1":30.6,"la2":28.766,"lo1":-90.7593,"lo2":-88.6598,"dy":0.0162,"dx":0.0183,"nx":116,"ny":114,"refTime":"2023-10-16T18:00:00:Z","depth":0,"parameterNumber":3,"parameterNumberName":"V-component_of_WINDS"},"data":[0.0,0.0,0.0,0.0,0.0,0.0,0.0,0.0,0.0,0.0,0.0,0.0,0.0,0.0,0.0,0.0,0.0,0.0,0.0,0.0,0.0,0.0,0.0,0.0,0.0,0.0,0.0,0.0,0.0,0.0,0.0,0.0,0.0,0.0,0.0,0.0,0.0,0.0,0.0,0.0,0.0,0.0,0.0,0.0,0.0,0.0,0.0,0.0,0.0,0.0,0.0,0.0,0.0,0.0,0.0,0.0,0.0,0.0,0.0,0.0,0.0,0.0,0.0,0.0,0.0,0.0,0.0,0.0,0.0,0.0,0.0,0.0,0.0,0.0,0.0,0.0,0.0,0.0,0.0,0.0,0.0,0.0,0.0,0.0,0.0,0.0,0.0,0.0,0.0,0.0,0.0,0.0,0.0,0.0,0.0,0.0,0.0,0.0,0.0,0.0,0.0,0.0,0.0,0.0,0.0,0.0,0.0,0.0,0.0,0.0,0.0,0.0,0.0,0.0,0.0,0.0,0.0,0.0,0.0,0.0,0.0,0.0,0.0,0.0,0.0,0.0,0.0,0.0,0.0,0.0,0.0,0.0,0.0,0.0,0.0,0.0,0.0,0.0,0.0,0.0,0.0,0.0,0.0,0.0,0.0,0.0,0.0,0.0,0.0,0.0,0.0,0.0,0.0,0.0,0.0,0.0,0.0,0.0,0.0,0.0,0.0,0.0,0.0,0.0,0.0,0.0,0.0,0.0,0.0,0.0,0.0,0.0,0.0,0.0,0.0,0.0,0.0,0.0,0.0,0.0,0.0,0.0,0.0,0.0,0.0,0.0,0.0,0.0,0.0,0.0,0.0,0.0,0.0,0.0,0.0,0.0,0.0,0.0,0.0,0.0,0.0,0.0,0.0,0.0,0.0,0.0,0.0,0.0,0.0,0.0,0.0,0.0,0.0,0.0,0.0,0.0,0.0,0.0,0.0,0.0,0.0,0.0,0.0,0.0,0.0,0.0,0.0,0.0,0.0,0.0,0.0,0.0,0.0,0.0,0.0,0.0,0.0,0.0,0.0,0.0,0.0,0.0,0.0,0.0,0.0,0.0,0.0,0.0,0.0,0.0,0.0,0.0,0.0,0.0,0.0,0.0,0.0,0.0,0.0,0.0,0.0,0.0,0.0,0.0,0.0,0.0,0.0,0.0,0.0,0.0,0.0,0.0,0.0,0.0,0.0,0.0,0.0,0.0,0.0,0.0,0.0,0.0,0.0,0.0,0.0,0.0,0.0,0.0,0.0,0.0,0.0,0.0,0.0,0.0,0.0,0.0,0.0,0.0,0.0,0.0,0.0,0.0,0.0,0.0,0.0,0.0,0.0,0.0,0.0,0.0,0.0,0.0,0.0,0.0,0.0,0.0,0.0,0.0,0.0,0.0,0.0,0.0,0.0,0.0,0.0,0.0,0.0,0.0,0.0,0.0,0.0,0.0,0.0,0.0,0.0,0.0,0.0,0.0,0.0,0.0,0.0,0.0,0.0,0.0,0.0,0.0,0.0,0.0,0.0,0.0,0.0,0.0,0.0,0.0,0.0,0.0,0.0,0.0,0.0,0.0,0.0,0.0,0.0,0.0,0.0,0.0,0.0,0.0,0.0,0.0,0.0,0.0,0.0,0.0,0.0,0.0,0.0,0.0,0.0,0.0,0.0,0.0,0.0,0.0,0.0,0.0,0.0,0.0,0.0,0.0,0.0,0.0,0.0,0.0,0.0,0.0,0.0,0.0,0.0,0.0,0.0,0.0,0.0,0.0,0.0,0.0,0.0,0.0,0.0,0.0,0.0,0.0,0.0,0.0,0.0,0.0,0.0,0.0,0.0,0.0,0.0,0.0,0.0,0.0,0.0,0.0,0.0,0.0,0.0,0.0,0.0,0.0,0.0,0.0,0.0,0.0,0.0,0.0,0.0,0.0,0.0,0.0,0.0,0.0,0.0,0.0,0.0,0.0,0.0,0.0,0.0,0.0,0.0,0.0,0.0,0.0,0.0,0.0,0.0,0.0,0.0,0.0,0.0,0.0,0.0,0.0,0.0,0.0,0.0,0.0,0.0,0.0,0.0,0.0,0.0,0.0,0.0,0.0,0.0,0.0,0.0,0.0,0.0,0.0,0.0,0.0,0.0,0.0,0.0,0.0,0.0,0.0,0.0,0.0,0.0,0.0,0.0,0.0,0.0,0.0,0.0,0.0,0.0,0.0,0.0,0.0,0.0,0.0,0.0,0.0,0.0,0.0,0.0,0.0,0.0,0.0,0.0,0.0,0.0,0.0,0.0,0.0,0.0,0.0,0.0,0.0,0.0,0.0,0.0,0.0,0.0,0.0,0.0,0.0,0.0,0.0,0.0,0.0,0.0,0.0,0.0,0.0,0.0,0.0,0.0,0.0,0.0,0.0,0.0,0.0,0.0,0.0,0.0,0.0,0.0,0.0,0.0,0.0,0.0,0.0,0.0,0.0,0.0,0.0,0.0,0.0,0.0,0.0,0.0,0.0,0.0,0.0,0.0,0.0,0.0,0.0,0.0,0.0,0.0,0.0,0.0,0.0,0.0,0.0,0.0,0.0,0.0,0.0,0.0,0.0,0.0,0.0,0.0,0.0,0.0,0.0,0.0,0.0,0.0,0.0,0.0,0.0,0.0,0.0,0.0,0.0,0.0,0.0,0.0,0.0,0.0,0.0,0.0,0.0,0.0,0.0,0.0,0.0,0.0,0.0,0.0,0.0,0.0,0.0,0.0,0.0,0.0,0.0,0.0,0.0,0.0,0.0,0.0,0.0,0.0,0.0,0.0,0.0,0.0,0.0,0.0,0.0,0.0,0.0,0.0,0.0,0.0,0.0,0.0,0.0,0.0,0.0,0.0,0.0,0.0,0.0,0.0,0.0,0.0,0.0,0.0,0.0,0.0,0.0,0.0,0.0,0.0,0.0,0.0,0.0,0.0,0.0,0.0,0.0,0.0,0.0,0.0,0.0,0.0,0.0,0.0,0.0,0.0,0.0,0.0,0.0,0.0,0.0,0.0,0.0,0.0,0.0,0.0,0.0,0.0,0.0,0.0,0.0,0.0,0.0,0.0,0.0,0.0,0.0,0.0,0.0,0.0,0.0,0.0,0.0,0.0,0.0,0.0,0.0,0.0,0.0,0.0,0.0,0.0,0.0,0.0,0.0,0.0,0.0,0.0,0.0,0.0,0.0,0.0,0.0,0.0,0.0,0.0,0.0,0.0,0.0,0.0,0.0,0.0,0.0,0.0,0.0,0.0,0.0,0.0,0.0,0.0,0.0,0.0,0.0,0.0,0.0,0.0,0.0,0.0,0.0,0.0,0.0,0.0,0.0,0.0,0.0,0.0,0.0,0.0,0.0,0.0,0.0,0.0,0.0,0.0,0.0,0.0,0.0,0.0,0.0,0.0,0.0,0.0,0.0,0.0,0.0,0.0,0.0,0.0,0.0,0.0,0.0,0.0,0.0,0.0,0.0,0.0,0.0,0.0,0.0,0.0,0.0,0.0,0.0,0.0,0.0,0.0,0.0,0.0,0.0,0.0,0.0,0.0,0.0,0.0,0.0,0.0,0.0,0.0,0.0,0.0,0.0,0.0,0.0,0.0,0.0,0.0,0.0,0.0,0.0,0.0,0.0,0.0,0.0,0.0,0.0,0.0,0.0,0.0,0.0,0.0,0.0,0.0,0.0,0.0,0.0,0.0,0.0,0.0,0.0,0.0,0.0,0.0,0.0,0.0,0.0,0.0,0.0,0.0,0.0,0.0,0.0,0.0,0.0,0.0,0.0,0.0,0.0,0.0,0.0,0.0,0.0,0.0,0.0,0.0,0.0,0.0,0.0,0.0,0.0,0.0,0.0,0.0,0.0,0.0,0.0,0.0,0.0,0.0,0.0,0.0,0.0,0.0,0.0,0.0,0.0,0.0,0.0,0.0,0.0,0.0,0.0,0.0,0.0,0.0,0.0,0.0,0.0,0.0,0.0,0.0,0.0,0.0,0.0,0.0,0.0,0.0,0.0,0.0,0.0,0.0,0.0,0.0,0.0,0.0,0.0,0.0,0.0,0.0,0.0,0.0,0.0,0.0,0.0,0.0,0.0,0.0,0.0,0.0,0.0,0.0,0.0,0.0,0.0,0.0,0.0,0.0,0.0,0.0,0.0,0.0,0.0,0.0,0.0,0.0,0.0,0.0,0.0,0.0,0.0,0.0,0.0,0.0,0.0,0.0,0.0,0.0,0.0,0.0,0.0,0.0,0.0,0.0,0.0,0.0,0.0,0.0,0.0,0.0,0.0,0.0,0.0,0.0,0.0,0.0,0.0,0.0,0.0,0.0,0.0,0.0,0.0,0.0,0.0,0.0,0.0,0.0,0.0,0.0,0.0,0.0,0.0,0.0,0.0,0.0,0.0,0.0,0.0,0.0,0.0,0.0,0.0,0.0,0.0,0.0,0.0,0.0,0.0,0.0,0.0,0.0,0.0,0.0,0.0,0.0,0.0,0.0,0.0,0.0,0.0,0.0,0.0,0.0,0.0,0.0,0.0,0.0,0.0,0.0,0.0,0.0,0.0,0.0,0.0,0.0,0.0,0.0,0.0,0.0,0.0,0.0,0.0,0.0,0.0,0.0,0.0,0.0,0.0,0.0,0.0,0.0,0.0,0.0,0.0,0.0,0.0,0.0,0.0,0.0,0.0,0.0,0.0,0.0,0.0,0.0,0.0,0.0,0.0,0.0,0.0,0.0,0.0,0.0,0.0,0.0,0.0,0.0,0.0,0.0,0.0,0.0,0.0,0.0,0.0,0.0,0.0,0.0,0.0,0.0,0.0,0.0,0.0,0.0,0.0,0.0,0.0,0.0,0.0,0.0,0.0,0.0,0.0,0.0,0.0,0.0,0.0,0.0,0.0,0.0,0.0,0.0,0.0,0.0,0.0,0.0,0.0,0.0,0.0,0.0,0.0,0.0,0.0,0.0,0.0,0.0,0.0,0.0,0.0,0.0,0.0,0.0,0.0,0.0,0.0,0.0,0.0,0.0,0.0,0.0,0.0,0.0,0.0,0.0,0.0,0.0,0.0,0.0,0.0,0.0,0.0,0.0,0.0,0.0,0.0,0.0,0.0,0.0,0.0,0.0,0.0,0.0,0.0,0.0,0.0,0.0,0.0,0.0,0.0,0.0,0.0,0.0,0.0,0.0,0.0,0.0,0.0,0.0,0.0,0.0,0.0,0.0,0.0,0.0,0.0,0.0,0.0,0.0,0.0,0.0,0.0,0.0,0.0,0.0,0.0,0.0,0.0,0.0,0.0,0.0,0.0,0.0,0.0,0.0,0.0,0.0,0.0,0.0,0.0,0.0,0.0,0.0,0.0,0.0,0.0,0.0,0.0,0.0,0.0,0.0,0.0,0.0,0.0,0.0,0.0,0.0,0.0,0.0,0.0,0.0,0.0,0.0,0.0,0.0,0.0,0.0,0.0,0.0,0.0,0.0,0.0,0.0,0.0,0.0,0.0,0.0,0.0,0.0,0.0,0.0,0.0,0.0,0.0,0.0,0.0,0.0,0.0,0.0,0.0,0.0,0.0,0.0,0.0,0.0,0.0,0.0,0.0,0.0,0.0,0.0,0.0,0.0,0.0,0.0,0.0,0.0,0.0,0.0,0.0,0.0,0.0,0.0,0.0,0.0,0.0,0.0,0.0,0.0,0.0,0.0,0.0,0.0,0.0,0.0,0.0,0.0,0.0,0.0,0.0,0.0,0.0,0.0,0.0,0.0,0.0,0.0,0.0,0.0,0.0,0.0,0.0,0.0,0.0,0.0,0.0,0.0,0.0,0.0,0.0,0.0,0.0,0.0,0.0,0.0,0.0,0.0,0.0,0.0,0.0,0.0,0.0,0.0,0.0,0.0,0.0,0.0,0.0,0.0,0.0,0.0,0.0,0.0,0.0,0.0,0.0,0.0,0.0,0.0,0.0,0.0,0.0,0.0,0.0,0.0,0.0,0.0,0.0,0.0,0.0,0.0,0.0,0.0,0.0,0.0,0.0,0.0,0.0,0.0,0.0,0.0,0.0,0.0,0.0,0.0,0.0,0.6116,0.0,0.0,0.0,0.0,0.0,0.0,0.0,0.0,0.0,0.0,0.0,0.0,0.0,0.0,0.0,0.0,0.0,0.0,0.0,0.0,0.0,0.0,0.0,0.0,0.0,0.0,0.0,0.0,0.0,0.0,0.0,0.0,0.0,0.0,0.0,0.0,0.0,0.0,0.0,0.0,0.0,0.0,0.0,0.0,0.0,0.0,0.0,0.0,0.0,0.0,0.0,0.0,0.0,0.0,0.0,0.0,0.0,0.0,0.0,0.0,0.0,0.0,0.0,0.0,0.0,0.0,0.0,0.0,0.0,0.0,0.0,0.0,0.0,0.0,0.0,0.0,0.0,0.0,0.0,0.0,0.0,0.0,0.0,0.0,0.0,0.0,0.0,0.0,0.0,0.0,0.0,0.0,0.0,0.0,0.0,0.0,0.0,0.0,0.0,0.0,0.0,0.0,0.0,0.0,0.0,0.0,0.0,0.0,0.0,0.0,0.0,0.0,0.0,0.0,0.0,0.0,0.7254,0.0,0.0,0.0,0.0,0.0,0.0,0.0,0.0,0.0,0.0,0.0,0.0,0.0,0.0,0.0,0.0,0.0,0.0,0.0,0.0,0.0,0.0,0.0,0.0,0.0,0.0,0.0,0.0,0.0,0.0,0.0,0.0,0.0,0.0,0.0,0.0,0.0,0.0,0.0,0.0,0.0,0.0,0.0,0.0,0.0,0.0,0.0,0.0,0.0,0.0,0.0,0.0,0.0,0.0,0.0,0.0,0.0,0.0,0.0,0.0,0.0,0.0,0.0,0.0,0.0,0.0,0.0,0.0,0.0,0.0,0.0,0.0,0.0,0.0,0.0,0.0,0.0,0.0,0.0,0.0,0.0,0.0,0.0,0.0,0.0,0.0,0.0,0.0,0.0,0.0,0.0,0.0,0.0,0.0,0.0,0.0,0.0,0.0,0.0,0.0,0.0,0.0,0.0,0.0,0.0,0.0,0.0,0.0,0.0,0.0,1.0674,1.0648,1.0428,1.0073,0.9306,0.8652,0.8077,0.0,0.0,0.0,0.0,0.0,0.0,0.0,0.0,0.0,0.0,0.0,0.0,0.0,0.0,0.0,0.0,0.0,0.0,0.0,0.0,0.0,0.0,0.0,0.0,0.0,0.0,0.0,0.0,0.0,0.0,0.0,0.0,0.0,0.0,0.0,0.0,0.0,0.0,0.0,0.0,0.0,0.0,0.0,0.0,0.0,0.0,0.0,0.0,0.0,0.0,0.0,0.0,0.0,0.0,0.0,0.0,0.0,0.0,0.0,0.0,0.0,0.0,0.0,0.0,0.0,0.0,0.0,0.0,0.0,0.0,0.0,0.0,0.0,0.0,0.0,0.0,0.0,0.0,0.0,0.0,0.0,0.0,0.0,0.0,0.0,0.0,0.0,0.4305,0.4038,0.0,0.0,0.0,0.0,0.0,0.0,0.0,0.0,0.0,0.0,0.0,0.0,0.0,0.0,0.8107,0.9268,0.9922,1.0213,1.0984,1.1206,1.1005,1.1579,1.1569,1.1117,1.121,0.0,0.9783,0.9111,0.0,0.0,0.0,0.0,0.0,0.0,0.0,0.0,0.0,0.0,0.0,0.0,0.0,0.0,0.0,0.0,0.0,0.0,0.0,0.0,0.0,0.0,0.0,0.0,0.0,0.0,0.0,0.0,0.0,0.0,0.0,0.0,0.0,0.0,0.0,0.0,0.0,0.0,0.0,0.0,0.0,0.0,0.0,0.0,0.0,0.0,0.0,0.0,0.0,0.0,0.0,0.0,0.0,0.0,0.0,0.0,0.0,0.0,0.0,0.0,0.0,0.0,0.0,0.0,0.0,0.0,0.0,0.0,0.0,0.0,0.0,0.0,0.0,0.0,0.0,0.0,0.0,0.0,0.0,0.0,0.0,0.0,0.0,0.0,0.0,0.3672,0.4675,0.5234,0.5318,0.5339,0.0,0.0,0.0,0.0,0.0,0.0,0.0,0.0,0.0,0.7403,0.8373,0.9241,0.996,1.062,1.1158,1.1721,1.202,1.2097,1.2225,1.2422,1.248,1.2362,1.2498,1.2287,1.1855,1.0875,1.0315,1.0092,0.0,0.0,0.0,0.0,0.0,0.0,0.0,0.0,0.0,0.0,0.0,0.0,0.0,0.0,0.0,0.0,0.0,0.0,0.0,0.0,0.0,0.0,0.0,0.0,0.0,0.0,0.0,0.0,0.0,0.0,0.0,0.0,0.0,0.0,0.0,0.0,0.0,0.0,0.0,0.0,0.0,0.0,0.0,0.0,0.0,0.0,0.0,0.0,0.0,0.0,0.0,0.0,0.0,0.0,0.0,0.0,0.0,0.0,0.0,0.0,0.0,0.0,0.0,0.0,0.0,0.0,0.0,0.0,0.0,0.0,0.0,0.0,0.0,0.0,0.0,0.0,0.0,0.0,0.0,0.0,0.0,0.0,0.0,0.3972,0.5189,0.6075,0.6399,0.6535,0.0,0.0,0.0,0.0,0.0,0.0,0.7542,0.8125,0.8749,0.9408,1.0062,1.0832,1.1537,1.1697,1.2213,1.3108,1.2919,1.3061,1.3469,1.3432,1.341,1.3612,1.3624,1.3549,1.342,1.2397,1.1526,1.0937,1.0954,1.0785,0.0,0.9943,1.0121,1.0567,0.0,0.0,0.0,0.0,0.0,0.0,0.0,0.0,0.0,0.0,0.0,0.0,0.0,0.0,0.0,0.0,0.0,0.0,0.0,0.0,0.0,0.0,0.0,0.0,0.0,0.0,0.0,0.0,0.0,0.0,0.0,0.0,0.0,0.0,0.0,0.0,0.0,0.0,0.0,0.0,0.0,0.0,0.0,0.0,0.0,0.0,0.0,0.0,0.0,0.0,0.0,0.0,0.0,0.0,0.0,0.0,0.0,0.0,0.0,0.0,0.0,0.0,0.0,0.0,0.0,0.0,0.0,0.0,0.0,0.0,0.0,0.0,0.0,0.0,0.0,0.0,0.0,0.0,0.0,0.5697,0.7336,0.0,0.0,0.0,0.0,0.8147,0.8593,0.9399,1.0466,1.0778,1.1194,1.1908,1.2161,1.2506,1.2942,1.3041,1.3292,1.3801,1.414,1.4339,1.4654,1.4847,1.4813,1.4619,1.4584,1.4344,1.3935,1.3147,1.2802,1.2739,1.258,1.2626,1.2716,1.2457,1.2532,1.2733,0.0,0.0,0.0,0.0,0.0,0.0,0.0,0.0,0.0,0.0,0.0,0.0,0.0,0.0,0.0,0.0,0.0,0.0,0.0,0.0,0.0,0.0,0.0,0.0,0.0,0.0,0.0,0.0,0.0,0.0,0.0,0.0,0.0,0.0,0.0,0.0,0.0,0.0,0.0,0.0,0.0,0.0,0.0,0.0,0.0,0.0,0.0,0.0,0.0,0.0,0.0,0.0,0.0,0.0,0.0,0.0,0.0,0.0,0.0,0.0,0.0,0.0,0.0,0.0,0.0,0.0,0.0,0.0,0.0,0.0,0.0,0.0,0.0,0.0,0.0,0.0,0.0,0.0,0.0,0.6641,0.8171,0.0,0.0,0.9543,0.9722,1.0278,1.061,1.1034,1.1805,1.1855,1.2176,1.2699,1.2986,1.3308,1.3896,1.4014,1.4262,1.4645,1.4714,1.4854,1.4876,1.4973,1.5074,1.5188,1.5223,1.5235,1.5237,1.4957,1.4242,1.3366,1.3636,1.3619,1.3343,1.3251,1.3383,1.3601,0.0,0.0,0.0,0.0,0.0,0.0,0.0,0.0,0.0,0.0,0.0,0.0,0.0,0.0,0.0,0.0,0.0,0.0,0.0,0.0,0.0,0.0,0.0,0.0,0.0,0.0,0.0,0.0,0.0,0.0,0.0,0.0,0.0,0.0,0.0,0.0,0.0,0.0,0.0,0.0,0.0,0.0,0.6993,0.0,0.0,0.0,0.0,0.0,0.0,0.0,0.0,0.0,0.0,0.0,0.0,0.0,0.0,0.0,0.0,0.0,0.0,0.0,0.0,0.0,0.0,0.0,0.0,0.0,0.0,0.0,0.0,0.0,0.0,0.0,0.0,0.0,0.0,0.0,0.7256,0.8054,0.9544,1.0658,1.1071,1.1273,1.1519,1.1865,1.2117,1.246,1.2892,1.2948,1.323,1.3756,1.3877,1.4223,1.4843,1.4752,1.4922,1.5258,1.5171,1.5244,1.525,1.5345,1.5458,1.5583,1.5583,1.5791,1.5891,1.5891,1.5261,1.4448,1.4737,1.4696,1.433,1.433,1.4447,1.47,0.0,0.0,0.0,0.0,0.0,0.0,0.0,0.0,0.0,0.0,0.0,0.0,0.0,0.0,0.0,0.0,0.0,0.0,0.0,0.0,0.0,0.0,0.0,0.0,0.0,0.0,0.0,0.0,0.0,0.0,0.0,0.0,0.0,0.0,0.0,0.0,0.0,0.0,0.0,0.0,0.0,0.0,0.8304,0.0,0.0,0.0,0.0,0.0,0.0,0.0,0.0,0.0,0.0,0.0,0.0,0.0,0.0,0.0,0.0,0.0,0.0,0.0,0.0,0.0,0.0,0.0,0.0,0.0,0.0,0.0,0.0,0.0,0.0,0.0,0.0,0.0,0.5041,0.7384,0.9345,0.9717,1.137,1.2272,1.1847,1.2437,1.2813,1.2818,1.3243,1.3604,1.3836,1.4168,1.4601,1.4966,1.4994,1.5327,1.5778,1.5322,1.5319,1.5857,1.5605,1.569,1.5891,1.5891,1.5891,1.5891,1.5891,1.5891,1.5891,1.5891,1.5891,1.5891,1.5891,1.5891,1.5891,1.5891,1.5891,1.5891,0.0,0.0,0.0,0.0,0.0,0.0,0.0,0.0,0.0,0.0,0.0,0.0,0.0,0.0,0.0,0.0,0.0,0.0,0.0,0.0,0.0,0.0,0.0,0.0,0.0,0.0,0.0,0.0,0.0,0.0,0.0,0.0,0.0,0.0,0.0,0.0,0.0,0.0,0.0,0.0,0.0,0.0,0.8985,0.0,0.0,0.0,0.0,0.0,0.0,0.0,0.0,0.0,0.0,0.0,0.0,0.0,0.0,0.0,0.0,0.0,0.0,0.0,0.0,0.0,0.0,0.0,0.0,0.0,0.0,0.0,0.0,0.0,0.0,0.0,0.0,0.6476,0.6106,0.8479,1.0459,1.1101,1.2494,1.3405,1.3234,1.3615,1.3868,1.4035,1.4131,1.446,1.4959,1.5085,1.5248,1.5597,1.5856,1.6057,1.6127,1.5981,1.6071,1.6174,1.5911,1.5791,1.5891,1.5891,1.5891,1.5891,1.5891,1.5891,1.5891,1.5891,1.5891,1.5891,1.5891,1.5891,1.5891,1.5891,1.5891,1.5891,0.0,0.0,0.0,0.0,0.0,0.0,0.0,0.0,0.0,0.0,0.0,0.0,0.0,0.0,0.0,0.0,0.0,0.0,0.0,0.0,0.0,0.0,0.0,0.0,0.0,0.0,0.0,0.0,0.0,0.0,0.0,0.0,0.0,0.0,0.0,0.0,0.0,0.0,0.0,0.0,0.0,0.0,0.9906,0.9453,0.9137,0.8906,0.7941,0.7747,0.7873,0.6746,0.0,0.0,0.0,0.0,0.0,0.0,0.0,0.0,0.0,0.0,0.0,0.0,0.0,0.0,0.0,0.0,0.0,0.0,0.0,0.0,0.0,0.0,0.0,0.0,0.684,0.8371,0.8938,1.0545,1.2014,1.2784,1.3709,1.4266,1.4266,1.451,1.4746,1.4828,1.4977,1.5155,1.5524,1.5692,1.5942,1.6339,1.6389,1.6618,1.6952,1.6577,1.6504,1.6616,1.6356,1.6169,1.6054,1.6054,1.5994,0.0,1.5891,1.5891,1.5891,1.5891,1.5891,0.0,0.0,0.0,0.0,0.0,1.5891,1.5891,0.0,0.0,0.0,0.0,0.0,0.0,0.0,0.0,0.0,0.0,0.0,0.0,0.0,0.0,0.0,0.0,0.0,0.0,0.0,0.0,0.0,0.0,0.0,0.0,0.0,0.0,0.0,0.0,0.0,0.0,0.0,0.0,0.0,0.0,0.0,0.0,0.0,0.0,0.0,0.0,0.0,0.0,1.1139,1.0889,1.1089,1.1322,1.0138,0.975,0.9701,0.8549,0.0,0.0,0.0,0.0,0.0,0.0,0.0,0.0,0.0,0.0,0.0,0.0,0.0,0.0,0.0,0.0,0.0,0.0,0.0,0.0,0.0,0.0,0.0,0.0,0.8479,1.0259,1.2077,1.2935,1.3619,1.442,1.4756,1.4885,1.4999,1.523,1.5423,1.5451,1.5789,1.5932,1.5873,0.0,0.0,0.0,0.0,1.7131,1.7871,1.7107,1.6851,1.7086,1.6809,1.6555,1.6326,1.6308,1.6169,1.5934,1.5934,1.5916,1.5891,1.5891,1.5891,1.5891,1.5891,1.5891,1.5891,1.5891,1.5891,0.0,0.0,0.0,0.0,0.0,0.0,0.0,0.0,0.0,0.0,0.0,0.0,0.0,0.0,0.0,0.0,0.0,0.0,0.0,0.0,0.0,0.0,0.0,0.0,0.0,0.0,0.0,0.0,0.0,0.0,0.0,0.0,0.0,0.0,0.0,0.0,0.0,0.0,0.0,0.0,0.0,0.0,0.0,1.2618,1.2242,1.2159,1.2098,1.1316,1.1243,1.147,1.0301,0.9575,0.9125,0.8423,0.0,0.0,0.0,0.0,0.0,0.0,0.0,0.0,0.0,0.0,0.0,0.0,0.0,0.0,0.0,0.0,0.0,0.0,0.0,0.0,0.6158,0.8574,1.0655,1.1574,1.3751,1.5029,1.4853,1.4859,1.4999,1.523,1.5349,1.5535,1.6052,1.6257,1.6517,1.6803,1.6996,0.0,1.7679,1.7421,1.7551,1.7871,1.7352,1.7086,1.7086,0.0,0.0,1.6616,1.66,1.646,1.6205,1.6205,1.6085,1.5891,1.5891,1.5891,1.5891,1.5891,1.5891,1.5891,1.5891,1.5891,1.5891,0.0,0.0,0.0,0.0,0.0,0.0,0.0,0.0,0.0,0.0,0.0,0.0,0.0,0.0,0.0,0.0,0.0,0.0,0.0,0.0,0.0,0.0,0.0,0.0,0.0,0.0,0.0,0.0,0.0,0.0,0.0,0.0,0.0,0.0,0.0,0.0,0.0,0.0,0.0,0.0,0.0,0.0,1.4145,1.3285,1.3155,1.336,1.2727,1.2572,1.2578,1.1866,1.1316,1.0773,1.0269,0.9453,0.8488,0.0,0.0,0.0,0.0,0.0,0.0,0.0,0.0,0.0,0.0,0.0,0.0,0.0,0.0,0.4867,0.0,0.0,0.6637,0.9326,1.0556,1.168,1.3584,1.5068,1.5822,1.5456,1.5639,1.5952,1.6076,1.6425,1.6744,1.7002,1.7321,1.7502,1.762,1.78,1.8045,1.8275,1.8022,1.795,1.8082,1.7684,1.7418,1.7286,1.7189,1.7061,1.6893,1.6928,1.6709,1.6278,1.629,1.6139,1.5891,1.5891,1.5891,1.5891,1.5891,1.5891,1.5891,1.5891,1.5891,1.5891,0.0,0.0,0.0,0.0,0.0,0.0,0.0,0.0,0.0,0.0,0.0,0.0,0.0,0.0,0.0,0.0,0.0,0.0,0.0,0.0,0.0,0.0,0.0,0.0,0.0,0.0,0.0,0.0,0.0,0.0,0.0,0.0,0.0,0.0,0.0,0.0,0.0,0.0,0.0,0.0,0.0,0.0,1.543,1.4406,1.4245,1.4495,1.3915,1.335,1.302,1.2896,1.2458,1.1878,1.1704,1.1038,1.0051,0.8208,0.7279,0.0,0.0,0.0,0.0,0.0,0.0,0.0,0.0,0.0,0.5556,0.5499,0.5706,0.6424,0.8035,0.7899,0.8742,1.2388,1.2494,1.3003,1.5338,1.6097,1.6431,1.623,1.6579,1.6797,1.692,1.7538,1.7881,1.7882,1.8252,1.8386,1.8336,1.8298,1.8469,1.868,1.8432,1.8318,1.8366,1.804,1.7768,1.7557,1.7503,1.737,1.7165,1.7165,1.6899,1.6435,1.6344,1.6175,1.5964,1.591,1.5891,1.5891,1.5891,1.5891,1.5891,1.5891,1.5891,1.5891,0.0,0.0,0.0,0.0,0.0,0.0,0.0,0.0,0.0,0.0,0.0,0.0,0.0,0.0,0.0,0.0,0.0,0.0,0.0,0.0,0.0,0.0,0.0,0.0,0.0,0.0,0.0,0.0,0.0,0.0,0.0,0.0,0.0,0.0,0.0,0.0,0.0,0.0,0.0,0.0,0.0,0.0,1.5846,1.5734,1.5399,1.4894,1.4154,1.3202,1.2437,1.2945,1.2337,1.1456,1.215,1.2003,1.1071,0.8812,0.0,0.7551,0.5509,0.5222,0.6054,0.8024,0.7679,0.7487,0.0,0.0,0.7138,0.7743,0.8072,0.8358,0.8567,0.9719,1.0952,1.172,1.2919,1.3981,1.4471,1.6076,1.7107,1.7074,1.6908,1.7044,1.7661,1.7784,1.7889,1.8221,1.8481,1.8559,1.8261,1.8547,1.8656,1.8686,1.8432,1.8402,1.8638,1.8131,1.7859,1.7829,1.7593,1.7467,1.7443,1.7443,1.728,1.6972,1.6489,1.6266,1.6217,1.5982,1.5891,1.5891,1.5891,1.5891,1.5891,1.5891,1.5891,1.5891,0.0,0.0,0.0,0.0,0.0,0.0,0.0,0.0,0.0,0.0,0.0,0.0,0.0,0.0,0.0,0.0,0.0,0.0,0.0,0.0,0.0,0.0,0.0,0.0,0.0,0.0,0.0,0.0,0.0,0.0,0.0,0.0,0.0,0.0,0.0,0.0,0.0,0.0,0.0,0.0,0.0,0.0,1.6279,1.5964,1.5523,1.4981,1.3952,1.3014,0.0,0.0,1.1492,1.1444,1.1046,1.1047,1.07,0.8429,0.731,0.0,0.5459,0.5988,0.0,0.0,0.8927,0.937,0.9824,0.9694,0.9406,0.8992,0.8949,0.9411,1.0337,1.0642,1.1164,0.0,1.389,1.4741,1.5851,1.6713,1.7239,1.7462,1.7478,1.7659,1.8213,1.8488,1.862,1.8746,1.8849,1.8861,1.8752,1.8855,1.8915,1.8915,1.8807,1.8728,1.8686,1.8306,1.8118,1.8112,1.7684,1.7563,1.7702,1.7551,1.734,1.7062,1.6519,1.6278,1.626,1.6,1.5891,1.5891,1.5891,1.5891,1.5891,1.5891,1.5891,1.5891,0.0,0.0,0.0,0.0,0.0,0.0,0.0,0.0,0.0,0.0,0.0,0.0,0.0,0.0,0.0,0.0,0.0,0.0,0.0,0.0,0.0,0.0,0.0,0.0,0.0,0.0,0.0,0.0,0.0,0.0,0.0,0.0,0.0,0.0,0.0,0.0,0.0,0.0,0.0,0.0,0.0,0.0,1.6543,1.6066,1.5365,1.4512,1.3505,1.2521,0.0,0.0,1.0383,1.0585,0.9933,0.995,0.9833,0.7848,0.6546,0.5692,0.5693,0.0,0.0,0.8502,0.9718,1.0638,1.0046,1.0884,1.1527,1.0731,1.0667,1.1047,1.1829,1.1622,1.2013,1.3959,1.4623,1.5361,1.6904,1.7295,1.7451,1.7813,1.7842,1.8007,1.854,1.8842,1.9,1.9066,1.9078,1.9078,1.9078,1.9078,1.9078,1.9078,1.9078,1.8982,1.8794,1.8529,1.8366,1.8287,1.7817,1.7654,1.7756,1.7569,1.7376,1.7171,1.6706,1.6465,1.6374,1.6115,1.5964,1.5891,1.5891,1.5891,1.5891,1.5891,1.5891,1.5891,0.0,0.0,0.0,0.0,0.0,0.0,0.0,0.0,0.0,0.0,0.0,0.0,0.0,0.0,0.0,0.0,0.0,0.0,0.0,0.0,0.0,0.0,0.0,0.0,0.0,0.0,0.0,0.0,0.0,0.0,0.0,0.0,0.0,0.0,0.0,0.0,0.0,0.0,0.0,0.0,0.0,0.0,1.629,1.6,1.4824,1.329,1.2603,0.0,0.0,0.0,0.8877,0.807,0.9169,0.9229,0.0,0.7414,0.6086,0.0,0.0,0.0,0.6697,0.9194,1.0186,1.0949,1.2505,1.2994,1.3178,1.3792,1.3934,1.3642,1.2465,1.326,1.422,1.4563,1.4851,1.562,1.6915,1.7668,1.8072,1.7813,1.7804,1.81,0.0,1.8698,1.8801,1.9054,1.9078,1.9078,1.9078,1.9078,1.9078,1.9078,1.9078,1.9072,1.906,1.8807,1.8547,1.8294,1.7998,1.7732,1.7497,1.7485,1.7479,1.7455,1.7183,1.6923,1.667,1.6404,1.6133,1.5891,1.5891,1.5891,1.5891,1.5891,1.5891,1.5891,0.0,0.0,0.0,0.0,0.0,0.0,0.0,0.0,0.0,0.0,0.0,0.0,0.0,0.0,0.0,0.0,0.0,0.0,0.0,0.0,0.0,0.0,0.0,0.0,0.0,0.0,0.0,0.0,0.0,0.0,0.0,0.0,0.0,0.0,0.0,0.0,0.0,0.0,0.0,0.0,0.0,0.0,1.6108,1.4671,1.3554,1.2379,0.0,0.0,0.0,0.0,0.7338,0.7513,0.699,0.0,0.0,0.5908,0.5974,0.6679,0.7365,0.0,1.0361,1.1472,1.2798,1.3779,1.3522,1.3665,1.3925,1.4261,1.2856,1.1849,1.2634,1.2185,1.2084,1.3876,1.4673,1.57,1.7513,1.804,1.8067,1.7703,1.7823,0.0,0.0,0.0,0.0,1.903,1.8915,1.8891,1.9066,1.9078,1.9078,1.9078,1.9078,1.9078,1.9078,1.8813,1.8728,1.8807,1.8366,1.804,1.7849,1.7602,1.7608,1.783,1.7323,1.7044,1.6923,1.6704,1.6453,1.6133,1.6178,1.6105,1.5891,1.5891,1.5891,1.5891,0.0,0.0,0.0,0.0,0.0,0.0,0.0,0.0,0.0,0.0,0.0,0.0,0.0,0.0,0.0,0.0,0.0,0.0,0.0,0.0,0.0,0.0,0.0,0.0,0.0,0.0,0.0,0.0,0.0,0.0,0.0,0.0,0.0,0.0,0.0,0.0,0.0,0.0,0.0,0.0,0.0,0.0,1.4328,1.3116,1.1953,0.0,0.0,0.0,0.0,0.0,0.0,0.6542,0.5744,0.6029,0.6544,0.5439,0.6042,0.7255,0.8424,0.9965,1.1571,1.2758,1.4204,1.5013,1.4226,1.4523,1.4898,1.4943,1.317,1.1699,1.2281,1.1455,1.122,1.2636,1.3745,1.5155,1.7211,1.755,1.7531,1.7799,1.775,0.0,0.0,0.0,0.0,1.874,1.8813,1.8855,1.8933,1.9024,1.9078,1.9078,1.9078,1.9078,1.9078,1.8909,1.8813,1.8788,1.8257,1.8068,1.7972,1.7726,1.7843,1.796,1.7658,1.7407,1.7062,1.7061,1.671,1.6266,1.6322,1.6111,1.5891,1.5891,1.5891,1.5891,0.0,0.0,0.0,0.0,0.0,0.0,0.0,0.0,0.0,0.0,0.0,0.0,0.0,0.0,0.0,0.0,0.0,0.0,0.0,0.0,0.0,0.0,0.0,0.0,0.0,0.0,0.0,0.0,0.0,0.0,0.0,0.0,0.0,0.0,0.0,0.0,0.0,0.0,0.0,0.0,0.0,0.0,1.1191,1.1145,0.0,0.0,0.0,0.0,0.0,0.0,0.0,0.0,0.0,0.5848,0.6094,0.6117,0.6475,0.7283,0.9994,1.0363,1.0612,1.3232,1.4127,1.4611,1.4661,1.5438,1.6097,1.5841,1.4595,1.3099,0.0,0.0,1.1282,1.0966,1.2259,1.4039,1.6048,1.64,1.6868,0.0,0.0,0.0,0.0,0.0,0.0,1.8257,0.0,1.8915,1.8698,1.8909,1.9036,1.9036,1.9048,1.9054,1.9054,1.9054,1.8801,1.8287,1.7756,1.7744,1.7991,1.7978,1.7972,1.8083,1.8311,1.7921,1.7207,1.7491,1.711,1.6411,1.6334,1.6105,1.5891,1.5891,1.5891,1.5885,0.0,0.0,0.0,0.0,0.0,0.0,0.0,0.0,0.0,0.0,0.0,0.0,0.0,0.0,0.0,0.0,0.0,0.0,0.0,0.0,0.0,0.0,0.0,0.0,0.0,0.0,0.0,0.0,0.0,0.0,0.0,0.0,0.0,0.0,0.0,0.0,0.0,0.0,0.0,0.0,0.0,0.0,1.0822,0.0,0.0,0.0,0.0,0.0,0.0,0.0,0.0,0.0,0.0,0.881,0.9144,0.9614,1.0614,1.1737,1.2869,1.3799,1.4687,1.539,1.609,1.6139,1.477,1.4079,1.346,1.2866,1.0799,0.9361,0.0,0.0,0.0,1.2602,1.3175,0.0,1.7555,1.8238,0.0,1.8318,0.0,1.8354,1.83,1.8348,0.0,0.0,1.8221,1.833,1.8668,1.8565,1.8493,1.8493,1.868,1.8782,1.8782,1.8782,1.8619,1.8294,1.7943,1.8019,1.8264,1.8059,1.8083,1.8305,1.8421,1.826,1.8043,1.7898,1.7655,1.7215,1.6719,1.6524,1.6524,1.6318,1.6318,1.6524,0.0,0.0,0.0,0.0,0.0,0.0,0.0,0.0,0.0,0.0,0.0,0.0,0.0,0.0,0.0,0.0,0.0,0.0,0.0,0.0,0.0,0.0,0.0,0.0,0.0,0.0,0.0,0.0,0.0,0.0,0.0,0.0,0.0,0.0,0.0,0.0,0.0,0.0,0.0,0.0,0.0,0.0,0.0,0.0,0.0,0.0,0.0,0.0,0.0,0.0,0.0,0.9008,1.009,1.0745,1.1184,1.1592,0.0,1.3307,1.4325,1.472,1.5376,1.6648,1.668,1.6171,1.5092,1.4159,1.3172,1.1675,0.964,0.0,0.0,0.0,0.0,0.0,0.0,0.0,1.7445,1.7907,1.8191,0.0,1.8668,0.0,1.8481,1.8601,1.8577,0.0,1.8251,1.8312,1.8505,1.8372,1.8294,1.8294,1.8438,1.8511,1.8511,1.839,1.8257,1.8106,1.7835,1.7946,1.842,1.8269,1.8311,1.8648,0.0,1.8655,1.8383,1.8279,1.7985,1.7503,1.7058,1.678,1.6677,1.6683,1.6786,1.6997,0.0,0.0,0.0,0.0,0.0,0.0,0.0,0.0,0.0,0.0,0.0,0.0,0.0,0.0,0.0,0.0,0.0,0.0,0.0,0.0,0.0,0.0,0.0,0.0,0.0,0.0,0.0,0.0,0.0,0.0,0.0,0.0,0.0,0.0,0.0,0.0,0.0,0.0,0.0,0.0,0.0,0.0,0.0,0.0,0.0,0.0,0.0,0.0,0.0,0.0,0.9745,1.0843,1.1482,1.2228,1.2926,1.3221,1.3443,1.3867,1.5219,1.4937,1.4846,1.7196,1.6745,1.5669,1.5085,1.4473,1.3424,1.101,0.0,0.8494,0.7798,0.9276,1.0513,1.0322,0.0,1.5327,1.6566,1.6674,1.726,1.8957,1.8873,1.8734,1.8734,1.8704,1.8601,1.8408,1.8511,1.8475,1.8251,1.8203,1.8203,1.8233,1.8239,1.8239,1.8239,1.7998,1.7871,1.7871,1.773,1.7855,1.8355,1.8434,1.8648,1.8881,0.0,0.0,1.8512,1.8454,1.8217,1.7622,1.7347,1.7136,1.6924,1.7254,1.7359,1.7359,0.0,0.0,0.0,0.0,0.0,0.0,0.0,0.0,0.0,0.0,0.0,0.0,0.0,0.0,0.0,0.0,0.0,0.0,0.0,0.0,0.0,0.0,0.0,0.0,0.0,0.0,0.0,0.0,0.0,0.0,0.0,0.0,0.0,0.0,0.0,0.0,0.0,0.0,0.0,0.0,0.0,0.0,0.0,0.0,0.0,0.0,0.0,0.0,0.0,0.0,1.0043,1.1525,1.2745,1.4451,1.6081,1.6518,1.6862,1.7183,1.7619,1.7588,1.7444,1.7919,1.7502,1.642,1.3793,1.2636,0.0,0.0,0.0,0.6776,0.6714,0.7129,0.8159,1.0014,0.0,0.0,0.0,0.0,1.7354,0.0,0.0,0.0,0.0,0.0,0.0,0.0,0.0,0.0,1.795,1.7738,1.772,1.7937,1.795,1.795,1.795,1.7901,1.7871,1.7871,1.7854,1.8084,1.8414,1.864,1.8881,1.8881,0.0,0.0,1.8855,1.881,1.8571,1.8191,1.8026,1.7805,1.7805,1.7916,1.7916,1.7916,0.0,0.0,0.0,0.0,0.0,0.0,0.0,0.0,0.0,0.0,-0.202,-0.1973,0.0,0.0,0.0,0.0,0.0,0.0,0.0,0.0,0.0,0.0,0.0,0.0,0.0,0.0,0.0,0.0,0.0,0.0,0.0,0.0,0.0,0.0,0.0,0.0,0.0,0.0,0.0,0.0,0.0,0.0,0.0,0.0,0.0,0.0,0.0,0.0,0.0,0.0,0.9389,1.1488,1.3517,1.5064,1.6269,1.6652,1.6392,1.6086,1.6435,1.5915,1.5678,1.7087,1.5976,1.4172,1.3277,0.0,0.0,0.0,0.6785,0.652,0.6361,0.0,0.0,0.0,0.0,0.0,0.0,0.0,0.0,0.0,0.0,0.0,0.0,0.0,0.0,0.0,0.0,0.0,1.8082,1.7702,1.7539,1.7666,1.7672,1.7672,1.7672,1.7672,1.7672,1.7666,1.7663,1.8028,1.8382,1.8596,1.8887,1.9127,0.0,0.0,1.9113,1.8968,1.8794,1.8653,1.8415,1.8135,1.8027,1.8363,1.8356,1.8242,0.0,0.0,0.0,0.0,0.0,0.0,0.0,-0.2109,-0.2154,-0.2064,-0.202,-0.202,-0.202,-0.2064,0.0,0.0,0.0,0.0,0.0,0.0,0.0,0.0,0.0,0.0,0.0,0.0,0.0,0.0,0.0,0.0,0.0,0.0,0.0,0.0,0.0,0.0,0.0,0.0,0.0,0.0,0.0,0.0,0.0,0.0,0.0,0.0,0.0,0.0,0.0,0.0,0.8611,1.0732,1.2904,1.4174,1.5135,1.5382,1.5099,1.4683,1.5243,1.4479,1.4236,1.64,1.4413,1.2115,1.2534,1.1147,0.0,0.0,0.6685,0.6575,0.6385,0.0,0.0,0.0,0.0,0.0,0.0,0.0,0.0,0.0,0.0,0.0,0.0,0.0,0.0,0.0,0.0,0.0,0.0,1.7714,1.7485,1.7485,1.7485,1.7485,1.7485,1.7485,1.7485,1.7485,1.7602,1.7837,1.8421,1.8415,1.8771,1.9366,0.0,0.0,0.0,1.912,1.8997,1.8874,1.8648,1.8305,1.82,1.8648,1.8648,1.8538,0.0,0.0,0.0,0.0,0.0,0.0,0.0,-0.2201,-0.2201,-0.2201,-0.2064,-0.202,-0.202,-0.1884,0.0,0.0,0.0,0.0,0.0,0.0,0.0,0.0,0.0,0.0,0.0,0.0,0.0,0.0,0.0,0.0,0.0,0.0,0.0,0.0,0.0,0.0,0.0,0.0,0.0,0.0,0.0,0.0,0.0,0.0,0.0,0.0,0.0,0.0,0.0,0.0,0.0,0.9173,0.9556,1.1362,1.3217,1.3255,0.0,0.0,1.6418,1.6567,1.6668,1.6727,1.4821,1.2525,1.113,0.0,0.0,0.6709,0.6395,0.6379,0.6271,0.0,0.0,0.0,0.0,0.9417,0.0,0.0,0.0,0.0,0.0,0.0,0.0,0.0,0.0,0.0,0.0,0.0,0.0,1.7509,1.7485,1.7485,1.7485,1.7485,1.7485,1.7485,1.7485,1.7485,1.7849,1.8083,1.8421,1.8765,1.9004,1.9366,0.0,0.0,0.0,1.9243,1.9127,1.8874,1.8874,1.8648,1.8421,1.8421,1.8421,1.8421,0.0,0.0,0.0,0.0,0.0,0.0,0.0,-0.2201,-0.2201,-0.2201,-0.2064,-0.202,-0.2109,-0.202,-0.1896,0.0,0.0,0.0,0.0,0.0,0.0,0.0,0.0,0.0,0.0,0.0,0.0,0.0,0.0,0.0,0.0,0.0,0.0,0.0,0.0,0.0,0.0,0.0,0.0,0.0,0.0,0.0,0.0,0.0,0.0,0.0,0.0,0.0,0.0,0.0,0.0,0.0,0.7321,0.8113,0.0,0.0,1.1783,1.2047,1.2766,1.3059,1.3417,1.413,1.2513,1.0646,1.0508,0.0,0.7279,0.6375,0.6277,0.6268,0.6268,0.0,0.0,0.0,0.0,0.0,0.0,0.0,0.0,0.0,0.0,0.0,0.0,0.0,0.0,0.0,0.0,0.0,0.0,1.7485,1.7485,1.7485,1.7485,1.7485,1.7485,1.7485,1.7485,1.7485,1.7602,1.796,1.8421,1.8532,1.8887,1.9366,0.0,0.0,0.0,1.8997,1.9004,1.8874,1.8874,1.8648,1.8421,1.8648,1.8421,1.8194,0.0,0.0,0.0,0.0,0.0,0.0,-0.2241,-0.2241,-0.2241,-0.2241,-0.2109,-0.2064,-0.2201,-0.2109,-0.2018,-0.1971,0.0,0.0,0.0,0.0,0.0,0.0,0.0,0.0,0.0,0.0,0.0,0.0,0.0,0.0,0.0,0.0,0.0,0.0,0.0,0.0,0.0,0.0,0.0,0.0,0.0,0.0,0.0,0.0,0.0,0.0,0.0,0.0,0.0,0.0,0.0,0.0,0.0,0.0,0.0,0.0,0.9589,0.9752,1.0568,1.0909,1.1453,1.2179,1.067,0.9147,0.0,0.8029,0.6502,0.6125,0.61,0.617,0.6208,0.6309,0.0,0.0,0.0,0.8506,1.0471,0.0,0.0,0.0,0.0,0.0,0.0,0.0,0.0,0.0,0.0,0.0,0.0,0.0,1.7485,1.7485,1.7485,1.7485,1.7485,1.7485,1.7485,1.7485,1.7485,1.7719,1.8311,1.8305,1.8655,0.0,0.0,0.0,0.0,1.8881,1.8874,1.8765,1.8765,1.8532,1.8311,1.8538,1.8311,1.8083,0.0,0.0,0.0,0.0,0.0,0.0,0.0,-0.2279,-0.2279,-0.2279,-0.2105,-0.2064,-0.2201,-0.2201,-0.2241,-0.2281,0.0,0.0,0.0,0.0,0.0,0.0,0.0,0.0,0.0,0.0,0.0,0.0,0.0,0.0,0.0,0.0,0.0,0.0,0.0,0.0,0.0,0.0,0.0,0.0,0.0,0.0,0.6405,0.0,0.0,0.0,0.0,0.0,0.0,0.0,0.0,0.0,0.0,0.0,0.0,0.0,0.845,1.0469,1.1105,1.187,1.2361,1.2184,1.0299,0.8414,0.0,0.7027,0.6184,0.5996,0.5907,0.5945,0.6064,0.6189,0.66,0.7409,0.0,0.0,0.0,0.0,0.0,0.0,0.0,0.0,0.0,0.0,0.0,0.0,0.0,0.0,0.0,0.0,1.7485,1.7485,1.7485,1.7485,1.7485,1.7485,1.7485,1.7485,1.7485,1.7726,1.7966,1.8311,0.0,0.0,0.0,0.0,0.0,1.8758,1.8648,1.8421,1.8421,1.8194,1.7972,1.7972,1.7972,1.7972,0.0,0.0,0.0,0.0,0.0,0.0,0.0,-0.2281,-0.2279,-0.2279,-0.2237,-0.2237,-0.2281,-0.2281,-0.2281,-0.2279,0.0,0.0,0.0,0.0,0.0,0.0,0.0,0.0,0.0,0.0,0.0,0.0,0.0,0.0,0.0,0.0,0.0,0.0,0.0,0.0,0.0,0.0,0.0,0.0,0.0,0.6067,0.6116,0.0,0.0,0.0,0.0,0.0,0.0,0.0,0.0,0.0,0.0,0.0,0.0,0.6051,0.7104,0.8352,0.9015,0.9504,0.971,0.9456,0.8656,0.7666,0.719,0.657,0.6054,0.5787,0.585,0.5915,0.5953,0.613,0.6569,0.7381,0.777,0.0,0.0,0.0,0.0,0.0,0.0,0.0,0.0,0.0,0.0,0.0,0.0,0.0,0.0,0.0,1.7485,1.7485,1.7485,1.7485,1.7485,1.7485,1.7485,1.7485,1.7485,1.7719,1.8311,1.8305,0.0,0.0,0.0,0.0,0.0,1.8532,1.8421,1.8083,1.8083,1.8083,1.7972,1.7972,1.7849,1.7726,0.0,0.0,0.0,0.0,0.0,0.0,0.0,-0.2328,-0.237,-0.237,-0.237,-0.237,-0.237,-0.2415,-0.246,-0.246,0.0,0.0,0.0,0.0,0.0,0.0,0.0,0.0,0.0,0.0,0.0,0.0,0.0,0.0,0.0,0.0,0.0,0.0,0.0,0.0,0.0,0.0,0.0,0.0,0.5898,0.6081,0.5917,0.0,0.0,0.0,0.0,0.0,0.0,0.0,0.0,0.0,0.0,0.0,0.0,0.0,0.6267,0.703,0.0,0.805,0.8214,0.8044,0.7589,0.0,0.6725,0.6322,0.5908,0.5819,0.5877,0.5954,0.6045,0.6378,0.6804,0.7482,0.7872,0.0,0.0,0.0,0.0,0.0,0.0,0.0,0.0,0.0,0.0,0.0,0.0,0.0,0.0,0.0,1.7485,1.7485,1.7485,1.7485,1.7485,1.7485,1.7485,1.7485,1.7485,1.7719,1.8311,0.0,0.0,0.0,0.0,0.0,0.0,1.8194,1.8077,1.7849,1.7966,1.7966,1.7843,1.7966,1.7843,1.7485,0.0,0.0,0.0,0.0,0.0,0.0,0.0,0.0,0.0,0.0,-0.2504,-0.2504,-0.2504,-0.264,-0.2687,0.0,0.0,0.0,0.0,0.0,0.0,0.0,0.0,0.0,0.0,0.0,0.0,0.0,-0.1459,-0.0729,0.028,0.0,0.0,0.0,0.0,0.0,0.0,0.0,0.0,0.0,0.6166,0.62,0.0,0.0,0.0,0.0,0.0,0.0,0.0,0.0,0.0,0.0,0.0,0.0,0.0,0.0,0.0,0.0,0.0,0.7274,0.0,0.0,0.0,0.0,0.6461,0.607,0.0,0.5997,0.6083,0.6155,0.6293,0.6823,0.7203,0.7461,0.8018,0.0,0.0,0.0,0.0,0.0,0.0,0.0,0.0,0.0,0.0,0.0,0.0,0.0,0.0,0.0,0.0,1.7485,1.7485,1.7485,1.7485,1.7485,1.7485,1.7485,1.7485,1.7726,1.8083,0.0,0.0,0.0,0.0,0.0,0.0,1.7972,1.7843,1.7485,1.7849,1.7726,1.7485,1.7849,1.7726,1.7485,0.0,0.0,0.0,0.0,0.0,0.0,0.0,0.0,0.0,0.0,0.0,-0.264,-0.264,-0.2684,0.0,0.0,0.0,0.0,0.0,0.0,0.0,0.0,0.0,0.0,0.0,0.0,0.0,-0.1961,-0.1233,-0.0505,0.0112,0.101,0.0,0.0,0.0,0.0,0.0,0.0,0.0,0.0,0.6005,0.6067,0.0,0.0,0.0,0.0,0.5399,0.5751,0.0,0.0,0.0,0.0,0.0,0.0,0.0,0.0,0.5678,0.5742,0.5827,0.0,0.652,0.6325,0.6239,0.6051,0.0,0.5773,0.0,0.0,0.0,0.5838,0.5893,0.6426,0.6862,0.6542,0.7198,0.0,0.0,0.0,0.0,0.0,0.0,0.0,0.0,0.0,0.0,0.0,0.0,0.0,0.0,0.0,0.0,1.7485,1.7485,1.7485,1.7485,1.7485,1.7485,1.7485,1.7485,1.7837,1.8311,0.0,0.0,0.0,0.0,0.0,0.0,1.8083,1.7843,1.7485,1.7602,1.7602,1.7485,1.7602,1.7602,1.7485,0.0,0.0,0.0,0.0,0.0,0.0,0.0,0.0,0.0,0.0,0.0,0.0,0.0,0.0,0.0,0.0,0.0,0.0,0.0,0.0,0.0,0.0,0.0,0.0,0.0,0.0,0.0,0.0,0.0,-0.0842,0.0,0.0,0.0,0.0,0.0,0.0,0.0,0.0,0.0,0.5589,0.5855,0.0,0.0,0.0,0.0,0.0,0.5183,0.5406,0.0,0.5313,0.5318,0.5686,0.0,0.0,0.0,0.0,0.5631,0.5695,0.5496,0.5648,0.5839,0.5828,0.5825,0.5809,0.5746,0.0,0.0,0.0,0.0,0.5746,0.5984,0.6519,0.0,0.0,0.7693,0.0,0.0,0.0,0.0,0.0,0.0,0.0,0.0,0.0,0.0,0.0,0.0,0.0,0.0,0.0,0.0,0.0,1.7485,1.7485,1.7485,1.7485,1.7485,1.7485,1.7485,1.783,1.8421,0.0,0.0,0.0,0.0,0.0,1.8421,1.796,1.7608,1.7485,1.7485,1.7485,1.7485,1.7485,1.7485,1.7485,0.0,0.0,0.0,0.0,0.0,0.0,0.0,0.0,0.0,0.0,0.0,0.0,0.0,0.0,0.0,0.0,0.0,0.0,0.0,0.0,0.0,0.0,0.0,0.0,0.0,0.0,0.0,0.0,0.0,0.0,0.0,0.0,0.0,0.0,0.0,0.0,0.0,0.0,0.0,0.5687,0.5672,0.0,0.0,0.0,0.0,0.0,0.0,0.0,0.0,0.4955,0.5039,0.5473,0.5203,0.0,0.0,0.0,0.0,0.0,0.5532,0.5485,0.5597,0.5684,0.5719,0.5727,0.5708,0.0,0.0,0.0,0.0,0.0,0.0,0.0,0.0,0.0,0.0,0.0,0.0,0.0,0.0,0.0,0.0,0.0,0.0,0.0,0.0,0.0,0.0,0.0,0.0,0.0,0.0,0.0,1.7485,1.7485,1.7485,1.7485,1.7485,1.7485,1.7602,1.7837,1.8305,1.8421,0.0,0.0,0.0,0.0,1.8305,1.7719,1.7485,1.7485,1.7485,1.7485,1.7485,1.7485,1.7485,1.7485,0.0,0.0,0.0,0.0,0.0,0.0,0.0,0.0,0.0,0.0,0.0,0.0,0.0,0.0,0.0,0.0,0.0,0.0,0.0,0.0,0.0,0.0,0.0,0.0,0.0,0.0,0.0,0.0,0.0,0.0,-0.0393,0.0224,0.1287,0.0,0.0,0.0,0.0,0.0,0.0,0.5384,0.4951,0.0,0.0,0.0,0.0,0.0,0.0,0.0,0.0,0.4605,0.4686,0.4882,0.4846,0.0,0.0,0.0,0.0,0.0,0.5504,0.5785,0.5946,0.5854,0.5914,0.5965,0.0,0.0,0.0,0.0,0.0,0.0,0.0,0.0,0.0,0.0,0.0,0.0,0.0,0.0,0.0,0.0,0.0,0.0,0.0,0.0,0.0,0.0,0.0,0.0,0.0,0.0,0.0,0.0,0.0,1.7485,1.7485,1.7485,1.7485,1.7485,1.7843,1.7966,1.8083,1.8532,1.8881,0.0,0.0,0.0,1.8305,1.7719,1.7485,1.7485,1.7485,1.7485,1.7485,1.7485,1.7485,1.7485,0.0,0.0,0.0,0.0,0.0,0.0,0.0,0.0,0.0,0.0,0.0,0.0,0.0,0.0,0.0,0.0,0.0,0.0,0.0,0.0,0.0,0.0,0.0,0.0,0.0,0.0,0.0,0.0,0.0,-0.1289,-0.0561,0.0449,0.1568,0.2854,0.0,0.0,0.0,0.0,0.0,0.523,0.0,0.0,0.0,0.0,0.0,0.0,0.0,0.0,0.0,0.0,0.4277,0.4683,0.4576,0.0,0.0,0.0,0.0,0.0,0.5355,0.5488,0.5703,0.5993,0.6304,0.6421,0.0,0.0,0.0,0.0,0.0,0.0,0.0,0.0,0.0,0.0,0.0,0.0,0.0,0.0,0.0,0.0,0.0,0.0,0.0,0.0,0.0,0.0,0.0,0.0,0.0,0.0,0.0,0.0,0.0,0.0,1.7485,1.7485,1.7485,1.7485,1.7608,1.7849,1.7966,1.8421,1.8648,0.0,0.0,1.8305,1.8194,1.7719,1.7485,1.7485,1.7485,1.7485,1.7485,1.7485,1.7485,1.7485,0.0,0.0,0.0,0.0,0.0,0.0,0.0,0.0,0.0,0.0,0.0,0.0,0.0,0.0,0.0,0.0,0.0,0.0,0.0,0.0,0.0,0.0,0.0,0.0,0.0,0.0,0.0,-0.2918,-0.2279,-0.1533,-0.0624,0.0675,0.1903,0.0,0.0,0.0,0.0,0.0,0.0,0.5068,0.0,0.0,0.0,0.0,0.0,0.0,0.0,0.0,0.0,0.0,0.0,0.0,0.0,0.0,0.0,0.5146,0.5254,0.5232,0.5165,0.532,0.5494,0.5901,0.0,0.0,0.0,0.0,0.0,0.0,0.0,0.0,0.0,0.0,0.0,0.0,0.0,0.0,0.0,0.0,0.0,0.0,0.0,0.0,0.0,0.0,0.0,0.0,0.0,0.0,0.0,0.0,0.0,0.0,0.0,0.0,1.7485,1.7485,1.7485,1.7485,1.7602,1.7726,1.7972,1.8311,1.8421,1.8421,1.8305,1.82,1.7972,1.7602,1.7485,1.7485,1.7485,1.7485,1.7485,1.7485,1.7485,1.7485,0.0,0.0,0.0,0.0,0.0,0.0,0.0,0.0,0.0,0.0,0.0,0.0,0.0,0.0,0.0,0.0,0.0,0.0,0.0,0.0,0.0,0.0,0.0,0.0,0.0,-0.3691,-0.334,-0.2918,-0.2671,-0.1819,-0.0469,0.074,0.1958,0.3125,0.0,0.0,0.0,0.0,0.0,0.0,0.4371,0.0,0.0,0.0,0.0,0.0,0.0,0.0,0.0,0.0,0.0,0.0,0.0,0.0,0.413,0.4959,0.5036,0.4986,0.5077,0.5529,0.5951,0.5399,0.0,0.0,0.0,0.0,0.0,0.0,0.0,0.0,0.0,0.0,0.0,0.0,0.0,0.0,0.0,0.0,0.0,0.0,0.0,0.0,0.0,0.0,0.0,0.0,0.0,0.0,0.0,0.0,0.0,0.0,0.0,0.0,1.7485,1.7485,1.7485,1.7485,1.7849,1.7966,1.7972,1.8311,1.8421,1.8421,1.82,1.7972,1.7972,1.7602,1.7485,1.7485,1.7485,1.7485,1.7485,1.7485,1.7485,1.7485,0.0,0.0,0.0,0.0,0.0,0.0,0.0,0.0,0.0,0.0,0.0,0.0,0.0,0.0,0.0,0.0,0.0,0.0,0.0,0.0,0.0,0.0,0.0,-0.3859,-0.4,-0.3664,-0.3324,-0.3026,-0.2047,-0.1164,-0.04,0.0807,0.0,0.0,0.0,0.0,0.0,0.0,0.0,0.0,0.4212,0.4189,0.0,0.0,0.0,0.0,0.0,0.0,0.0,0.0,0.3244,0.3778,0.3875,0.4028,0.4244,0.4616,0.4762,0.4772,0.4651,0.504,0.5362,0.53,0.0,0.0,0.0,0.0,0.0,0.0,0.0,0.0,0.0,0.0,0.0,0.0,0.0,0.0,0.0,0.0,0.0,0.0,0.0,0.0,0.0,0.0,0.0,0.0,0.0,0.0,0.0,0.0,0.0,0.0,0.0,0.0,0.0,1.7485,1.7485,1.7485,1.7602,1.7726,1.7726,1.796,1.8077,1.7837,1.7966,1.7849,1.7726,1.7602,1.7485,1.7485,1.7485,1.7382,1.7255,1.7424,1.7485,1.7485,0.0,0.0,0.0,0.0,0.0,0.0,0.0,0.0,0.0,0.0,0.0,0.0,0.0,0.0,0.0,0.0,0.0,0.0,0.0,0.0,0.0,0.0,0.0,-0.3985,-0.4082,-0.3731,-0.3387,-0.3077,-0.1639,-0.0752,-0.0462,0.0,0.0,0.0,0.0,0.0,0.0,0.0,0.0,0.0,0.0,0.4221,0.0,0.0,0.0,0.0,0.0,0.0,0.0,0.0,0.3199,0.371,0.3768,0.4049,0.423,0.4332,0.4618,0.4774,0.4462,0.4673,0.5094,0.529,0.0,0.0,0.0,0.0,0.0,0.0,0.0,0.0,0.0,0.0,0.0,0.0,0.0,0.0,0.0,0.0,0.0,0.0,0.0,0.0,0.0,0.0,0.0,0.0,0.0,0.0,0.0,0.0,0.0,0.0,0.0,0.0,0.0,1.7485,1.7485,1.7485,1.7485,1.7602,1.7837,1.7966,1.796,1.7837,1.7966,1.78,1.7358,1.7358,1.7358,1.7352,1.7267,1.7231,1.7225,1.7322,1.7412,1.7485,0.0,0.0,0.0,0.0,0.0,0.0,0.0,0.0,0.0,0.0,0.0,0.0,0.0,0.0,0.0,0.0,0.0,0.0,0.0,0.0,0.0,0.0,0.0,-0.4195,-0.419,-0.3928,-0.3565,-0.3074,-0.162,-0.0809,-0.0553,0.0,0.0,0.0,0.0,0.0,0.0,0.0,0.0,0.0,0.0,0.4495,0.4287,0.0,0.0,0.0,0.0,0.0,0.0,0.0,0.3221,0.3466,0.3793,0.3929,0.3949,0.4274,0.4693,0.4924,0.4538,0.4859,0.5312,0.5261,0.0,0.0,0.0,0.0,0.0,0.0,0.0,0.0,0.0,0.0,0.0,0.0,0.0,0.0,0.0,0.0,0.0,0.0,0.0,0.0,0.0,0.0,0.0,0.0,0.0,0.0,0.0,0.0,0.0,0.0,0.0,0.0,0.0,1.7485,1.7485,1.7485,1.7485,1.7837,1.8421,1.8077,1.8194,1.8415,1.8077,1.7689,1.7092,1.7092,1.7092,1.7062,1.6803,1.702,1.7443,1.7183,1.7255,1.7479,0.0,0.0,0.0,0.0,0.0,0.0,0.0,0.0,0.0,0.0,0.0,0.0,0.0,0.0,0.0,0.0,0.0,0.0,0.0,0.0,0.0,0.0,0.0,0.0,0.0,0.0,-0.3291,-0.3026,-0.1603,-0.0636,0.0,0.0,0.0,0.1961,0.0,0.0,0.0,0.0,0.0,0.0,0.3982,0.4025,0.4092,0.0,0.0,0.0,0.0,0.0,0.0,0.0,0.0,0.0,0.3497,0.3967,0.4312,0.3962,0.4402,0.4924,0.4538,0.4862,0.0,0.5531,0.0,0.0,0.0,0.0,0.0,0.0,0.0,0.0,0.0,0.0,0.0,0.0,0.0,0.0,0.0,0.0,0.0,0.0,0.0,0.0,0.0,0.0,0.0,0.0,0.0,0.0,0.0,0.0,0.0,0.0,0.0,0.0,0.0,0.0,1.7485,1.7485,1.7485,1.7602,1.7707,1.753,1.7438,1.7426,1.7242,1.711,1.7105,1.7292,1.7153,1.6827,1.6936,1.6845,1.667,1.6779,1.6984,1.7177,0.0,0.0,0.0,0.0,0.0,0.0,0.0,0.0,0.0,0.0,0.0,0.0,0.0,0.0,0.0,0.0,0.0,0.0,0.0,0.0,0.0,0.0,0.0,0.0,0.0,-0.3411,-0.3163,0.0,0.0,0.0,0.0,0.0,0.0,0.1747,0.0,0.3155,0.0,0.0,0.0,0.3675,0.3801,0.3961,0.4028,0.0,0.0,0.0,0.0,0.0,0.0,0.0,0.0,0.0,0.3647,0.3943,0.4239,0.3899,0.4382,0.5032,0.4815,0.5091,0.0,0.0,0.0,0.0,0.0,0.0,0.0,0.0,0.0,0.0,0.0,0.0,0.0,0.0,0.0,0.0,0.0,0.0,0.0,0.0,0.0,0.0,0.0,0.0,0.0,0.0,0.0,0.0,0.0,0.0,0.0,0.0,0.0,0.0,0.0,0.0,0.0,1.7171,1.7171,1.7171,1.7171,1.7225,1.7261,1.7151,1.6879,1.6724,1.6791,1.7062,1.699,1.6706,1.6761,1.6712,1.6616,1.6555,1.6706,1.6911,0.0,0.0,0.0,0.0,0.0,0.0,0.0,0.0,0.0,0.0,0.0,0.0,0.0,0.0,0.0,0.0,0.0,0.0,0.0,0.0,0.0,0.0,0.0,0.0,0.0,0.0,0.0,0.0,0.0,0.0,0.0,0.0,0.1281,0.1611,0.0,0.2997,0.0,0.3742,0.3991,0.3758,0.3894,0.3961,0.4028,0.3961,0.0,0.0,0.0,0.0,0.0,0.0,0.0,0.0,0.3973,0.3975,0.3933,0.4026,0.4604,0.5188,0.5135,0.0,0.0,0.0,0.0,0.0,0.0,0.0,0.0,0.0,0.0,0.0,0.0,0.0,0.0,0.0,0.0,0.0,0.0,0.0,0.0,0.0,0.0,0.0,0.0,0.0,0.0,0.0,0.0,0.0,0.0,0.0,0.0,0.0,0.0,0.0,0.0,0.0,0.0,0.0,1.67,1.6688,1.667,1.7239,1.7315,1.7067,1.6764,1.6519,1.6302,1.6585,1.6688,1.664,1.6404,1.6585,1.6923,1.6429,1.6423,1.6658,0.0,0.0,0.0,0.0,0.0,0.0,0.0,0.0,0.0,0.0,0.0,0.0,0.0,0.0,0.0,0.0,0.0,0.0,0.0,0.0,0.0,0.0,0.0,0.0,0.0,0.0,0.0,0.0,0.0,0.0,0.0,0.0,0.0,0.2106,0.0,0.29,0.0,0.3456,0.3535,0.336,0.3563,0.3763,0.3961,0.3892,0.3892,0.0,0.0,0.0,0.0,0.0,0.0,0.0,0.3702,0.3923,0.4181,0.3548,0.411,0.4906,0.4834,0.5368,0.0,0.0,0.0,0.0,0.0,0.0,0.0,0.0,0.0,0.0,0.0,0.0,0.0,0.0,0.0,0.0,0.0,0.0,0.0,0.0,0.0,0.0,0.0,0.0,0.0,0.0,0.0,0.0,0.0,0.0,0.0,0.0,0.0,0.0,1.67,1.67,1.67,0.0,1.67,1.6585,1.6374,1.6539,1.6417,1.618,1.6278,1.6338,1.6302,1.6585,1.6573,1.6362,1.6308,1.6229,1.6133,1.6018,1.6145,1.6344,0.0,0.0,0.0,0.0,0.0,0.0,0.0,0.0,0.0,0.0,0.0,0.0,0.0,0.0,0.0,0.0,0.0,0.0,0.0,0.0,0.0,0.0,0.0,0.0,0.0,0.0,0.0,0.0,0.0,0.0,0.0,0.0,0.0,0.2412,0.0,0.2838,0.2621,0.2915,0.3053,0.3092,0.3295,0.356,0.3892,0.3892,0.3892,0.3828,0.3496,0.0,0.0,0.0,0.0,0.0,0.0,0.0,0.3944,0.3754,0.4082,0.4613,0.0,0.0,0.0,0.0,0.0,0.0,0.0,0.0,0.0,0.0,0.0,0.0,0.0,0.0,0.0,0.0,0.0,0.0,0.0,0.0,0.0,0.0,0.0,0.0,0.0,0.0,0.0,0.0,0.0,0.0,0.0,0.0,0.0,0.0,0.0,0.0,1.6314,1.6314,1.6314,1.6314,1.6314,1.6235,1.6097,1.6097,1.6018,1.5903,1.6169,1.6211,1.6127,1.6531,1.6537,1.6278,1.6278,1.6193,1.606,1.5934,1.5976,1.6072,0.0,0.0,0.0,0.0,0.0,0.0,0.0,0.0,0.0,0.0,0.0,0.0,0.0,0.0,0.0,0.0,0.0,0.0,0.0,0.0,0.0,0.0,0.0,0.0,0.0,0.0,0.0,0.0,0.0,0.0,0.0,0.0,0.0,0.2724,0.0,0.0,0.2369,0.2645,0.2843,0.2956,0.3159,0.3426,0.3761,0.3892,0.3894,0.3758,0.3629,0.3763,0.3989,0.4034,0.0,0.0,0.0,0.0,0.3718,0.3923,0.407,0.4242,0.0,0.0,0.0,0.0,0.0,0.0,0.0,0.0,0.0,0.0,0.0,0.0,0.0,0.0,0.0,0.0,0.0,0.0,0.0,0.0,0.0,0.0,0.0,0.0,0.0,0.0,0.0,0.0,0.0,0.0,0.0,0.0,0.0,0.0,0.0,1.5891,1.5891,1.5891,1.5891,1.5891,1.5891,1.5891,1.5891,1.5891,1.5891,1.5903,1.6115,1.6091,1.5928,1.6374,1.6423,1.6211,1.6211,1.6211,1.6187,1.597,1.5891,1.5891,0.0,0.0,0.0,0.0,0.0,0.0,0.0,0.0,0.0,0.0,0.0,0.0,0.0,0.0,0.0,0.0,0.0,0.0,0.0,0.0,0.0,0.0,0.0,0.0,0.0,0.0,0.0,0.0,0.0,0.0,0.0,0.0,0.0,0.0,0.0,0.0,0.0,0.3397,0.3215,0.2753,0.3295,0.3496,0.3563,0.3758,0.0,0.0,0.3694,0.3758,0.383,0.3996,0.4134,0.0,0.0,0.0,0.3685,0.3389,0.3578,0.3867,0.0,0.0,0.0,0.0,0.0,0.0,0.0,0.0,0.0,0.0,0.0,0.0,0.0,0.0,0.0,0.0,0.0,0.0,0.0,0.0,0.0,0.0,0.0,0.0,0.0,0.0,0.0,0.0,0.0,0.0,0.0,0.0,1.594,1.594,1.591,0.0,1.5891,1.5891,1.5891,1.5891,1.5891,1.5891,1.5891,1.5891,1.5891,1.5891,1.5928,1.5922,1.5897,1.597,1.5976,1.594,1.594,1.594,1.594,1.5903,1.5891,1.5891,0.0,0.0,0.0,0.0,0.0,0.0,0.0,0.0,0.0,0.0,0.0,0.0,0.0,0.0,0.0,0.0,0.0,0.0,0.0,0.0,0.0,0.0,0.0,0.0,0.0,0.0,0.0,0.0,0.0,0.0,0.0,0.2128,0.2889,0.0,0.0,0.0,0.0,0.0,0.0,0.2893,0.3415,0.3644,0.3714,0.0,0.0,0.0,0.0,0.0,0.0,0.4191,0.4312,0.4327,0.3983,0.0,0.0,0.0,0.3603,0.0,0.466,0.0,0.0,0.0,0.0,0.0,0.0,0.0,0.0,0.0,0.0,0.0,0.0,0.0,0.0,0.0,0.0,0.0,0.0,0.0,0.0,0.0,0.0,0.0,0.0,0.0,0.0,0.0,0.0,0.0,0.0,1.5952,1.5891,1.5891,1.5891,0.0,1.5891,1.5244,1.4922,1.4917,1.5417,1.5747,1.5891,1.5891,1.5891,1.5891,1.5891,1.5891,1.5891,1.5891,1.5891,1.5891,1.5891,1.5891,1.5891,1.5891,1.5891,1.5891,0.0,0.0,0.0,0.0,0.0,0.0,0.0,0.0,0.0,0.0,0.0,0.0,0.0,0.0,0.0,0.0,0.0,0.0,0.0,0.0,0.0,0.0,0.0,0.0,0.0,0.0,0.0,0.0,0.0,0.0,0.0561,0.1744,0.2856,0.0,0.418,0.0,0.0,0.0,0.0,0.0,0.0,0.3916,0.0,0.0,0.0,0.0,0.0,0.0,0.0,0.0,0.0,0.0,0.0,0.0,0.0,0.0,0.0,0.0,0.0,0.0,0.0,0.0,0.0,0.0,0.0,0.0,0.0,0.0,0.0,0.0,0.0,0.0,0.0,0.0,0.0,0.0,0.0,0.0,0.0,0.0,0.0,0.0,0.0,0.0,0.0,0.0,0.0,0.0,1.5692,1.5692,1.5692,1.5692,1.5692,1.5581,1.5258,1.4412,1.3986,1.3981,1.4966,1.5499,1.5692,1.5759,1.5795,1.5795,1.5861,1.5891,1.5891,1.5891,1.5891,1.5891,1.5565,1.5678,1.5891,1.5565,1.5672,1.5891,0.0,0.0,0.0,0.0,0.0,0.0,0.0,0.0,0.0,0.0,0.0,0.0,0.0,0.0,0.0,0.0,0.0,0.0,0.0,0.0,0.0,0.0,0.0,0.0,0.0,0.0,0.0,0.0,0.0,0.0,0.0449,0.119,0.2271,0.3664,0.4385,0.4249,0.3553,0.0,0.0,0.0,0.0,0.0,0.0,0.0,0.0,0.0,0.0,0.0,0.0,0.0,0.0,0.0,0.0,0.0,0.0,0.0,0.0,0.0,0.0,0.0,0.0,0.0,0.0,0.0,0.0,0.0,0.0,0.0,0.0,0.0,0.0,0.0,0.0,0.0,0.0,0.0,0.0,0.0,0.0,0.0,0.0,0.0,0.0,0.0,0.0,0.0,0.0,0.0,1.5149,1.5149,1.5149,1.5149,1.5149,1.4628,1.3594,1.3594,1.3491,1.3594,1.4616,1.5137,1.5155,1.5403,1.5517,1.5529,1.5783,1.5891,1.5891,1.5891,1.5891,1.5779,1.4708,1.4922,1.5785,1.4708,1.4922,1.5891,0.0,0.0,0.0,0.0,0.0,0.0,0.0,0.0,0.0,0.0,0.0,0.0,0.0,0.0,0.0,-0.1525,-0.2068,0.0,0.0,0.0,0.0,0.0,0.0,0.0,0.0,0.0,0.0,0.0,0.0,-0.0766,0.0183,0.083,0.1724,0.2805,0.3648,0.3898,0.3697,0.4451,0.0,0.0,0.0,0.0,0.0,0.0,0.0,0.0,0.0,0.0,0.0,0.0,0.0,0.0,0.0,0.0,0.0,0.0,0.0,0.0,0.0,0.0,0.0,0.0,0.0,0.0,0.0,0.0,0.0,0.0,0.0,0.0,0.0,0.0,0.0,0.0,0.0,0.0,0.0,0.0,0.0,0.0,0.0,0.0,0.0,0.0,0.0,0.0,0.0,0.0,1.3146,1.3146,1.3146,1.3146,1.3146,1.2833,1.2417,1.2273,1.2684,1.3443,1.3696,1.4317,1.5113,1.5203,1.5246,1.5252,1.5348,1.5578,1.5879,1.5704,1.5734,1.5873,1.5276,1.5423,1.5885,1.5458,1.5565,1.5891,0.0,0.0,0.0,0.0,0.0,0.0,0.0,0.0,0.0,0.0,0.0,0.0,0.0,0.0,0.0,-0.146,-0.2005,-0.2364,-0.253,-0.2834,0.0,0.0,0.0,0.0,0.0,0.0,0.0,0.0,0.0,0.0,0.0,0.0,0.1255,0.2155,0.2902,0.3373,0.0,0.0,0.0,0.3838,0.0,0.0,0.4648,0.0,0.0,0.0,0.0,0.0,0.0,0.0,0.0,0.0,0.0,0.0,0.0,0.0,0.0,0.0,0.0,0.0,0.0,0.0,0.0,0.0,0.0,0.0,0.0,0.0,0.0,0.0,0.0,0.0,0.0,0.0,0.0,0.0,0.0,0.0,0.0,0.0,0.0,0.0,0.0,0.0,0.0,0.0,0.0,0.0,1.1692,1.1692,1.1692,1.1692,1.1392,1.1184,1.1078,1.0943,1.1544,1.2697,1.284,1.365,1.4835,1.4932,1.498,1.498,1.5071,1.5306,1.5614,1.5439,1.5523,1.5734,1.5041,1.5258,1.5879,1.5358,1.5488,1.5891,0.0,0.0,0.0,0.0,0.0,0.0,0.0,0.0,0.0,0.0,0.0,0.0,0.0,0.0,0.0,-0.122,-0.1674,-0.2028,-0.2294,-0.264,0.0,0.0,0.0,0.0,0.0,0.0,0.0,0.0,0.0,0.0,0.0,0.0,0.0892,0.0,0.2141,0.2624,0.3274,0.0,0.3858,0.386,0.0,0.5032,0.515,0.0,0.0,0.0,0.5996,0.616,0.0,0.0,0.0,0.0,0.0,0.0,0.0,0.0,0.0,0.0,0.0,0.0,0.0,0.0,0.0,0.0,0.0,0.0,0.0,0.0,0.0,0.0,0.0,0.0,0.0,0.0,0.0,0.0,0.0,0.0,0.0,0.0,0.0,0.0,0.0,0.0,0.0,0.0,0.0,1.1072,1.1072,1.1072,1.1072,1.1072,1.0096,0.9608,0.9608,0.9608,1.0096,1.117,1.2145,1.3221,1.4304,1.4582,1.4702,1.4721,1.4974,1.5083,1.5083,1.5089,1.5252,1.5365,1.3957,1.4469,1.5749,1.4317,1.4701,1.5891,0.0,0.0,0.0,0.0,0.0,0.0,0.0,0.0,0.0,0.0,0.0,0.0,0.0,0.0,0.0,-0.17,-0.1864,-0.1995,-0.2121,-0.2368,-0.247,-0.2581,-0.2752,0.0,0.0,0.0,0.0,0.0,0.0,0.0,0.0,0.0,0.0,0.0,0.1746,0.2049,0.2554,0.3509,0.0,0.0,0.4952,0.5372,0.0,0.0,0.0,0.0,0.0,0.6144,0.0,0.0,0.5707,0.5419,0.0,0.0,0.0,0.0,0.0,0.0,0.4277,0.0,0.0,0.0,0.0,0.0,0.6199,0.6705,0.0,0.0,0.0,0.0,0.0,0.0,0.0,0.0,0.0,0.0,0.0,0.0,0.0,0.0,0.0,0.0,0.0,0.0,0.0,0.0,0.0,0.8924,0.8924,0.8924,0.8924,0.8924,0.8627,0.8825,0.9608,0.8825,0.941,1.117,1.1463,1.2145,1.3125,1.3984,1.4413,1.4419,1.4491,1.4521,1.4539,1.4739,1.5089,1.5475,1.4897,1.511,1.5879,1.5482,1.5606,1.5891,0.0,0.0,0.0,0.0,0.0,0.0,0.0,0.0,0.0,0.0,0.0,0.0,0.0,0.0,0.0,0.0,-0.1618,-0.1751,-0.192,-0.2039,-0.2142,-0.2219,-0.2497,-0.2743,0.0,0.0,0.0,0.0,0.0,0.0,0.0,0.0,0.0,0.0,0.0,0.0,0.0,0.0,0.0,0.0,0.4942,0.0,0.0,0.6147,0.6505,0.0,0.0,0.0,0.6414,0.6296,0.595,0.0,0.0,0.0,0.0,0.0,0.0,0.0,0.0,0.0,0.0,0.0,0.0,0.0,0.5838,0.6213,0.6566,0.0,0.0,0.0,0.0,0.0,0.0,0.0,0.0,0.0,0.0,0.0,0.0,0.0,0.0,0.0,0.0,0.0,0.0,0.0,0.8333,0.8038,0.8038,0.8038,0.8038,0.8038,0.8038,0.8333,0.892,0.8333,0.8825,1.0489,1.0489,1.1268,1.2727,1.3318,1.3908,1.4298,1.4298,1.4298,1.431,1.4473,1.4787,1.5155,1.5004,1.5264,1.5728,1.5728,1.5795,1.5891,0.0,0.0,0.0,0.0,0.0,0.0,0.0,0.0,0.0,0.0,0.0,0.0,0.0,0.0,0.0,0.0,-0.1067,-0.1323,-0.1537,-0.1668,-0.1731,-0.1787,-0.2103,-0.2444,-0.2724,0.0,0.0,0.0,0.0,0.0,0.0,0.0,0.0,0.0,0.0,0.0,0.0,0.0,0.0,0.3814,0.4917,0.5565,0.0,0.0,0.6666,0.0,0.6717,0.684,0.7011,0.6753,0.6226,0.0,0.0,0.0,0.0,0.0,0.4489,0.0,0.0,0.0,0.0,0.0,0.0,0.0,0.5757,0.5911,0.6048,0.0,0.0,0.0,0.0,0.0,0.0,0.0,0.0,0.0,0.0,0.0,0.0,0.0,0.0,0.0,0.0,0.0,0.8038,0.8038,0.8038,0.8038,0.8038,0.8038,0.8038,0.8038,0.8038,0.8038,0.8038,0.8038,0.8432,0.941,0.9509,1.0583,1.2533,1.263,1.3318,1.4298,1.4298,1.4298,1.4298,1.4298,1.4461,1.4714,1.4714,1.5034,1.5499,1.5499,1.5662,1.5891,0.0896,0.0,0.0,0.0,0.0,0.0,0.0,0.0,0.0,0.0,0.0,0.0,0.0,0.0,0.0,0.0,0.0,-0.0377,0.0,-0.063,-0.0758,-0.1233,-0.1513,-0.1891,-0.2324,-0.1752,0.0,0.0,0.0,0.0,0.0,0.0,0.0,0.0,0.0,0.0,0.0,0.0,0.0,0.4433,0.495,0.0,0.6205,0.6484,0.6753,0.7034,0.689,0.6847,0.6782,0.0,0.6361,0.6175,0.0,0.0,0.0,0.0,0.0,0.0,0.0,0.0,0.0,0.0,0.0,0.0,0.5122,0.5174,0.5272,0.0,0.0,0.0,0.0,0.0,0.0,0.0,0.0,0.0,0.0,0.0,0.0,0.0,0.0,0.0,0.0,0.0,0.8038,0.8038,0.8038,0.8038,0.8038,0.8038,0.8038,0.8038,0.8038,0.8038,0.8038,0.8038,0.8137,0.8333,0.9217,1.0293,1.156,1.2339,1.3318,1.4298,1.4298,1.4298,1.4298,1.4298,1.4461,1.4714,1.4714,1.5034,1.5499,1.5499,1.5662,1.5891,0.1122,0.0,0.0,0.0,0.0,0.0,0.0,0.0,0.0,0.0,0.0,0.0,0.0,0.0,0.0,0.0,0.0,0.0,0.0,0.0,0.0133,-0.0515,-0.1045,-0.1495,-0.1959,-0.147,0.0,0.0,0.0,0.0,0.0,0.0,0.0,0.0,0.0,0.0,0.0,0.0,0.4087,0.4857,0.5272,0.0,0.6503,0.6743,0.6987,0.7132,0.7058,0.6994,0.6979,0.6869,0.6662,0.0,0.0,0.6288,0.6132,0.0,0.5496,0.5435,0.0,0.0,0.0,0.5257,0.0,0.0,0.0,0.5022,0.492,0.4952,0.0,0.0,0.0,0.0,0.0,0.0,0.0,0.0,0.0,0.0,0.0,0.0,0.0,0.0,0.0,0.0,0.7957,0.8035,0.797,0.7926,0.7926,0.7926,0.7926,0.7926,0.7997,0.8038,0.8038,0.8038,0.8038,0.8038,0.8528,0.9608,1.1175,1.1755,1.2829,1.4298,1.4298,1.4298,1.4298,1.4298,1.4383,1.4521,1.466,1.4877,1.5143,1.5403,1.5584,1.5716,0.129,0.0,0.0,0.0,0.0,0.0,0.0,0.0,0.0,0.0,0.0,0.0,0.0,0.0,0.0,0.0,0.0,0.0,0.0,0.0,0.0,0.0542,-0.0337,-0.0998,-0.1369,-0.091,-0.0192,0.0,0.0,0.0,0.0,0.0,0.0,0.0,0.0,0.0,0.0,0.0,0.0,0.5375,0.0,0.615,0.6634,0.6861,0.7094,0.718,0.7149,0.7139,0.7163,0.7319,0.0,0.6526,0.6735,0.6634,0.0,0.0,0.0,0.0,0.0,0.0,0.0,0.0,0.0,0.5056,0.0,0.0,0.0,0.486,0.0,0.0,0.0,0.0,0.0,0.0,0.0,0.0,0.0,0.0,0.0,0.0,0.0,0.0,0.0,0.0,0.7767,0.7858,0.7807,0.7756,0.7729,0.7753,0.7784,0.7811,0.7929,0.8011,0.8038,0.8038,0.8038,0.8038,0.8038,0.9019,1.0881,1.1072,1.2247,1.4004,1.4196,1.4298,1.4298,1.4298,1.4298,1.4322,1.4545,1.4666,1.4775,1.5246,1.5457,1.5535,0.1178,0.101,0.0,0.0,0.0,0.0,0.0,0.0,0.0,0.0,0.0,0.0,0.0,0.0,0.0,0.0,0.0,0.0,0.3156,0.0,0.0,0.0,0.102,0.0268,0.0134,0.0268,0.0396,0.0448,0.0,0.0,0.0,0.0,0.0,0.0,0.3106,0.0,0.0,0.0,0.5132,0.0,0.5933,0.6115,0.0,0.665,0.6979,0.7326,0.719,0.7139,0.7163,0.0,0.7091,0.6726,0.0,0.6712,0.0,0.0,0.0,0.0,0.0,0.0,0.0,0.0,0.5285,0.0,0.0,0.0,0.4639,0.4448,0.0,0.0,0.0,0.0,0.0,0.0,0.0,0.0,0.0,0.0,0.0,0.0,0.0,0.0,0.0,0.0,0.0,0.7251,0.7478,0.7563,0.7431,0.755,0.7682,0.7807,0.7828,0.7902,0.8038,0.8038,0.8038,0.8038,0.8038,0.8627,0.9805,1.0783,1.1853,1.2926,1.3902,1.4298,1.4298,1.4298,1.4298,1.4298,1.4334,1.4497,1.4751,1.5046,1.53,1.5535,0.1459,0.1254,0.0,0.0,0.0,0.0,0.0,0.0,0.0,0.0,0.0,0.0,0.0,0.0,0.0,0.0,0.0,0.4015,0.0,0.0,0.0,0.0,0.0,0.0,0.1238,0.1016,0.0935,0.0792,0.1429,0.0,0.0,0.0,0.0,0.0,0.3436,0.0,0.4735,0.0,0.0,0.0,0.0,0.0,0.0,0.6796,0.7055,0.7227,0.7163,0.7139,0.7149,0.0,0.7075,0.0,0.0,0.0,0.0,0.0,0.0,0.0,0.0,0.0,0.0,0.0,0.0,0.0,0.0,0.0,0.4478,0.0,0.0,0.0,0.0,0.0,0.0,0.0,0.0,0.0,0.0,0.0,0.0,0.0,0.0,0.0,0.0,0.0,0.0,0.0,0.0,0.7268,0.7122,0.7255,0.736,0.7417,0.7597,0.7756,0.7906,0.7909,0.795,0.8038,0.8038,0.8528,0.9608,1.0096,1.117,1.2727,1.3216,1.3709,1.4298,1.4298,1.4298,1.4298,1.4298,1.437,1.4509,1.4781,1.495,1.5083,0.1672,0.0,0.0,0.0,0.0,0.0,0.0,0.0,0.0,0.0,0.0,0.0,0.388,0.4225,0.0,0.0,0.0,0.5089,0.0,0.0,0.4075,0.0,0.0,0.0,0.0,0.0,0.1863,0.2015,0.0,0.0,0.0,0.0,0.0,0.0,0.0,0.4413,0.5184,0.0,0.0,0.6329,0.6443,0.6671,0.6847,0.7048,0.7177,0.7139,0.7139,0.7139,0.7146,0.719,0.7072,0.0,0.7048,0.0,0.0,0.0,0.0,0.0,0.6318,0.0,0.0,0.0,0.0,0.0,0.0,0.0,0.0,0.0,0.0,0.0,0.0,0.0,0.0,0.0,0.0,0.0,0.0,0.0,0.0,0.0,0.0,0.0,0.0,0.0,0.0,0.0,0.6947,0.0,0.6875,0.7004,0.7119,0.72,0.7421,0.7624,0.7811,0.7811,0.7889,0.8038,0.8038,0.8432,0.9217,0.9509,1.0386,1.1853,1.2436,1.3119,1.3902,1.4196,1.4298,1.4298,1.4298,1.4298,1.4334,1.4612,1.4714,1.4757,0.1782,0.1442,0.0,0.0,0.0,0.0,0.0,0.0,0.0,0.0,0.0,0.0,0.0,0.0,0.0,0.0,0.0,0.5956,0.6179,0.0,0.4905,0.0,0.0,0.3745,0.0,0.0,0.0,0.4298,0.0,0.0,0.0,0.0,0.0,0.0,0.0,0.4844,0.5586,0.5882,0.643,0.7037,0.6877,0.6884,0.7074,0.0,0.7272,0.7139,0.7139,0.0,0.0,0.7312,0.7091,0.0,0.0,0.0,0.0,0.0,0.0,0.0,0.0,0.0,0.0,0.6269,0.0,0.0,0.0,0.0,0.5193,0.0,0.0,0.0,0.0,0.0,0.0,0.0,0.0,0.0,0.0,0.0,0.0,0.0,0.0,0.0,0.0,0.0,0.0,0.0,0.6602,0.0,0.6715,0.6854,0.7068,0.7356,0.7373,0.7516,0.7807,0.7811,0.7889,0.8038,0.8038,0.8041,0.8038,0.9118,0.9608,0.9805,1.1853,1.2732,1.2829,1.3902,1.4298,1.4298,1.4298,1.4298,1.4334,1.4612,1.4714,1.4757,0.0,0.0,0.0,0.0,0.0,0.0,0.0,0.2562,0.0,0.0,0.0,0.0,0.0,0.0,0.6856,0.0,0.0,0.6731,0.6782,0.5805,0.0,0.0,0.0,0.4711,0.0,0.0,0.0,0.0,0.0,0.0,0.0,0.0,0.0,0.0,0.0,0.4958,0.0,0.0,0.0,0.0,0.0,0.7029,0.7288,0.0,0.0,0.7139,0.7139,0.7139,0.0,0.72,0.7161,0.7195,0.7055,0.7141,0.7244,0.6872,0.7009,0.0,0.0,0.0,0.7284,0.6897,0.0,0.0,0.0,0.0,0.0,0.0,0.0,0.0,0.0,0.0,0.0,0.0,0.0,0.0,0.0,0.0,0.0,0.0,0.0,0.0,0.0,0.0,0.0,0.6028,0.6351,0.6563,0.0,0.6549,0.6719,0.6922,0.7024,0.7221,0.7516,0.7621,0.7743,0.7889,0.7991,0.8038,0.8038,0.8333,0.892,0.9608,1.0391,1.1463,1.2727,1.3119,1.3709,1.4298,1.4298,1.4298,1.431,1.4401,1.4437,1.4479,0.3593,0.0,0.0,0.0,0.0,0.0,0.0,0.0,0.0,0.0,0.5074,0.0,0.7117,0.0,0.7517,0.0,0.7518,0.7429,0.7273,0.6601,0.0,0.6792,0.6014,0.0,0.0,0.0,0.0,0.0,0.0,0.4189,0.0,0.0,0.0,0.0,0.0,0.0,0.0,0.0,0.6557,0.0,0.0,0.7025,0.0,0.0,0.7173,0.0,0.0,0.7139,0.7139,0.7139,0.7207,0.7282,0.7238,0.736,0.7512,0.7283,0.7341,0.7524,0.724,0.7438,0.0,0.0,0.7062,0.0,0.6701,0.0,0.0,0.0,0.0,0.0,0.0,0.0,0.0,0.0,0.0,0.0,0.0,0.509,0.0,0.0,0.0,0.0,0.0,0.0,0.6151,0.5954,0.6232,0.6378,0.0,0.0,0.659,0.6848,0.6905,0.7095,0.7448,0.755,0.7699,0.7892,0.7991,0.8038,0.8038,0.8038,0.8333,0.9019,0.941,1.0386,1.1658,1.2436,1.3119,1.3806,1.41,1.4298,1.4298,1.4298,1.4298,1.4322,0.0,0.0,0.0,0.0,0.2432,0.0,0.0,0.0,0.4774,0.0,0.6392,0.6792,0.7962,0.8225,0.8248,0.8085,0.8208,0.0,0.7672,0.7574,0.0,0.0,0.664,0.648,0.635,0.0,0.0,0.0,0.0,0.0,0.0,0.0,0.0,0.0,0.4792,0.0,0.5922,0.6309,0.6701,0.7139,0.7139,0.7146,0.7149,0.7143,0.0,0.7353,0.7193,0.7139,0.7139,0.7139,0.7139,0.7166,0.7312,0.7366,0.74,0.7546,0.7689,0.7704,0.7514,0.7713,0.7753,0.7,0.0,0.0,0.0,0.0,0.6377,0.0,0.0,0.0,0.0,0.0,0.0,0.0,0.0,0.0,0.0,0.0,0.0,0.0,0.0,0.0,0.0,0.5546,0.5749,0.5883,0.6076,0.638,0.0,0.0,0.0,0.7115,0.6993,0.7132,0.7584,0.7597,0.7743,0.8028,0.8035,0.8038,0.8038,0.8038,0.8038,0.8038,0.9118,0.9509,0.9805,1.1755,1.263,1.2829,1.3902,1.4298,1.4298,1.4298,1.4298,1.4298,0.4588,0.3809,0.3172,0.0,0.322,0.3563,0.0,0.0,0.0,0.0,0.74,0.8005,0.8835,0.8903,0.8821,0.856,0.8574,0.0,0.0,0.0,0.0,0.7724,0.7218,0.704,0.7082,0.657,0.0,0.72,0.0,0.0,0.5927,0.0,0.0,0.0,0.0,0.0,0.6173,0.6418,0.6797,0.7139,0.7139,0.721,0.0,0.0,0.7238,0.7353,0.7193,0.7139,0.7139,0.7139,0.7139,0.7146,0.7187,0.7278,0.738,0.7417,0.7536,0.7655,0.756,0.7587,0.7692,0.7429,0.7409,0.7493,0.0,0.0,0.0,0.0,0.0,0.0,0.0,0.0,0.0,0.0,0.0,0.0,0.0,0.0,0.0,0.0,0.0,0.0,0.5323,0.5617,0.5786,0.5718,0.5918,0.0,0.0,0.0,0.0,0.6973,0.6837,0.6976,0.7424,0.7543,0.7692,0.7872,0.7984,0.8038,0.8038,0.8038,0.8038,0.8041,0.8333,0.8821,0.9702,1.1072,1.2047,1.2829,1.3902,1.4298,1.4298,1.4298,1.4298,1.4328,0.5132,0.0,0.0,0.3657,0.0,0.0,0.4832,0.0,0.0,0.7917,0.8059,0.0,0.9143,0.9288,0.9133,0.8835,0.8869,0.0,0.0,0.0,0.0,0.8153,0.7878,0.7531,0.7282,0.6966,0.0,0.7175,0.0,0.0,0.6316,0.0,0.0,0.0,0.0,0.6128,0.0,0.6662,0.7014,0.7413,0.7166,0.0,0.0,0.7173,0.7193,0.7258,0.7173,0.7139,0.7139,0.7139,0.7139,0.7153,0.7221,0.7302,0.7383,0.7451,0.7533,0.76,0.76,0.76,0.7584,0.7516,0.7499,0.7499,0.7499,0.7406,0.7293,0.0,0.0,0.0,0.0,0.0,0.0,0.0,0.0,0.0,0.0,0.0,0.0,0.0,0.4928,0.0,0.5086,0.5487,0.5764,0.5781,0.0,0.0,0.0,0.0,0.0,0.7007,0.6878,0.7044,0.7556,0.7648,0.7733,0.7814,0.7967,0.8004,0.794,0.8011,0.8038,0.8038,0.8038,0.8333,0.9019,1.0096,1.1072,1.2145,1.3709,1.4298,1.4298,1.4298,1.4298,1.4322,0.0,0.0,0.0,0.0,0.0,0.0,0.0,0.6352,0.0,0.8849,0.0,0.8455,0.9346,0.9467,0.9269,0.8991,0.0,0.9015,0.8757,0.8866,0.8747,0.8316,0.8282,0.7895,0.7224,0.7324,0.0,0.0,0.0,0.6552,0.6443,0.0,0.0,0.0,0.0,0.0,0.0,0.6977,0.7289,0.0,0.7282,0.7139,0.7139,0.7139,0.7139,0.7139,0.7139,0.7139,0.7139,0.7139,0.7139,0.7163,0.7299,0.7356,0.7397,0.7533,0.757,0.757,0.757,0.7556,0.7509,0.7373,0.7343,0.7343,0.7343,0.7161,0.7073,0.7343,0.7161,0.0,0.0,0.0,0.0,0.0,0.0,0.0,0.0,0.0,0.0,0.0,0.0,0.0,0.0,0.5412,0.5733,0.0,0.0,0.0,0.0,0.0,0.0,0.0,0.7031,0.0,0.7804,0.0,0.7821,0.7841,0.7977,0.797,0.7845,0.7977,0.8038,0.8038,0.8038,0.8038,0.8038,0.9118,1.0194,1.1365,1.3318,1.41,1.41,1.41,1.41,1.41,0.0,0.0,0.0,0.0,0.0,0.7161,0.7167,0.7509,0.8119,0.9059,0.9295,0.0,0.9503,0.9425,0.931,0.913,0.9028,0.0,0.0,0.0,0.0,0.8459,0.8333,0.8048,0.757,0.7108,0.7048,0.0,0.6615,0.6398,0.6619,0.6746,0.0,0.0,0.0,0.0,0.7281,0.7094,0.0,0.7177,0.7153,0.7139,0.7139,0.7139,0.7139,0.7139,0.7139,0.7139,0.7139,0.7139,0.7139,0.7146,0.7173,0.7268,0.7377,0.7404,0.7411,0.7411,0.7411,0.7319,0.7214,0.7187,0.718,0.718,0.718,0.7091,0.7091,0.718,0.7091,0.7084,0.7058,0.0,0.0,0.0,0.0,0.0,0.0,0.0,0.0,0.0,0.0,0.0,0.0,0.0,0.0,0.0,0.0,0.0,0.0,0.0,0.0,0.0,0.0,0.0,0.0,0.0,0.0,0.7997,0.8028,0.8024,0.8001,0.8028,0.8038,0.8038,0.8038,0.8038,0.8038,0.9118,1.0194,1.1365,1.2533,1.3022,1.3022,1.3022,1.3022,1.3119,0.0,0.0,0.0,0.0,0.0,0.0,0.0,0.8469,0.0,0.9599,0.9439,0.9332,0.961,0.9494,0.9289,0.9062,0.9049,0.9018,0.8944,0.894,0.8801,0.8496,0.8418,0.0,0.7611,0.7208,0.7005,0.7268,0.6776,0.6672,0.6932,0.7169,0.7166,0.6961,0.0,0.753,0.0,0.0,0.0,0.7431,0.7173,0.7139,0.7139,0.7139,0.7139,0.7139,0.7139,0.7139,0.7139,0.7139,0.7139,0.7139,0.7139,0.719,0.7251,0.7251,0.7251,0.7251,0.7251,0.7197,0.7139,0.7139,0.7139,0.7139,0.7139,0.7139,0.7139,0.7139,0.7139,0.7051,0.6969,0.676,0.0,0.0,0.0,0.0,0.0,0.0,0.0,0.0,0.0,0.0,0.0,0.0,0.0,0.0,0.0,0.0,0.0,0.0,0.0,0.0,0.0,0.0,0.0,0.0,0.0,0.7923,0.7923,0.7923,0.7923,0.8004,0.8038,0.8038,0.8038,0.8038,0.8038,0.9118,0.9899,1.0489,1.156,1.195,1.195,1.2533,1.2047,1.1365,0.0,0.7318,0.0,0.0,0.7948,0.0,0.0,0.9085,0.9775,0.9888,0.9445,0.9181,0.9638,0.9459,0.9286,0.9052,0.9079,0.9059,0.8947,0.894,0.8815,0.854,0.8499,0.8235,0.7706,0.7363,0.7145,0.0,0.7001,0.6997,0.7138,0.7534,0.7649,0.0,0.0,0.0,0.0,0.0,0.7197,0.758,0.7279,0.7139,0.7139,0.7139,0.7139,0.7139,0.7139,0.7139,0.7139,0.7139,0.7139,0.7139,0.7139,0.7139,0.7139,0.7139,0.7139,0.7139,0.7139,0.7139,0.7139,0.7139,0.7139,0.7139,0.7139,0.7139,0.7139,0.7139,0.7139,0.7054,0.6881,0.6786,0.0,0.0,0.0,0.0,0.0,0.0,0.0,0.0,0.0,0.0,0.0,0.0,0.0,0.0,0.0,0.0,0.0,0.0,0.0,0.0,0.0,0.0,0.8035,0.0,0.7811,0.0,0.778,0.778,0.7814,0.7936,0.8007,0.8038,0.8038,0.8038,0.8038,0.9118,0.9509,0.941,1.0489,1.0881,1.0974,1.2047,1.117,0.9899,0.0,0.0,0.0,0.0,0.0,0.0,0.0,0.9288,0.9802,0.9802,0.9778,0.9758,0.9758,0.9534,0.9371,0.9344,0.9106,0.8954,0.894,0.894,0.8862,0.8696,0.8557,0.833,0.8007,0.757,0.7288,0.0,0.0,0.7076,0.7079,0.7521,0.7649,0.0,0.0,0.0,0.0,0.7169,0.7136,0.716,0.7146,0.7139,0.7139,0.7139,0.7139,0.7139,0.7139,0.7139,0.7139,0.7139,0.7139,0.7139,0.7139,0.7139,0.7139,0.7139,0.7139,0.7139,0.7139,0.7139,0.7139,0.7139,0.7139,0.7139,0.7139,0.7139,0.7139,0.7139,0.7139,0.7051,0.7054,0.7041,0.7031,0.0,0.0,0.0,0.0,0.0,0.0,0.0,0.0,0.0,0.0,0.6311,0.0,0.0,0.0,0.0,0.0,0.0,0.0,0.0,0.0,0.7726,0.8035,0.7889,0.0,0.7811,0.7682,0.7685,0.7811,0.7824,0.7909,0.8038,0.8038,0.8038,0.8038,0.9118,0.9019,0.8237,0.9316,0.9702,0.9899,1.0974,1.0587,0.9805,0.0,0.0,0.0,0.0,0.0,0.0,0.0,1.0901,1.1269,1.1261,1.0343,0.9813,0.9933,0.9655,0.9471,0.9471,0.9279,0.9158,0.894,0.894,0.8869,0.8716,0.8564,0.8343,0.8045,0.76,0.7343,0.0,0.0,0.0,0.0,0.7638,0.0,0.0,0.0,0.7312,0.7361,0.7065,0.7061,0.7139,0.7139,0.7139,0.7139,0.7139,0.7139,0.7139,0.7139,0.7139,0.7139,0.7139,0.7139,0.7139,0.7139,0.7139,0.7139,0.7139,0.7139,0.7139,0.7139,0.7139,0.7139,0.7139,0.7139,0.7139,0.7139,0.7139,0.7139,0.7139,0.7139,0.7139,0.7139,0.7139,0.7139,0.0,0.0,0.0,0.0,0.0,0.0,0.0,0.0,0.0,0.0,0.0,0.6295,0.0,0.0,0.0,0.0,0.0,0.0,0.7134,0.0,0.7655,0.7773,0.7797,0.7811,0.7811,0.7753,0.7804,0.7946,0.7946,0.798,0.8038,0.8038,0.8038,0.8038,0.8432,0.8432,0.8038,0.8432,0.8627,0.8726,0.9801,0.9608,0.8825,1.3776,0.0,1.1778,0.0,1.3084,1.3012,1.201,1.2384,1.2822,1.2933,1.1869,1.1205,1.1442,1.1121,1.0681,1.0232,1.0043,0.9702,0.9047,0.9047,0.8999,0.8889,0.8738,0.0,0.8241,0.7797,0.7526,0.7438,0.7438,0.0,0.0,0.0,0.0,0.0,0.7929,0.7822,0.7231,0.7323,0.7309,0.7139,0.7139,0.7143,0.7231,0.7139,0.7143,0.7231,0.7139,0.7139,0.7139,0.7139,0.7139,0.7139,0.7139,0.7139,0.7139,0.7139,0.7139,0.7139,0.7139,0.7139,0.7139,0.7139,0.7139,0.7139,0.7139,0.7139,0.7139,0.7139,0.7139,0.7139,0.7139,0.7139,0.7139,0.0,0.0,0.0,0.0,0.0,0.0,0.0,0.6807,0.6634,0.6295,0.0,0.0,0.0,0.0,0.0,0.0,0.0,0.0,0.0,0.0,0.0,0.0,0.0,0.7811,0.7811,0.777,0.7828,0.7974,0.8018,0.8038,0.8038,0.8038,0.8038,0.8038,0.8038,0.8038,0.8038,0.8038,0.8038,0.8137,0.9217,0.892,0.8144,1.5223,1.4411,1.381,1.3868,1.3944,1.3582,1.2492,1.3295,1.4242,1.4485,1.4599,1.4599,1.4599,1.4079,1.325,1.1893,1.1325,1.0566,0.9489,0.9379,0.9379,0.0,0.0,0.9029,0.8703,0.8262,0.7889,0.7597,0.0,0.0,0.7127,0.0,0.0,0.7028,0.9177,0.8962,0.6943,0.8036,0.7929,0.7139,0.7139,0.7234,0.7507,0.7231,0.7234,0.7415,0.7231,0.7139,0.7139,0.7139,0.7139,0.7139,0.7139,0.7139,0.7139,0.7139,0.7139,0.7139,0.7139,0.7139,0.7139,0.7139,0.7139,0.7139,0.7139,0.7139,0.7139,0.7139,0.7139,0.7139,0.7139,0.7139,0.7139,0.7139,0.0,0.0,0.0,0.0,0.0,0.0,0.6834,0.6753,0.6305,0.0,0.0,0.0,0.0,0.0,0.0,0.0,0.0,0.758,0.7597,0.0,0.8031,0.7885,0.7811,0.7811,0.7668,0.7678,0.7818,0.797,0.8038,0.8038,0.8038,0.8038,0.8038,0.8038,0.8038,0.8038,0.8038,0.8038,0.8137,0.9217,0.892,0.8158,1.6615,1.5959,1.5568,1.6278,1.6799,1.6841,1.5439,1.5844,1.6395,1.6504,1.66,1.6792,1.7438,1.5607,1.3989,0.0,1.3003,1.2295,0.0,1.0785,1.046,0.9706,0.9548,0.9411,0.9093,0.8823,0.8376,0.7879,0.0,0.0,0.0,0.8255,0.8124,0.7022,0.9039,0.8907,0.7075,0.8082,0.7929,0.7139,0.7323,0.7415,0.7507,0.7588,0.7676,0.7768,0.7503,0.7415,0.7323,0.7143,0.7139,0.7139,0.7139,0.7139,0.7139,0.7139,0.7139,0.7139,0.7139,0.7139,0.7139,0.7139,0.7139,0.7139,0.7139,0.7139,0.7139,0.7139,0.7139,0.7139,0.7139,0.7139,0.7139,0.7139,0.0,0.0,0.0,0.0,0.0,0.0,0.0,0.6675,0.0,0.6444,0.0,0.0,0.0,0.0,0.0,0.0,0.0,0.0,0.7396,0.0,0.774,0.7889,0.7916,0.7811,0.7872,0.7923,0.797,0.8018,0.8038,0.8038,0.8038,0.8038,0.8038,0.8038,0.8038,0.8052,0.8153,0.8197,0.8208,0.8713,0.8582,0.8306,1.7602,1.7045,1.6619,1.7074,1.7798,1.7952,1.704,1.7463,1.7909,1.7917,1.8089,1.834,1.8539,1.7042,0.0,1.4845,1.4483,0.0,1.2403,1.1973,1.1328,1.0684,1.0147,0.9723,0.9514,0.0,0.0,0.8426,0.8034,0.7811,0.7752,0.8347,0.8173,0.7613,0.9525,0.9231,0.7228,0.8973,0.8715,0.7323,0.7937,0.8028,0.7764,0.7856,0.794,0.794,0.7768,0.7595,0.7507,0.7323,0.7143,0.7139,0.7139,0.7139,0.7139,0.7139,0.7139,0.7139,0.7139,0.7139,0.7139,0.7139,0.7139,0.7139,0.7139,0.7139,0.7139,0.7139,0.7139,0.7139,0.7139,0.7187,0.7207,0.7149,0.0,0.7187,0.0,0.0,0.0,0.0,0.0,0.0,0.0,0.6576,0.0,0.0,0.0,0.0,0.0,0.0,0.0,0.695,0.7445,0.0,0.7767,0.7946,0.7991,0.7896,0.7994,0.8038,0.8038,0.8038,0.8038,0.8038,0.8038,0.8038,0.8038,0.8038,0.8072,0.813,0.817,0.8218,0.8275,0.8306,0.8258,0.8194,1.8108,1.7661,0.0,0.0,1.7117,0.0,1.7713,1.8401,1.8932,1.8904,1.9192,1.9018,1.817,1.8303,1.7767,1.6132,0.0,0.0,0.0,1.2733,1.2091,1.1982,1.0903,0.0,0.9798,0.9492,0.9338,0.9146,0.8188,0.8053,0.8796,0.8549,0.839,0.8456,1.0458,0.9753,0.7401,1.0453,1.0111,0.768,0.8803,0.8803,0.8201,0.8028,0.8028,0.8201,0.8028,0.7768,0.7507,0.7507,0.7323,0.7139,0.7139,0.7139,0.7139,0.7139,0.7139,0.7139,0.7139,0.7139,0.7143,0.7153,0.7156,0.7153,0.7143,0.7139,0.7139,0.7139,0.7149,0.7156,0.7156,0.7282,0.7336,0.718,0.7278,0.7268,0.697,0.0,0.0,0.0,0.0,0.0,0.0,0.6763,0.6939,0.0,0.0,0.0,0.0,0.0,0.7468,0.7611,0.7753,0.7896,0.8038,0.8038,0.8038,0.8038,0.8038,0.8038,0.8038,0.8038,0.8038,0.8038,0.8038,0.8038,0.8038,0.8038,0.8126,0.8241,0.8106,0.8143,0.8255,0.8119,0.8065,0.8075,0.0,0.0,1.8443,1.8323,1.8738,1.905,1.8943,1.9292,1.9548,1.9599,1.9265,1.8865,1.8437,1.8243,1.7915,1.7277,1.708,1.6605,1.5429,1.4245,1.3166,1.2304,1.1232,1.0522,1.0281,1.0067,0.9937,0.9964,0.9457,0.9132,0.889,0.9522,0.8983,0.7577,1.0106,1.0106,0.8364,1.0717,1.0458,0.8632,0.9235,0.8973,0.8201,0.8384,0.8476,0.8472,0.8204,0.8028,0.7768,0.7591,0.7323,0.7139,0.7139,0.7139,0.7139,0.7139,0.7139,0.7139,0.7139,0.7139,0.717,0.7288,0.7316,0.7285,0.7166,0.7139,0.7139,0.7139,0.7234,0.7316,0.7316,0.7441,0.7495,0.7339,0.735,0.7268,0.697,0.0,0.0,0.0,0.6814,0.6902,0.6827,0.6888,0.7024,0.0,0.0,0.0,0.0,0.0,0.763,0.7574,0.7811,0.8004,0.8038,0.8038,0.8038,0.8038,0.8038,0.8038,0.8038,0.8038,0.8038,0.8038,0.8038,0.8038,0.8038,0.8038,0.8062,0.8102,0.8184,0.8238,0.8279,0.835,0.8309,0.8221,1.8965,1.9101,1.9192,1.9073,1.9448,1.974,1.9575,1.9561,1.9506,1.9239,1.9038,1.8704,1.8136,1.8056,1.7923,1.7609,1.7582,1.7364,1.6723,1.5535,1.4674,1.403,1.2847,1.1937,1.1298,1.1217,1.0977,1.0574,0.982,0.9626,0.9969,0.9345,0.8593,0.7945,0.9362,0.9551,0.9021,1.1238,1.1305,1.0064,1.0421,0.9934,0.8986,0.8736,0.8568,0.8568,0.8472,0.8204,0.8028,0.7768,0.7499,0.7234,0.7143,0.7139,0.7139,0.7139,0.719,0.7244,0.7244,0.7299,0.737,0.7455,0.7475,0.7455,0.737,0.735,0.735,0.735,0.7417,0.7475,0.7475,0.7543,0.755,0.7397,0.737,0.7268,0.697,0.6997,0.0,0.6824,0.6936,0.7054,0.7122,0.7193,0.7302,0.7465,0.0,0.0,0.7692,0.7834,0.7788,0.7624,0.7861,0.8038,0.8038,0.8038,0.8038,0.8038,0.8038,0.8038,0.8038,0.8038,0.8038,0.8038,0.8038,0.8038,0.8038,0.8038,0.8079,0.8147,0.816,0.8208,0.8272,0.8275,0.8231,0.8167,1.9056,1.9469,1.9628,1.9417,1.9635,1.9733,1.9733,1.9526,1.9172,1.8631,1.8731,1.8551,1.7742,1.7849,1.7869,1.7602,1.7582,1.7582,1.7582,1.6505,1.5861,1.5861,1.4781,1.3599,1.263,1.251,1.2086,1.1487,1.0232,1.0236,1.1138,0.9063,0.829,0.8655,0.869,0.8974,0.9664,1.1834,1.2349,1.1709,1.1815,1.1076,0.9948,0.8962,0.8605,0.8605,0.8576,0.8384,0.8201,0.794,0.768,0.7415,0.7143,0.7139,0.7139,0.7139,0.7265,0.74,0.7377,0.7499,0.7628,0.7604,0.7614,0.7628,0.7604,0.76,0.76,0.76,0.7617,0.7631,0.7631,0.7631,0.759,0.7458,0.7421,0.7302,0.7004,0.0,0.7014,0.6966,0.7109,0.7261,0.7394,0.7522,0.7607,0.7631,0.7743,0.0,0.0,0.797,0.798,0.7848,0.797,0.8038,0.8038,0.8062,0.8062,0.8038,0.8085,0.8082,0.8038,0.8065,0.8062,0.8038,0.8038,0.8038,0.8038,0.8038,0.8116,0.8221,0.8092,0.8119,0.8218,0.8089,0.8038,0.8038,1.9679,1.9566,1.9512,1.9635,1.9593,1.9432,1.9432,1.9399,1.9245,1.8905,1.8684,1.841,1.8016,1.7782,1.7635,1.7589,1.7582,1.7582,1.7582,1.6505,1.5861,1.5861,1.4781,1.4024,1.3814,1.3404,1.3367,1.3783,1.3105,1.2283,1.1323,1.0863,0.9626,0.784,0.9015,1.0025,1.0774,1.2381,1.3018,1.2881,1.224,1.1395,1.0346,0.9194,0.8779,0.8763,0.8617,0.8384,0.8201,0.794,0.768,0.7415,0.7143,0.7139,0.7139,0.7139,0.7343,0.7536,0.7407,0.757,0.775,0.7631,0.7689,0.7746,0.7628,0.76,0.76,0.76,0.7695,0.7777,0.7777,0.7777,0.777,0.7746,0.7641,0.7458,0.0,0.0,0.7397,0.7139,0.7356,0.7539,0.7563,0.7587,0.7648,0.777,0.7797,0.7868,0.7997,0.8028,0.8028,0.8004,0.8028,0.8038,0.8038,0.817,0.817,0.8041,0.8296,0.8282,0.8041,0.8174,0.8163,0.8038,0.8038,0.8038,0.8038,0.8038,0.8055,0.8072,0.8048,0.8055,0.8072,0.8048,0.8038,0.8137,1.9539,1.9459,1.9412,1.9546,1.9459,1.9366,1.9366,1.9366,1.9259,1.8965,1.8764,1.8517,1.817,1.7802,1.7582,1.7582,1.7582,1.7582,1.7582,1.7147,1.6829,1.6829,1.6287,1.5749,1.5102,1.4124,1.4031,1.4689,1.3732,1.2797,1.1591,1.0896,0.9588,0.7907,0.8569,0.9877,1.1558,1.235,1.3368,1.4258,1.2859,1.1944,1.1181,0.9543,0.897,0.8946,0.8767,0.8613,0.8504,0.8143,0.794,0.768,0.7411,0.7289,0.7248,0.7166,0.7356,0.7617,0.7706,0.7831,0.7919,0.7851,0.7885,0.7916,0.7851,0.7838,0.7838,0.7838,0.7889,0.7933,0.7933,0.7868,0.7811,0.7811,0.7692,0.0,0.0,0.7509,0.7573,0.7509,0.7628,0.7746,0.7828,0.7838,0.7865,0.7929,0.7933,0.7967,0.8035,0.8038,0.8079,0.8163,0.8163,0.8163,0.8163,0.8309,0.8347,0.8279,0.8418,0.837,0.8167,0.8238,0.8184,0.8038,0.8038,0.8089,0.8157,0.8072,0.8089,0.8153,0.8072,0.8038,0.8038,0.8038,0.8038,0.8038,1.9366,1.9366,1.9366,1.9366,1.9366,1.9366,1.9366,1.9366,1.9259,1.8965,1.8844,1.8624,1.821,1.7816,1.7582,1.7582,1.7582,1.7582,1.7582,1.7582,1.7582,1.7582,1.7582,1.7153,1.6293,1.5188,1.493,1.5374,1.4301,1.3352,1.2323,1.1034,0.9936,0.9022,0.8794,1.0125,1.2552,1.2651,1.3778,1.5305,1.3308,1.2438,1.1894,0.9912,0.9157,0.9133,0.895,0.8885,0.8774,0.8454,0.8143,0.7968,0.7703,0.7514,0.74,0.7282,0.7438,0.7699,0.7926,0.8014,0.8038,0.8038,0.8038,0.8038,0.8038,0.8038,0.8038,0.8038,0.8038,0.8038,0.8038,0.7916,0.7824,0.7858,0.0,0.0,0.0,0.7678,0.7729,0.7801,0.7841,0.7913,0.8028,0.8038,0.8038,0.8038,0.8072,0.8092,0.8092,0.8092,0.8147,0.8269,0.8303,0.8319,0.8319,0.8462,0.8516,0.8482,0.852,0.8442,0.8272,0.8272,0.8184,0.8038,0.8038,0.8106,0.8208,0.8285,0.8306,0.8204,0.8382,0.8237,0.8038,0.8038,0.8038,0.8038,1.9366,1.9366,1.9366,1.9366,1.9366,1.9366,1.9366,1.9366,1.9259,1.8965,1.8844,1.8597,1.811,1.7769,1.7582,1.7582,1.7582,1.7582,1.7582,1.7582,1.7582,1.7582,1.7582,1.7582,1.7477,1.7087,1.6797,1.66,1.6006,1.5027,1.368,1.2592,1.191,1.1633,1.1132,1.2002,1.3753,1.4082,1.4758,1.5602,1.3476,1.2694,1.2362,1.0254,0.9336,0.9315,0.9137,0.9076,0.9076,0.8773,0.8486,0.821,0.8027,0.7757,0.758,0.757,0.7675,0.7801,0.7821,0.7933,0.8038,0.8038,0.8038,0.8038,0.8038,0.8038,0.8038,0.8038,0.8038,0.8038,0.8038,0.7916,0.7858,0.7997,0.0,0.0,0.7794,0.7919,0.796,0.7828,0.7936,0.8028,0.8038,0.8038,0.8038,0.8038,0.8174,0.8252,0.8252,0.8252,0.8258,0.8272,0.8397,0.8465,0.8465,0.8618,0.8621,0.8482,0.8625,0.8543,0.8272,0.8272,0.8184,0.8038,0.8038,0.8045,0.8055,0.9122,0.8928,0.8151,0.9122,0.892,0.8038,0.8038,0.8038,0.8137,1.9366,1.9366,1.9366,1.9366,1.9366,1.9366,1.9366,1.9366,1.9325,1.9212,1.8851,1.8531,1.8343,1.7883,1.7582,1.7582,1.7582,1.7582,1.7582,1.7582,1.7582,1.7582,1.7582,1.7582,1.7582,1.7475,1.7275,1.6981,1.658,1.5579,1.4107,1.3562,1.2915,1.2145,1.195,1.2727,1.4184,1.4292,1.4873,1.5635,1.3505,1.2727,1.2431,1.032,0.9527,0.9502,0.9324,0.9254,0.9242,0.9035,0.8648,0.821,0.8217,0.7875,0.7617,0.7706,0.777,0.7811,0.7811,0.7923,0.8038,0.8038,0.8038,0.8038,0.8038,0.8038,0.8038,0.8038,0.8038,0.8038,0.8038,0.7991,0.797,0.8031,0.0,0.7953,0.7953,0.8085,0.816,0.8102,0.8225,0.8313,0.8313,0.8313,0.8313,0.8313,0.837,0.8401,0.8401,0.8492,0.8499,0.8404,0.8638,0.872,0.8625,0.8774,0.8821,0.8767,0.8825,0.8696,0.8401,0.8401,0.8269,0.8038,0.8038,0.8096,0.8275,0.916,0.9084,0.8275,0.926,0.892,0.8038,0.8038,0.8038,0.8038,1.9366,1.9366,1.9366,1.9366,1.9366,1.9366,1.9366,1.9366,1.9332,1.9239,1.8744,1.8384,1.8343,1.7889,1.7582,1.7582,1.7468,1.7448,1.7575,1.7582,1.7582,1.7582,1.7582,1.7582,1.7582,1.7582,1.7442,1.7148,1.6847,1.6043,1.4955,1.4298,1.3788,1.3403,1.3119,1.3653,1.4896,1.4815,1.521,1.5767,1.3534,1.2727,1.2533,1.0792,0.992,0.9612,0.9867,0.9878,0.9806,0.9682,0.9144,0.8651,0.8668,0.828,0.7685,0.7784,0.7845,0.7882,0.7882,0.796,0.8038,0.8038,0.8038,0.8038,0.8038,0.8038,0.8055,0.8102,0.8113,0.8126,0.8268,0.814,0.8126,0.8271,0.814,0.813,0.8174,0.8269,0.8336,0.8336,0.8421,0.8482,0.8482,0.8482,0.8482,0.8482,0.8526,0.8554,0.8554,0.8699,0.8713,0.856,0.8757,0.8815,0.8713,0.8862,0.894,0.894,0.8889,0.873,0.8479,0.8435,0.8279,0.8038,0.8038,0.8099,0.8289,0.9168,0.9091,0.8289,0.9264,0.892,0.8038,0.8038,0.8038,0.8045,1.9366,1.9366,1.9366,1.9366,1.9366,1.9366,1.9366,1.9366,1.9259,1.8958,1.8497,1.815,1.8023,1.7756,1.7582,1.7582,1.7228,1.7168,1.7555,1.7582,1.7582,1.7582,1.7582,1.7582,1.7582,1.7582,1.7442,1.7148,1.6847,1.656,1.6266,1.4908,1.4873,1.5737,1.4777,1.503,1.6259,1.5959,1.6005,1.6044,1.3705,1.2732,1.2635,1.156,1.0596,0.9723,1.0886,1.1042,1.0673,1.0673,1.0251,0.9714,0.9714,0.8816,0.7811,0.7811,0.7919,0.8038,0.8038,0.8038,0.8041,0.8038,0.8041,0.8041,0.8038,0.8038,0.8085,0.8238,0.8272,0.8416,0.887,0.857,0.8419,0.8873,0.857,0.8323,0.8462,0.8482,0.8482,0.8482,0.8486,0.8486,0.8486,0.8486,0.8486,0.8486,0.8625,0.871,0.871,0.8855,0.8869,0.8713,0.871,0.8713,0.871,0.8862,0.8937,0.8933,0.8784,0.8632,0.8479,0.8336,0.8187,0.8041,0.8038,0.8038,0.8137,0.9217,0.9019,0.8137,0.9217,0.892,0.8038,0.8038,0.8041,0.8062,1.9366,1.9366,1.9366,1.9366,1.9366,1.9366,1.9366,1.9366,1.9239,1.8871,1.8464,1.8076,1.7749,1.7635,1.7582,1.7582,1.7475,1.7455,1.7575,1.7582,1.7582,1.7582,1.7582,1.7582,1.7582,1.7582,1.7442,1.7148,1.6847,1.656,1.6266,1.5678,1.5652,1.6139,1.5848,1.6006,1.656,1.6266,1.6192,1.6149,1.4491,1.3806,1.3727,1.2915,1.2283,1.1898,1.2604,1.2673,1.2454,1.2195,1.1225,0.9969,0.8509,0.798,0.7811,0.7811,0.7919,0.8038,0.8038,0.8119,0.8177,0.8065,0.8123,0.8174,0.8261,0.8223,0.8316,0.8565,0.8575,0.8618,0.887,0.8758,0.8741,0.8888,0.8654,0.8435,0.8476,0.8574,0.8642,0.8642,0.8737,0.8801,0.8801,0.8801,0.8801,0.8801,0.8845,0.8777,0.856,0.8798,0.8818,0.8557,0.8757,0.8818,0.8713,0.8757,0.8777,0.8777,0.8842,0.8791,0.8635,0.8486,0.834,0.8197,0.8089,0.8432,0.9217,1.0293,1.0096,0.9217,1.0293,0.9608,0.8137,0.8825,0.9291,0.94,1.9345,1.9272,1.9232,1.9345,1.9272,1.9192,1.9192,1.9098,1.8891,1.8537,1.839,1.813,1.7635,1.7695,1.7716,1.7595,1.7582,1.7528,1.7422,1.7515,1.7528,1.7415,1.7522,1.7582,1.7582,1.7582,1.7495,1.7321,1.7027,1.6794,1.6613,1.6313,1.6273,1.644,1.6326,1.6433,1.668,1.6273,1.6166,1.6149,1.4889,1.4298,1.4214,1.378,1.3313,1.3008,1.3796,1.3851,1.3618,1.3368,1.2162,1.0306,0.814,0.7584,0.774,0.7794,0.7919,0.8055,0.8113,0.8201,0.8262,0.8225,0.8286,0.8433,0.8537,0.8593,0.8577,0.8845,0.8963,0.9111,0.9272,0.9246,0.9224,0.929,0.9037,0.8697,0.8655,0.8743,0.8801,0.8801,0.8828,0.8849,0.8849,0.8794,0.8757,0.8757,0.8815,0.8767,0.8581,0.8747,0.8791,0.8665,0.8723,0.8743,0.871,0.871,0.874,0.8801,0.8896,0.8825,0.8618,0.8523,0.837,0.8174,0.8079,0.8663,0.9805,1.0323,1.0281,0.9903,1.0349,0.985,0.8814,0.9339,1.0016,1.0584,1.9305,1.9105,1.8985,1.9312,1.9118,1.8925,1.8925,1.8698,1.841,1.809,1.829,1.8237,1.7649,1.7836,1.7889,1.7609,1.7582,1.7468,1.7208,1.7435,1.7462,1.7201,1.7442,1.7582,1.7582,1.7582,1.7555,1.7508,1.7261,1.7134,1.7108,1.6834,1.672,1.6734,1.6466,1.65,1.6707,1.6146,1.6052,1.6149,1.4986,1.4394,1.4394,1.4514,1.4084,1.3584,1.4511,1.4765,1.4455,1.4214,1.2834,1.0741,0.8381,0.7617,0.7662,0.7777,0.7936,0.8102,0.8218,0.8269,0.8319,0.8435,0.8472,0.8587,0.8898,0.8909,0.8959,0.9215,0.9459,0.9615,0.9786,0.9798,0.9745,0.979,0.9581,0.9211,0.892,0.8927,0.8916,0.8916,0.8781,0.8689,0.8689,0.8577,0.8503,0.8503,0.8655,0.875,0.875,0.8764,0.8828,0.8954,0.8689,0.8608,0.875,0.875,0.8808,0.8916,0.893,0.8794,0.8523,0.8509,0.8347,0.8079,0.8065,0.8829,1.0159,0.9913,1.0049,1.0319,1.0,0.987,0.9884,0.9817,1.0662,1.187,1.9305,1.8945,1.8751,1.9279,1.9118,1.8925,1.8925,1.8871,1.8637,1.8116,1.817,1.809,1.7635,1.7642,1.7655,1.7589,1.7582,1.7555,1.7495,1.7549,1.7555,1.7495,1.7549,1.7582,1.7582,1.7582,1.7355,1.6894,1.7068,1.7034,1.68,1.6734,1.6834,1.7048,1.6987,1.6994,1.7034,1.6667,1.6426,1.6246,1.5658,1.5445,1.5471,1.5796,1.5719,1.5699,1.6123,1.6268,1.5847,1.3734,1.2183,1.0851,0.8606,0.7948,0.7926,0.7838,0.8085,0.8343,0.8143,0.8258,0.8418,0.8336,0.8397,0.8587,0.9115,0.9213,0.9205,0.9341,0.967,0.9935,0.9783,1.055,1.0866,0.9919,1.0104,0.9983,0.904,0.8835,0.876,0.876,0.8625,0.853,0.853,0.8611,0.8662,0.8662,0.8906,0.9059,0.9059,0.9171,0.9195,0.911,0.9042,0.9025,0.9059,0.9059,0.8957,0.876,0.8879,0.8903,0.8835,0.8716,0.856,0.8381,0.8269,0.9341,1.1285,1.1415,1.1513,1.1488,1.1557,1.0997,1.0182,1.1062,1.2201,1.3629,1.8918,1.8591,1.8417,1.8871,1.8824,1.8671,1.8524,1.8504,1.8337,1.7883,1.8043,1.8043,1.7622,1.7842,1.7896,1.7609,1.7582,1.7582,1.7582,1.7582,1.7522,1.7382,1.7508,1.7448,1.7168,1.7442,1.7435,1.7121,1.7281,1.7275,1.7121,1.7121,1.7208,1.7355,1.7215,1.7074,1.6914,1.6627,1.6326,1.6046,1.5892,1.5832,1.5845,1.6005,1.6152,1.6293,1.6446,1.65,1.6124,1.3916,1.2479,1.118,0.9494,0.8441,0.7929,0.7923,0.814,0.8347,0.8191,0.8313,0.8465,0.8391,0.8428,0.8587,0.901,0.918,0.9239,0.9231,0.9659,1.011,1.0305,1.0963,1.1389,1.1061,1.0852,1.0321,0.957,0.8969,0.8628,0.8703,0.8516,0.8381,0.8381,0.8516,0.8632,0.8706,0.8923,0.9083,0.915,0.9228,0.9269,0.9262,0.9191,0.9188,0.9262,0.9262,0.9184,0.9028,0.9039,0.8967,0.8825,0.8747,0.8591,0.8381,0.8374,0.9701,1.1846,1.1854,1.2021,1.2188,1.2621,1.2059,1.1203,1.2245,1.3495,1.4861,1.8477,1.821,1.8076,1.843,1.849,1.839,1.809,1.809,1.7989,1.7629,1.7883,1.7963,1.7622,1.8036,1.813,1.7622,1.7582,1.7582,1.7582,1.7582,1.7475,1.7235,1.7455,1.7355,1.6867,1.7335,1.7535,1.7435,1.7482,1.7482,1.7435,1.7435,1.7435,1.7428,1.7235,1.6981,1.6693,1.65,1.6253,1.5972,1.5925,1.5905,1.5899,1.5845,1.6012,1.6266,1.6213,1.6192,1.5959,1.4244,1.2778,1.1507,1.024,0.8943,0.7909,0.8011,0.8167,0.8296,0.8245,0.8336,0.8438,0.8414,0.8404,0.8508,0.8713,0.8967,0.922,0.9111,0.9735,1.0464,1.0863,1.1385,1.1916,1.2147,1.1331,1.0519,1.0019,0.9061,0.8567,0.8696,0.8492,0.8357,0.8381,0.8513,0.8659,0.8811,0.8967,0.9117,0.9259,0.9266,0.9323,0.9452,0.931,0.9303,0.9456,0.9432,0.9418,0.9418,0.9293,0.9089,0.8825,0.8825,0.8676,0.8428,0.8547,0.9949,1.2016,1.2045,1.2134,1.2493,1.3136,1.267,1.1931,1.3268,1.4497,1.5734,1.8437,1.8036,1.7822,1.839,1.849,1.839,1.809,1.8263,1.823,1.7655,1.7629,1.7642,1.7589,1.7655,1.7675,1.7589,1.7582,1.7582,1.7582,1.7582,1.7562,1.7522,1.7562,1.7549,1.7468,1.7542,1.7335,1.682,1.7081,1.7081,1.682,1.682,1.682,1.6834,1.7054,1.6981,1.672,1.6941,1.686,1.6567,1.6313,1.6213,1.6186,1.5925,1.6012,1.6239,1.5979,1.5885,1.5586,1.3511,1.2415,1.1516,0.96,0.8614,0.8187,0.8072,0.8235,0.8397,0.814,0.8184,0.8265,0.8133,0.8099,0.8099,0.8099,0.8603,0.9108,0.9533,1.0456,1.1173,1.1272,1.2617,1.3204,1.1507,1.1539,1.1176,0.929,0.8872,0.8686,0.871,0.8676,0.8703,0.8835,0.8977,0.9127,0.9279,0.9432,0.9581,0.9724,0.973,0.9741,0.9761,0.9622,0.9615,0.9761,0.9639,0.9578,0.9578,0.9557,0.9456,0.9289,0.9289,0.9198,0.9035,0.9055,1.0307,1.2346,1.2631,1.2521,1.2427,1.2769,1.2064,1.1197,1.3535,1.5161,1.6223,1.7989,1.7769,1.7662,1.7936,1.813,1.8143,1.7836,1.8096,1.815,1.7649,1.7582,1.7582,1.7582,1.7582,1.7582,1.7582,1.7582,1.7582,1.7582,1.7582,1.7582,1.7582,1.7582,1.7582,1.7582,1.7582,1.7295,1.6707,1.7007,1.7001,1.6707,1.6707,1.6707,1.672,1.7014,1.6894,1.648,1.678,1.664,1.6206,1.6079,1.6025,1.6012,1.5879,1.5912,1.6005,1.5879,1.5832,1.5635,1.4765,1.3403,1.195,1.1068,0.9661,0.8327,0.8258,0.8693,0.9024,0.8196,0.8549,0.8936,0.8175,0.8528,0.9118,0.9312,1.0104,1.0569,0.9766,1.0344,1.1344,1.2343,1.3243,1.3774,1.374,1.2655,1.1516,1.0967,0.964,0.8838,0.8838,0.8984,0.9079,0.9059,0.9191,0.9344,0.9496,0.9571,0.9673,0.9815,0.9822,0.9822,0.9822,0.9761,0.972,0.9703,0.9642,0.9568,0.9483,0.9483,0.9401,0.9252,0.9252,0.9174,0.9035,0.9117,1.0066,1.1459,1.1759,1.1707,1.1559,1.3081,1.3773,1.3946,1.5451,1.6092,1.632]}]]